<?xml version="1.0" encoding="UTF-8" standalone="no" ?>
<gpx xmlns="http://www.topografix.com/GPX/1/1" xmlns:xsi="http://www.w3.org/2001/XMLSchema-instance" xsi:schemaLocation="http://www.topografix.com/GPX/1/1 http://www.topografix.com/GPX/1/1/gpx.xsd" version="1.1" creator="VisuGPX - https://www.visugpx.com">
  <metadata>
    <name>2019-09-08 17:32:39</name>
    <desc><![CDATA[

]]></desc>
  </metadata>
  <trk>
    <name><![CDATA[2019-09-08 17:32:39]]></name>
    <trkseg>
      <trkpt lat="42.98365" lon="0.67053">
        <ele>602.86</ele>
        <time>2019-09-08T06:21:53Z</time>
      </trkpt>
      <trkpt lat="42.98368" lon="0.67065">
        <ele>603.17</ele>
        <time>2019-09-08T06:22:11Z</time>
      </trkpt>
      <trkpt lat="42.98386" lon="0.67056">
        <ele>603.44</ele>
        <time>2019-09-08T06:22:27Z</time>
      </trkpt>
      <trkpt lat="42.98394" lon="0.67034">
        <ele>604.72</ele>
        <time>2019-09-08T06:22:44Z</time>
      </trkpt>
      <trkpt lat="42.98397" lon="0.67025">
        <ele>606.01</ele>
        <time>2019-09-08T06:23:00Z</time>
      </trkpt>
      <trkpt lat="42.98408" lon="0.67021">
        <ele>607.38</ele>
        <time>2019-09-08T06:23:16Z</time>
      </trkpt>
      <trkpt lat="42.98424" lon="0.67012">
        <ele>607.96</ele>
        <time>2019-09-08T06:23:32Z</time>
      </trkpt>
      <trkpt lat="42.98438" lon="0.66986">
        <ele>606.41</ele>
        <time>2019-09-08T06:23:53Z</time>
      </trkpt>
      <trkpt lat="42.98449" lon="0.66972">
        <ele>604.09</ele>
        <time>2019-09-08T06:24:08Z</time>
      </trkpt>
      <trkpt lat="42.98459" lon="0.66988">
        <ele>604.04</ele>
        <time>2019-09-08T06:24:24Z</time>
      </trkpt>
      <trkpt lat="42.98459" lon="0.6699">
        <ele>604.11</ele>
        <time>2019-09-08T06:24:25Z</time>
      </trkpt>
      <trkpt lat="42.98471" lon="0.67001">
        <ele>604.68</ele>
        <time>2019-09-08T06:24:39Z</time>
      </trkpt>
      <trkpt lat="42.9849" lon="0.6701">
        <ele>604.61</ele>
        <time>2019-09-08T06:24:57Z</time>
      </trkpt>
      <trkpt lat="42.98501" lon="0.67025">
        <ele>605.01</ele>
        <time>2019-09-08T06:25:10Z</time>
      </trkpt>
      <trkpt lat="42.9851" lon="0.67041">
        <ele>605.72</ele>
        <time>2019-09-08T06:25:24Z</time>
      </trkpt>
      <trkpt lat="42.98514" lon="0.67045">
        <ele>606.03</ele>
        <time>2019-09-08T06:25:27Z</time>
      </trkpt>
      <trkpt lat="42.98515" lon="0.67046">
        <ele>606.12</ele>
        <time>2019-09-08T06:25:28Z</time>
      </trkpt>
      <trkpt lat="42.98516" lon="0.67048">
        <ele>606.18</ele>
        <time>2019-09-08T06:25:29Z</time>
      </trkpt>
      <trkpt lat="42.98529" lon="0.67068">
        <ele>606.81</ele>
        <time>2019-09-08T06:25:43Z</time>
      </trkpt>
      <trkpt lat="42.98531" lon="0.67071">
        <ele>606.85</ele>
        <time>2019-09-08T06:25:45Z</time>
      </trkpt>
      <trkpt lat="42.98532" lon="0.67073">
        <ele>606.88</ele>
        <time>2019-09-08T06:25:46Z</time>
      </trkpt>
      <trkpt lat="42.98544" lon="0.67094">
        <ele>607.13</ele>
        <time>2019-09-08T06:26:03Z</time>
      </trkpt>
      <trkpt lat="42.98548" lon="0.67099">
        <ele>606.77</ele>
        <time>2019-09-08T06:26:08Z</time>
      </trkpt>
      <trkpt lat="42.98561" lon="0.67109">
        <ele>605.7</ele>
        <time>2019-09-08T06:26:19Z</time>
      </trkpt>
      <trkpt lat="42.9858" lon="0.67116">
        <ele>604.57</ele>
        <time>2019-09-08T06:26:34Z</time>
      </trkpt>
      <trkpt lat="42.986" lon="0.67125">
        <ele>603.99</ele>
        <time>2019-09-08T06:26:52Z</time>
      </trkpt>
      <trkpt lat="42.98618" lon="0.67137">
        <ele>603.77</ele>
        <time>2019-09-08T06:27:09Z</time>
      </trkpt>
      <trkpt lat="42.98635" lon="0.67156">
        <ele>603.72</ele>
        <time>2019-09-08T06:27:26Z</time>
      </trkpt>
      <trkpt lat="42.9864" lon="0.67167">
        <ele>603.72</ele>
        <time>2019-09-08T06:27:34Z</time>
      </trkpt>
      <trkpt lat="42.98646" lon="0.67184">
        <ele>603.63</ele>
        <time>2019-09-08T06:27:48Z</time>
      </trkpt>
      <trkpt lat="42.98662" lon="0.67205">
        <ele>603.32</ele>
        <time>2019-09-08T06:28:05Z</time>
      </trkpt>
      <trkpt lat="42.98664" lon="0.67207">
        <ele>603.28</ele>
        <time>2019-09-08T06:28:06Z</time>
      </trkpt>
      <trkpt lat="42.98679" lon="0.67217">
        <ele>602.73</ele>
        <time>2019-09-08T06:28:18Z</time>
      </trkpt>
      <trkpt lat="42.98697" lon="0.67231">
        <ele>601.15</ele>
        <time>2019-09-08T06:28:34Z</time>
      </trkpt>
      <trkpt lat="42.98706" lon="0.67233">
        <ele>600.42</ele>
        <time>2019-09-08T06:28:40Z</time>
      </trkpt>
      <trkpt lat="42.98708" lon="0.67233">
        <ele>600.35</ele>
        <time>2019-09-08T06:28:41Z</time>
      </trkpt>
      <trkpt lat="42.98735" lon="0.6723">
        <ele>599.52</ele>
        <time>2019-09-08T06:29:02Z</time>
      </trkpt>
      <trkpt lat="42.98757" lon="0.67227">
        <ele>599.24</ele>
        <time>2019-09-08T06:29:20Z</time>
      </trkpt>
      <trkpt lat="42.98779" lon="0.67221">
        <ele>598.72</ele>
        <time>2019-09-08T06:29:38Z</time>
      </trkpt>
      <trkpt lat="42.98809" lon="0.67216">
        <ele>598.44</ele>
        <time>2019-09-08T06:30:01Z</time>
      </trkpt>
      <trkpt lat="42.98837" lon="0.67214">
        <ele>598.36</ele>
        <time>2019-09-08T06:30:24Z</time>
      </trkpt>
      <trkpt lat="42.98848" lon="0.67222">
        <ele>598.02</ele>
        <time>2019-09-08T06:30:34Z</time>
      </trkpt>
      <trkpt lat="42.98851" lon="0.67241">
        <ele>596.9</ele>
        <time>2019-09-08T06:30:50Z</time>
      </trkpt>
      <trkpt lat="42.98849" lon="0.67239">
        <ele>597.09</ele>
        <time>2019-09-08T06:31:24Z</time>
      </trkpt>
      <trkpt lat="42.98854" lon="0.67219">
        <ele>597.07</ele>
        <time>2019-09-08T06:31:38Z</time>
      </trkpt>
      <trkpt lat="42.98855" lon="0.67213">
        <ele>597.24</ele>
        <time>2019-09-08T06:31:41Z</time>
      </trkpt>
      <trkpt lat="42.98864" lon="0.67207">
        <ele>597.61</ele>
        <time>2019-09-08T06:31:50Z</time>
      </trkpt>
      <trkpt lat="42.98877" lon="0.67201">
        <ele>598.79</ele>
        <time>2019-09-08T06:32:03Z</time>
      </trkpt>
      <trkpt lat="42.98895" lon="0.67198">
        <ele>599.08</ele>
        <time>2019-09-08T06:32:16Z</time>
      </trkpt>
      <trkpt lat="42.98918" lon="0.67201">
        <ele>599.67</ele>
        <time>2019-09-08T06:32:35Z</time>
      </trkpt>
      <trkpt lat="42.98939" lon="0.67218">
        <ele>600.21</ele>
        <time>2019-09-08T06:32:52Z</time>
      </trkpt>
      <trkpt lat="42.98955" lon="0.67236">
        <ele>600.2</ele>
        <time>2019-09-08T06:33:10Z</time>
      </trkpt>
      <trkpt lat="42.98971" lon="0.67259">
        <ele>599.82</ele>
        <time>2019-09-08T06:33:27Z</time>
      </trkpt>
      <trkpt lat="42.98982" lon="0.67281">
        <ele>599.75</ele>
        <time>2019-09-08T06:33:42Z</time>
      </trkpt>
      <trkpt lat="42.98993" lon="0.67301">
        <ele>599.78</ele>
        <time>2019-09-08T06:33:57Z</time>
      </trkpt>
      <trkpt lat="42.99004" lon="0.67324">
        <ele>599.69</ele>
        <time>2019-09-08T06:34:13Z</time>
      </trkpt>
      <trkpt lat="42.99017" lon="0.67345">
        <ele>599.59</ele>
        <time>2019-09-08T06:34:27Z</time>
      </trkpt>
      <trkpt lat="42.99019" lon="0.67349">
        <ele>599.57</ele>
        <time>2019-09-08T06:34:29Z</time>
      </trkpt>
      <trkpt lat="42.9902" lon="0.67351">
        <ele>599.56</ele>
        <time>2019-09-08T06:34:30Z</time>
      </trkpt>
      <trkpt lat="42.99033" lon="0.67376">
        <ele>599.35</ele>
        <time>2019-09-08T06:34:44Z</time>
      </trkpt>
      <trkpt lat="42.99037" lon="0.67382">
        <ele>599.44</ele>
        <time>2019-09-08T06:34:48Z</time>
      </trkpt>
      <trkpt lat="42.99041" lon="0.67397">
        <ele>599.9</ele>
        <time>2019-09-08T06:34:59Z</time>
      </trkpt>
      <trkpt lat="42.99043" lon="0.67405">
        <ele>600.26</ele>
        <time>2019-09-08T06:35:05Z</time>
      </trkpt>
      <trkpt lat="42.99053" lon="0.67416">
        <ele>601.1</ele>
        <time>2019-09-08T06:35:18Z</time>
      </trkpt>
      <trkpt lat="42.99069" lon="0.6742">
        <ele>602.47</ele>
        <time>2019-09-08T06:35:33Z</time>
      </trkpt>
      <trkpt lat="42.99086" lon="0.6742">
        <ele>603.99</ele>
        <time>2019-09-08T06:35:49Z</time>
      </trkpt>
      <trkpt lat="42.99093" lon="0.67421">
        <ele>604.42</ele>
        <time>2019-09-08T06:35:54Z</time>
      </trkpt>
      <trkpt lat="42.99107" lon="0.67424">
        <ele>605.67</ele>
        <time>2019-09-08T06:36:06Z</time>
      </trkpt>
      <trkpt lat="42.99112" lon="0.67425">
        <ele>606.1</ele>
        <time>2019-09-08T06:36:10Z</time>
      </trkpt>
      <trkpt lat="42.99113" lon="0.67426">
        <ele>606.2</ele>
        <time>2019-09-08T06:36:11Z</time>
      </trkpt>
      <trkpt lat="42.99114" lon="0.67426">
        <ele>606.3</ele>
        <time>2019-09-08T06:36:12Z</time>
      </trkpt>
      <trkpt lat="42.99132" lon="0.67437">
        <ele>608.36</ele>
        <time>2019-09-08T06:36:29Z</time>
      </trkpt>
      <trkpt lat="42.9915" lon="0.6744">
        <ele>610</ele>
        <time>2019-09-08T06:36:43Z</time>
      </trkpt>
      <trkpt lat="42.99161" lon="0.67437">
        <ele>610.04</ele>
        <time>2019-09-08T06:37:00Z</time>
      </trkpt>
      <trkpt lat="42.99163" lon="0.67435">
        <ele>610.03</ele>
        <time>2019-09-08T06:37:28Z</time>
      </trkpt>
      <trkpt lat="42.99164" lon="0.67431">
        <ele>607.47</ele>
        <time>2019-09-08T06:37:57Z</time>
      </trkpt>
      <trkpt lat="42.99165" lon="0.67431">
        <ele>608.51</ele>
        <time>2019-09-08T06:37:58Z</time>
      </trkpt>
      <trkpt lat="42.99165" lon="0.67432">
        <ele>609.3</ele>
        <time>2019-09-08T06:38:00Z</time>
      </trkpt>
      <trkpt lat="42.99173" lon="0.6744">
        <ele>609.56</ele>
        <time>2019-09-08T06:38:17Z</time>
      </trkpt>
      <trkpt lat="42.99185" lon="0.67449">
        <ele>609.56</ele>
        <time>2019-09-08T06:38:34Z</time>
      </trkpt>
      <trkpt lat="42.99201" lon="0.67445">
        <ele>609.56</ele>
        <time>2019-09-08T06:38:53Z</time>
      </trkpt>
      <trkpt lat="42.99203" lon="0.67442">
        <ele>599.62</ele>
        <time>2019-09-08T06:38:58Z</time>
      </trkpt>
      <trkpt lat="42.99203" lon="0.67441">
        <ele>599.7</ele>
        <time>2019-09-08T06:38:59Z</time>
      </trkpt>
      <trkpt lat="42.99215" lon="0.67414">
        <ele>596.56</ele>
        <time>2019-09-08T06:39:18Z</time>
      </trkpt>
      <trkpt lat="42.99225" lon="0.67395">
        <ele>593.85</ele>
        <time>2019-09-08T06:39:35Z</time>
      </trkpt>
      <trkpt lat="42.99235" lon="0.67388">
        <ele>591.53</ele>
        <time>2019-09-08T06:39:52Z</time>
      </trkpt>
      <trkpt lat="42.99235" lon="0.67388">
        <ele>590.57</ele>
        <time>2019-09-08T06:39:56Z</time>
      </trkpt>
      <trkpt lat="42.99236" lon="0.67418">
        <ele>587.76</ele>
        <time>2019-09-08T06:40:16Z</time>
      </trkpt>
      <trkpt lat="42.99244" lon="0.67417">
        <ele>584.63</ele>
        <time>2019-09-08T06:40:31Z</time>
      </trkpt>
      <trkpt lat="42.9925" lon="0.67416">
        <ele>581.57</ele>
        <time>2019-09-08T06:40:44Z</time>
      </trkpt>
      <trkpt lat="42.99263" lon="0.67424">
        <ele>578.51</ele>
        <time>2019-09-08T06:40:58Z</time>
      </trkpt>
      <trkpt lat="42.99277" lon="0.67425">
        <ele>575.28</ele>
        <time>2019-09-08T06:41:11Z</time>
      </trkpt>
      <trkpt lat="42.99294" lon="0.67419">
        <ele>572.08</ele>
        <time>2019-09-08T06:41:26Z</time>
      </trkpt>
      <trkpt lat="42.99304" lon="0.6741">
        <ele>569.06</ele>
        <time>2019-09-08T06:41:38Z</time>
      </trkpt>
      <trkpt lat="42.99318" lon="0.67401">
        <ele>565.87</ele>
        <time>2019-09-08T06:41:51Z</time>
      </trkpt>
      <trkpt lat="42.99326" lon="0.67395">
        <ele>562.74</ele>
        <time>2019-09-08T06:42:03Z</time>
      </trkpt>
      <trkpt lat="42.9933" lon="0.67393">
        <ele>561.81</ele>
        <time>2019-09-08T06:42:06Z</time>
      </trkpt>
      <trkpt lat="42.99344" lon="0.67388">
        <ele>558.44</ele>
        <time>2019-09-08T06:42:23Z</time>
      </trkpt>
      <trkpt lat="42.99352" lon="0.67385">
        <ele>555.91</ele>
        <time>2019-09-08T06:42:38Z</time>
      </trkpt>
      <trkpt lat="42.99371" lon="0.67379">
        <ele>553.41</ele>
        <time>2019-09-08T06:42:57Z</time>
      </trkpt>
      <trkpt lat="42.99402" lon="0.67376">
        <ele>551.62</ele>
        <time>2019-09-08T06:43:16Z</time>
      </trkpt>
      <trkpt lat="42.99413" lon="0.67377">
        <ele>550.92</ele>
        <time>2019-09-08T06:43:36Z</time>
      </trkpt>
      <trkpt lat="42.99421" lon="0.67377">
        <ele>550.86</ele>
        <time>2019-09-08T06:44:01Z</time>
      </trkpt>
      <trkpt lat="42.99426" lon="0.67375">
        <ele>550.56</ele>
        <time>2019-09-08T06:44:28Z</time>
      </trkpt>
      <trkpt lat="42.99431" lon="0.6737">
        <ele>550.66</ele>
        <time>2019-09-08T06:44:57Z</time>
      </trkpt>
      <trkpt lat="42.9943" lon="0.67374">
        <ele>550.64</ele>
        <time>2019-09-08T06:45:28Z</time>
      </trkpt>
      <trkpt lat="42.99432" lon="0.6737">
        <ele>550.64</ele>
        <time>2019-09-08T06:45:52Z</time>
      </trkpt>
      <trkpt lat="42.99443" lon="0.67373">
        <ele>550.64</ele>
        <time>2019-09-08T06:46:10Z</time>
      </trkpt>
      <trkpt lat="42.99452" lon="0.67379">
        <ele>550.64</ele>
        <time>2019-09-08T06:46:16Z</time>
      </trkpt>
      <trkpt lat="42.99476" lon="0.67386">
        <ele>550.64</ele>
        <time>2019-09-08T06:46:35Z</time>
      </trkpt>
      <trkpt lat="42.99493" lon="0.67388">
        <ele>550.64</ele>
        <time>2019-09-08T06:46:51Z</time>
      </trkpt>
      <trkpt lat="42.99508" lon="0.6739">
        <ele>545.15</ele>
        <time>2019-09-08T06:47:06Z</time>
      </trkpt>
      <trkpt lat="42.99509" lon="0.6739">
        <ele>544.99</ele>
        <time>2019-09-08T06:47:07Z</time>
      </trkpt>
      <trkpt lat="42.9952" lon="0.67399">
        <ele>542.71</ele>
        <time>2019-09-08T06:47:24Z</time>
      </trkpt>
      <trkpt lat="42.99544" lon="0.67407">
        <ele>539.57</ele>
        <time>2019-09-08T06:47:42Z</time>
      </trkpt>
      <trkpt lat="42.99566" lon="0.67418">
        <ele>537.79</ele>
        <time>2019-09-08T06:47:58Z</time>
      </trkpt>
      <trkpt lat="42.99579" lon="0.67428">
        <ele>536.52</ele>
        <time>2019-09-08T06:48:11Z</time>
      </trkpt>
      <trkpt lat="42.99592" lon="0.6745">
        <ele>535.07</ele>
        <time>2019-09-08T06:48:27Z</time>
      </trkpt>
      <trkpt lat="42.99607" lon="0.67466">
        <ele>534.46</ele>
        <time>2019-09-08T06:48:41Z</time>
      </trkpt>
      <trkpt lat="42.99618" lon="0.67463">
        <ele>533.97</ele>
        <time>2019-09-08T06:48:50Z</time>
      </trkpt>
      <trkpt lat="42.99633" lon="0.67444">
        <ele>533.49</ele>
        <time>2019-09-08T06:49:05Z</time>
      </trkpt>
      <trkpt lat="42.99646" lon="0.67432">
        <ele>533.38</ele>
        <time>2019-09-08T06:49:21Z</time>
      </trkpt>
      <trkpt lat="42.99667" lon="0.6741">
        <ele>533.39</ele>
        <time>2019-09-08T06:49:38Z</time>
      </trkpt>
      <trkpt lat="42.99684" lon="0.67394">
        <ele>533.37</ele>
        <time>2019-09-08T06:49:52Z</time>
      </trkpt>
      <trkpt lat="42.99694" lon="0.67377">
        <ele>533.01</ele>
        <time>2019-09-08T06:50:07Z</time>
      </trkpt>
      <trkpt lat="42.99712" lon="0.67359">
        <ele>532.66</ele>
        <time>2019-09-08T06:50:24Z</time>
      </trkpt>
      <trkpt lat="42.99728" lon="0.67346">
        <ele>532.57</ele>
        <time>2019-09-08T06:50:36Z</time>
      </trkpt>
      <trkpt lat="42.9973" lon="0.67344">
        <ele>532.53</ele>
        <time>2019-09-08T06:50:38Z</time>
      </trkpt>
      <trkpt lat="42.99746" lon="0.67335">
        <ele>532.42</ele>
        <time>2019-09-08T06:50:52Z</time>
      </trkpt>
      <trkpt lat="42.9976" lon="0.67329">
        <ele>532.3</ele>
        <time>2019-09-08T06:51:08Z</time>
      </trkpt>
      <trkpt lat="42.99764" lon="0.67327">
        <ele>532.3</ele>
        <time>2019-09-08T06:51:11Z</time>
      </trkpt>
      <trkpt lat="42.99784" lon="0.67314">
        <ele>532.49</ele>
        <time>2019-09-08T06:51:27Z</time>
      </trkpt>
      <trkpt lat="42.99793" lon="0.6731">
        <ele>532.62</ele>
        <time>2019-09-08T06:51:32Z</time>
      </trkpt>
      <trkpt lat="42.99796" lon="0.67307">
        <ele>532.71</ele>
        <time>2019-09-08T06:51:35Z</time>
      </trkpt>
      <trkpt lat="42.99812" lon="0.67302">
        <ele>533.27</ele>
        <time>2019-09-08T06:51:51Z</time>
      </trkpt>
      <trkpt lat="42.99835" lon="0.67292">
        <ele>532.99</ele>
        <time>2019-09-08T06:52:10Z</time>
      </trkpt>
      <trkpt lat="42.99856" lon="0.67284">
        <ele>533.01</ele>
        <time>2019-09-08T06:52:26Z</time>
      </trkpt>
      <trkpt lat="42.99868" lon="0.67281">
        <ele>533.18</ele>
        <time>2019-09-08T06:52:34Z</time>
      </trkpt>
      <trkpt lat="42.99892" lon="0.67272">
        <ele>533.95</ele>
        <time>2019-09-08T06:52:53Z</time>
      </trkpt>
      <trkpt lat="42.99913" lon="0.67263">
        <ele>535.81</ele>
        <time>2019-09-08T06:53:11Z</time>
      </trkpt>
      <trkpt lat="42.99933" lon="0.67274">
        <ele>536.46</ele>
        <time>2019-09-08T06:53:27Z</time>
      </trkpt>
      <trkpt lat="42.99952" lon="0.67275">
        <ele>537</ele>
        <time>2019-09-08T06:53:43Z</time>
      </trkpt>
      <trkpt lat="42.99956" lon="0.67277">
        <ele>537.1</ele>
        <time>2019-09-08T06:53:47Z</time>
      </trkpt>
      <trkpt lat="42.99957" lon="0.67277">
        <ele>537.13</ele>
        <time>2019-09-08T06:53:48Z</time>
      </trkpt>
      <trkpt lat="42.99959" lon="0.67278">
        <ele>537.15</ele>
        <time>2019-09-08T06:53:49Z</time>
      </trkpt>
      <trkpt lat="42.9996" lon="0.67278">
        <ele>537.18</ele>
        <time>2019-09-08T06:53:50Z</time>
      </trkpt>
      <trkpt lat="42.99983" lon="0.67289">
        <ele>537.55</ele>
        <time>2019-09-08T06:54:07Z</time>
      </trkpt>
      <trkpt lat="42.9999" lon="0.6729">
        <ele>537.24</ele>
        <time>2019-09-08T06:54:24Z</time>
      </trkpt>
      <trkpt lat="42.9999" lon="0.67286">
        <ele>537.49</ele>
        <time>2019-09-08T06:54:40Z</time>
      </trkpt>
      <trkpt lat="42.99992" lon="0.67282">
        <ele>537.83</ele>
        <time>2019-09-08T06:54:54Z</time>
      </trkpt>
      <trkpt lat="42.99996" lon="0.67277">
        <ele>538.52</ele>
        <time>2019-09-08T06:54:58Z</time>
      </trkpt>
      <trkpt lat="43.00006" lon="0.67268">
        <ele>538.67</ele>
        <time>2019-09-08T06:55:07Z</time>
      </trkpt>
      <trkpt lat="43.00008" lon="0.67248">
        <ele>539.46</ele>
        <time>2019-09-08T06:55:18Z</time>
      </trkpt>
      <trkpt lat="43.00002" lon="0.67224">
        <ele>542.02</ele>
        <time>2019-09-08T06:55:37Z</time>
      </trkpt>
      <trkpt lat="42.99995" lon="0.67197">
        <ele>544.35</ele>
        <time>2019-09-08T06:55:55Z</time>
      </trkpt>
      <trkpt lat="42.9998" lon="0.6718">
        <ele>544.52</ele>
        <time>2019-09-08T06:56:12Z</time>
      </trkpt>
      <trkpt lat="42.99974" lon="0.6718">
        <ele>544.02</ele>
        <time>2019-09-08T06:56:17Z</time>
      </trkpt>
      <trkpt lat="42.99964" lon="0.67174">
        <ele>543.7</ele>
        <time>2019-09-08T06:56:32Z</time>
      </trkpt>
      <trkpt lat="42.99964" lon="0.67149">
        <ele>546.2</ele>
        <time>2019-09-08T06:56:50Z</time>
      </trkpt>
      <trkpt lat="42.99955" lon="0.6713">
        <ele>547.76</ele>
        <time>2019-09-08T06:57:05Z</time>
      </trkpt>
      <trkpt lat="42.99954" lon="0.67128">
        <ele>547.63</ele>
        <time>2019-09-08T06:57:23Z</time>
      </trkpt>
      <trkpt lat="42.99949" lon="0.67124">
        <ele>547.08</ele>
        <time>2019-09-08T06:57:53Z</time>
      </trkpt>
      <trkpt lat="42.99935" lon="0.67108">
        <ele>546.34</ele>
        <time>2019-09-08T06:58:09Z</time>
      </trkpt>
      <trkpt lat="42.99934" lon="0.67104">
        <ele>546.33</ele>
        <time>2019-09-08T06:58:12Z</time>
      </trkpt>
      <trkpt lat="42.99926" lon="0.67082">
        <ele>546.57</ele>
        <time>2019-09-08T06:58:29Z</time>
      </trkpt>
      <trkpt lat="42.99923" lon="0.67074">
        <ele>546.64</ele>
        <time>2019-09-08T06:58:39Z</time>
      </trkpt>
      <trkpt lat="42.99913" lon="0.67052">
        <ele>546.94</ele>
        <time>2019-09-08T06:58:57Z</time>
      </trkpt>
      <trkpt lat="42.99906" lon="0.67029">
        <ele>546.94</ele>
        <time>2019-09-08T06:59:18Z</time>
      </trkpt>
      <trkpt lat="42.99902" lon="0.67007">
        <ele>555.63</ele>
        <time>2019-09-08T06:59:37Z</time>
      </trkpt>
      <trkpt lat="42.9989" lon="0.66986">
        <ele>558.89</ele>
        <time>2019-09-08T07:00:00Z</time>
      </trkpt>
      <trkpt lat="42.99868" lon="0.66965">
        <ele>558.83</ele>
        <time>2019-09-08T07:00:18Z</time>
      </trkpt>
      <trkpt lat="42.99858" lon="0.66951">
        <ele>559.49</ele>
        <time>2019-09-08T07:00:35Z</time>
      </trkpt>
      <trkpt lat="42.9985" lon="0.66924">
        <ele>561.85</ele>
        <time>2019-09-08T07:00:57Z</time>
      </trkpt>
      <trkpt lat="42.99848" lon="0.66906">
        <ele>564.38</ele>
        <time>2019-09-08T07:01:13Z</time>
      </trkpt>
      <trkpt lat="42.99842" lon="0.66888">
        <ele>567.22</ele>
        <time>2019-09-08T07:01:31Z</time>
      </trkpt>
      <trkpt lat="42.99837" lon="0.66871">
        <ele>569.84</ele>
        <time>2019-09-08T07:01:53Z</time>
      </trkpt>
      <trkpt lat="42.99829" lon="0.66848">
        <ele>572.66</ele>
        <time>2019-09-08T07:02:12Z</time>
      </trkpt>
      <trkpt lat="42.9982" lon="0.66827">
        <ele>575.81</ele>
        <time>2019-09-08T07:02:32Z</time>
      </trkpt>
      <trkpt lat="42.99814" lon="0.66814">
        <ele>578.35</ele>
        <time>2019-09-08T07:02:53Z</time>
      </trkpt>
      <trkpt lat="42.99816" lon="0.66804">
        <ele>580.65</ele>
        <time>2019-09-08T07:03:09Z</time>
      </trkpt>
      <trkpt lat="42.99808" lon="0.66778">
        <ele>583.17</ele>
        <time>2019-09-08T07:03:29Z</time>
      </trkpt>
      <trkpt lat="42.99806" lon="0.66765">
        <ele>585.71</ele>
        <time>2019-09-08T07:03:48Z</time>
      </trkpt>
      <trkpt lat="42.99804" lon="0.66748">
        <ele>588.64</ele>
        <time>2019-09-08T07:04:07Z</time>
      </trkpt>
      <trkpt lat="42.99803" lon="0.66725">
        <ele>591.22</ele>
        <time>2019-09-08T07:04:24Z</time>
      </trkpt>
      <trkpt lat="42.998" lon="0.66712">
        <ele>593.96</ele>
        <time>2019-09-08T07:04:42Z</time>
      </trkpt>
      <trkpt lat="42.99801" lon="0.66698">
        <ele>597.04</ele>
        <time>2019-09-08T07:05:01Z</time>
      </trkpt>
      <trkpt lat="42.99794" lon="0.66677">
        <ele>599.33</ele>
        <time>2019-09-08T07:05:19Z</time>
      </trkpt>
      <trkpt lat="42.9979" lon="0.66674">
        <ele>600.01</ele>
        <time>2019-09-08T07:05:23Z</time>
      </trkpt>
      <trkpt lat="42.99787" lon="0.66665">
        <ele>602.54</ele>
        <time>2019-09-08T07:05:43Z</time>
      </trkpt>
      <trkpt lat="42.99778" lon="0.66646">
        <ele>604.53</ele>
        <time>2019-09-08T07:06:00Z</time>
      </trkpt>
      <trkpt lat="42.99771" lon="0.66624">
        <ele>607.53</ele>
        <time>2019-09-08T07:06:20Z</time>
      </trkpt>
      <trkpt lat="42.99766" lon="0.66614">
        <ele>609.27</ele>
        <time>2019-09-08T07:06:43Z</time>
      </trkpt>
      <trkpt lat="42.99764" lon="0.66609">
        <ele>609.05</ele>
        <time>2019-09-08T07:07:22Z</time>
      </trkpt>
      <trkpt lat="42.99763" lon="0.66608">
        <ele>609.15</ele>
        <time>2019-09-08T07:07:49Z</time>
      </trkpt>
      <trkpt lat="42.99762" lon="0.66607">
        <ele>609.27</ele>
        <time>2019-09-08T07:08:20Z</time>
      </trkpt>
      <trkpt lat="42.99759" lon="0.66607">
        <ele>609.27</ele>
        <time>2019-09-08T07:08:54Z</time>
      </trkpt>
      <trkpt lat="42.99758" lon="0.66609">
        <ele>609.27</ele>
        <time>2019-09-08T07:09:20Z</time>
      </trkpt>
      <trkpt lat="42.99758" lon="0.66601">
        <ele>609.27</ele>
        <time>2019-09-08T07:09:36Z</time>
      </trkpt>
      <trkpt lat="42.99758" lon="0.66588">
        <ele>613.54</ele>
        <time>2019-09-08T07:09:47Z</time>
      </trkpt>
      <trkpt lat="42.99758" lon="0.66587">
        <ele>613.56</ele>
        <time>2019-09-08T07:09:48Z</time>
      </trkpt>
      <trkpt lat="42.99759" lon="0.66569">
        <ele>616.61</ele>
        <time>2019-09-08T07:10:06Z</time>
      </trkpt>
      <trkpt lat="42.9976" lon="0.66556">
        <ele>619.77</ele>
        <time>2019-09-08T07:10:24Z</time>
      </trkpt>
      <trkpt lat="42.9976" lon="0.66541">
        <ele>622.29</ele>
        <time>2019-09-08T07:10:42Z</time>
      </trkpt>
      <trkpt lat="42.99757" lon="0.66526">
        <ele>625.13</ele>
        <time>2019-09-08T07:11:01Z</time>
      </trkpt>
      <trkpt lat="42.99751" lon="0.66511">
        <ele>626.63</ele>
        <time>2019-09-08T07:11:23Z</time>
      </trkpt>
      <trkpt lat="42.99747" lon="0.66495">
        <ele>626.55</ele>
        <time>2019-09-08T07:11:51Z</time>
      </trkpt>
      <trkpt lat="42.99743" lon="0.66491">
        <ele>626.34</ele>
        <time>2019-09-08T07:12:16Z</time>
      </trkpt>
      <trkpt lat="42.99738" lon="0.66488">
        <ele>627.21</ele>
        <time>2019-09-08T07:12:32Z</time>
      </trkpt>
      <trkpt lat="42.9973" lon="0.66494">
        <ele>628.23</ele>
        <time>2019-09-08T07:12:42Z</time>
      </trkpt>
      <trkpt lat="42.99713" lon="0.66502">
        <ele>631.35</ele>
        <time>2019-09-08T07:13:00Z</time>
      </trkpt>
      <trkpt lat="42.99709" lon="0.66498">
        <ele>634.44</ele>
        <time>2019-09-08T07:13:17Z</time>
      </trkpt>
      <trkpt lat="42.99708" lon="0.66488">
        <ele>637.59</ele>
        <time>2019-09-08T07:13:33Z</time>
      </trkpt>
      <trkpt lat="42.99712" lon="0.66467">
        <ele>640.63</ele>
        <time>2019-09-08T07:13:50Z</time>
      </trkpt>
      <trkpt lat="42.99708" lon="0.66455">
        <ele>643.67</ele>
        <time>2019-09-08T07:14:07Z</time>
      </trkpt>
      <trkpt lat="42.99696" lon="0.66451">
        <ele>646.71</ele>
        <time>2019-09-08T07:14:23Z</time>
      </trkpt>
      <trkpt lat="42.99696" lon="0.66451">
        <ele>647.19</ele>
        <time>2019-09-08T07:14:26Z</time>
      </trkpt>
      <trkpt lat="42.99698" lon="0.66436">
        <ele>650.41</ele>
        <time>2019-09-08T07:14:48Z</time>
      </trkpt>
      <trkpt lat="42.99703" lon="0.66416">
        <ele>653.42</ele>
        <time>2019-09-08T07:15:08Z</time>
      </trkpt>
      <trkpt lat="42.99704" lon="0.66398">
        <ele>656.53</ele>
        <time>2019-09-08T07:15:26Z</time>
      </trkpt>
      <trkpt lat="42.99706" lon="0.66384">
        <ele>659.72</ele>
        <time>2019-09-08T07:15:43Z</time>
      </trkpt>
      <trkpt lat="42.99707" lon="0.6637">
        <ele>662.73</ele>
        <time>2019-09-08T07:16:02Z</time>
      </trkpt>
      <trkpt lat="42.99708" lon="0.66369">
        <ele>662.91</ele>
        <time>2019-09-08T07:16:03Z</time>
      </trkpt>
      <trkpt lat="42.99708" lon="0.66354">
        <ele>666.21</ele>
        <time>2019-09-08T07:16:22Z</time>
      </trkpt>
      <trkpt lat="42.99704" lon="0.66342">
        <ele>669.33</ele>
        <time>2019-09-08T07:16:41Z</time>
      </trkpt>
      <trkpt lat="42.99696" lon="0.66325">
        <ele>671.58</ele>
        <time>2019-09-08T07:17:03Z</time>
      </trkpt>
      <trkpt lat="42.99695" lon="0.66322">
        <ele>671.99</ele>
        <time>2019-09-08T07:17:09Z</time>
      </trkpt>
      <trkpt lat="42.99683" lon="0.66305">
        <ele>674.17</ele>
        <time>2019-09-08T07:17:28Z</time>
      </trkpt>
      <trkpt lat="42.9968" lon="0.66284">
        <ele>676.3</ele>
        <time>2019-09-08T07:17:48Z</time>
      </trkpt>
      <trkpt lat="42.99675" lon="0.66267">
        <ele>679.31</ele>
        <time>2019-09-08T07:18:09Z</time>
      </trkpt>
      <trkpt lat="42.99665" lon="0.66251">
        <ele>681.8</ele>
        <time>2019-09-08T07:18:30Z</time>
      </trkpt>
      <trkpt lat="42.99656" lon="0.66235">
        <ele>684.94</ele>
        <time>2019-09-08T07:18:51Z</time>
      </trkpt>
      <trkpt lat="42.9965" lon="0.66226">
        <ele>686.5</ele>
        <time>2019-09-08T07:19:02Z</time>
      </trkpt>
      <trkpt lat="42.99645" lon="0.6622">
        <ele>687.36</ele>
        <time>2019-09-08T07:19:10Z</time>
      </trkpt>
      <trkpt lat="42.99643" lon="0.66218">
        <ele>687.48</ele>
        <time>2019-09-08T07:19:13Z</time>
      </trkpt>
      <trkpt lat="42.99629" lon="0.66203">
        <ele>689.37</ele>
        <time>2019-09-08T07:19:29Z</time>
      </trkpt>
      <trkpt lat="42.99617" lon="0.66195">
        <ele>690.9</ele>
        <time>2019-09-08T07:19:48Z</time>
      </trkpt>
      <trkpt lat="42.9961" lon="0.66188">
        <ele>693.22</ele>
        <time>2019-09-08T07:20:02Z</time>
      </trkpt>
      <trkpt lat="42.99593" lon="0.66174">
        <ele>694.94</ele>
        <time>2019-09-08T07:20:20Z</time>
      </trkpt>
      <trkpt lat="42.99589" lon="0.66168">
        <ele>696.02</ele>
        <time>2019-09-08T07:20:28Z</time>
      </trkpt>
      <trkpt lat="42.99585" lon="0.66163">
        <ele>696.93</ele>
        <time>2019-09-08T07:20:35Z</time>
      </trkpt>
      <trkpt lat="42.99583" lon="0.66161">
        <ele>697.53</ele>
        <time>2019-09-08T07:20:38Z</time>
      </trkpt>
      <trkpt lat="42.99577" lon="0.66153">
        <ele>698.69</ele>
        <time>2019-09-08T07:20:49Z</time>
      </trkpt>
      <trkpt lat="42.99565" lon="0.66134">
        <ele>701.51</ele>
        <time>2019-09-08T07:21:10Z</time>
      </trkpt>
      <trkpt lat="42.99556" lon="0.66109">
        <ele>704.25</ele>
        <time>2019-09-08T07:21:30Z</time>
      </trkpt>
      <trkpt lat="42.99547" lon="0.66088">
        <ele>706.77</ele>
        <time>2019-09-08T07:21:51Z</time>
      </trkpt>
      <trkpt lat="42.99543" lon="0.66074">
        <ele>709.47</ele>
        <time>2019-09-08T07:22:10Z</time>
      </trkpt>
      <trkpt lat="42.99541" lon="0.66068">
        <ele>710.64</ele>
        <time>2019-09-08T07:22:19Z</time>
      </trkpt>
      <trkpt lat="42.99539" lon="0.66061">
        <ele>711.44</ele>
        <time>2019-09-08T07:22:25Z</time>
      </trkpt>
      <trkpt lat="42.99538" lon="0.66059">
        <ele>711.64</ele>
        <time>2019-09-08T07:22:27Z</time>
      </trkpt>
      <trkpt lat="42.99538" lon="0.66055">
        <ele>711.79</ele>
        <time>2019-09-08T07:22:30Z</time>
      </trkpt>
      <trkpt lat="42.99534" lon="0.66026">
        <ele>713.53</ele>
        <time>2019-09-08T07:22:50Z</time>
      </trkpt>
      <trkpt lat="42.99531" lon="0.66008">
        <ele>715</ele>
        <time>2019-09-08T07:23:00Z</time>
      </trkpt>
      <trkpt lat="42.99532" lon="0.65997">
        <ele>718.21</ele>
        <time>2019-09-08T07:23:18Z</time>
      </trkpt>
      <trkpt lat="42.99544" lon="0.65977">
        <ele>721.23</ele>
        <time>2019-09-08T07:23:36Z</time>
      </trkpt>
      <trkpt lat="42.99546" lon="0.65963">
        <ele>721.88</ele>
        <time>2019-09-08T07:23:48Z</time>
      </trkpt>
      <trkpt lat="42.99548" lon="0.65946">
        <ele>724.55</ele>
        <time>2019-09-08T07:24:11Z</time>
      </trkpt>
      <trkpt lat="42.99559" lon="0.6593">
        <ele>726.25</ele>
        <time>2019-09-08T07:24:30Z</time>
      </trkpt>
      <trkpt lat="42.99564" lon="0.6592">
        <ele>729.28</ele>
        <time>2019-09-08T07:24:47Z</time>
      </trkpt>
      <trkpt lat="42.99563" lon="0.65908">
        <ele>732.45</ele>
        <time>2019-09-08T07:25:04Z</time>
      </trkpt>
      <trkpt lat="42.99566" lon="0.65898">
        <ele>735.46</ele>
        <time>2019-09-08T07:25:20Z</time>
      </trkpt>
      <trkpt lat="42.99563" lon="0.65886">
        <ele>738.49</ele>
        <time>2019-09-08T07:25:37Z</time>
      </trkpt>
      <trkpt lat="42.99558" lon="0.6588">
        <ele>741.6</ele>
        <time>2019-09-08T07:25:52Z</time>
      </trkpt>
      <trkpt lat="42.9955" lon="0.65872">
        <ele>744.71</ele>
        <time>2019-09-08T07:26:10Z</time>
      </trkpt>
      <trkpt lat="42.99543" lon="0.65866">
        <ele>745.58</ele>
        <time>2019-09-08T07:26:35Z</time>
      </trkpt>
      <trkpt lat="42.99544" lon="0.65858">
        <ele>748.69</ele>
        <time>2019-09-08T07:26:52Z</time>
      </trkpt>
      <trkpt lat="42.99533" lon="0.65845">
        <ele>751.72</ele>
        <time>2019-09-08T07:27:09Z</time>
      </trkpt>
      <trkpt lat="42.99538" lon="0.65849">
        <ele>753.01</ele>
        <time>2019-09-08T07:27:32Z</time>
      </trkpt>
      <trkpt lat="42.99535" lon="0.65851">
        <ele>751.15</ele>
        <time>2019-09-08T07:27:48Z</time>
      </trkpt>
      <trkpt lat="42.99533" lon="0.6585">
        <ele>751.25</ele>
        <time>2019-09-08T07:27:50Z</time>
      </trkpt>
      <trkpt lat="42.99529" lon="0.65842">
        <ele>754.23</ele>
        <time>2019-09-08T07:28:11Z</time>
      </trkpt>
      <trkpt lat="42.99532" lon="0.65836">
        <ele>754.66</ele>
        <time>2019-09-08T07:28:35Z</time>
      </trkpt>
      <trkpt lat="42.99537" lon="0.65827">
        <ele>756.76</ele>
        <time>2019-09-08T07:28:58Z</time>
      </trkpt>
      <trkpt lat="42.99537" lon="0.65826">
        <ele>757.18</ele>
        <time>2019-09-08T07:29:02Z</time>
      </trkpt>
      <trkpt lat="42.99543" lon="0.65823">
        <ele>760.47</ele>
        <time>2019-09-08T07:29:19Z</time>
      </trkpt>
      <trkpt lat="42.99552" lon="0.65819">
        <ele>763.47</ele>
        <time>2019-09-08T07:29:38Z</time>
      </trkpt>
      <trkpt lat="42.99567" lon="0.65811">
        <ele>765.15</ele>
        <time>2019-09-08T07:29:57Z</time>
      </trkpt>
      <trkpt lat="42.9958" lon="0.65805">
        <ele>768.21</ele>
        <time>2019-09-08T07:30:17Z</time>
      </trkpt>
      <trkpt lat="42.99599" lon="0.65794">
        <ele>769.97</ele>
        <time>2019-09-08T07:30:35Z</time>
      </trkpt>
      <trkpt lat="42.99611" lon="0.65784">
        <ele>772.04</ele>
        <time>2019-09-08T07:30:55Z</time>
      </trkpt>
      <trkpt lat="42.99628" lon="0.6577">
        <ele>774.94</ele>
        <time>2019-09-08T07:31:16Z</time>
      </trkpt>
      <trkpt lat="42.99635" lon="0.65759">
        <ele>777.77</ele>
        <time>2019-09-08T07:31:37Z</time>
      </trkpt>
      <trkpt lat="42.99652" lon="0.65726">
        <ele>779.69</ele>
        <time>2019-09-08T07:32:00Z</time>
      </trkpt>
      <trkpt lat="42.99659" lon="0.65713">
        <ele>782.07</ele>
        <time>2019-09-08T07:32:19Z</time>
      </trkpt>
      <trkpt lat="42.99666" lon="0.65706">
        <ele>785.07</ele>
        <time>2019-09-08T07:32:33Z</time>
      </trkpt>
      <trkpt lat="42.9967" lon="0.65707">
        <ele>786.31</ele>
        <time>2019-09-08T07:32:39Z</time>
      </trkpt>
      <trkpt lat="42.9968" lon="0.65717">
        <ele>789.63</ele>
        <time>2019-09-08T07:32:58Z</time>
      </trkpt>
      <trkpt lat="42.99689" lon="0.65726">
        <ele>792.67</ele>
        <time>2019-09-08T07:33:15Z</time>
      </trkpt>
      <trkpt lat="42.99696" lon="0.65731">
        <ele>793.42</ele>
        <time>2019-09-08T07:33:39Z</time>
      </trkpt>
      <trkpt lat="42.99708" lon="0.65725">
        <ele>791.74</ele>
        <time>2019-09-08T07:33:56Z</time>
      </trkpt>
      <trkpt lat="42.99719" lon="0.65715">
        <ele>792.66</ele>
        <time>2019-09-08T07:34:16Z</time>
      </trkpt>
      <trkpt lat="42.99738" lon="0.65697">
        <ele>793.07</ele>
        <time>2019-09-08T07:34:32Z</time>
      </trkpt>
      <trkpt lat="42.99757" lon="0.65672">
        <ele>793.45</ele>
        <time>2019-09-08T07:34:50Z</time>
      </trkpt>
      <trkpt lat="42.99761" lon="0.65659">
        <ele>793.45</ele>
        <time>2019-09-08T07:35:05Z</time>
      </trkpt>
      <trkpt lat="42.99765" lon="0.65644">
        <ele>793.45</ele>
        <time>2019-09-08T07:35:24Z</time>
      </trkpt>
      <trkpt lat="42.99763" lon="0.65628">
        <ele>800.19</ele>
        <time>2019-09-08T07:35:36Z</time>
      </trkpt>
      <trkpt lat="42.99763" lon="0.65627">
        <ele>800.15</ele>
        <time>2019-09-08T07:35:37Z</time>
      </trkpt>
      <trkpt lat="42.99758" lon="0.6561">
        <ele>801.03</ele>
        <time>2019-09-08T07:35:56Z</time>
      </trkpt>
      <trkpt lat="42.99754" lon="0.65587">
        <ele>803.14</ele>
        <time>2019-09-08T07:36:16Z</time>
      </trkpt>
      <trkpt lat="42.99761" lon="0.65559">
        <ele>806.17</ele>
        <time>2019-09-08T07:36:34Z</time>
      </trkpt>
      <trkpt lat="42.99759" lon="0.65535">
        <ele>806.05</ele>
        <time>2019-09-08T07:36:52Z</time>
      </trkpt>
      <trkpt lat="42.99759" lon="0.65525">
        <ele>806.01</ele>
        <time>2019-09-08T07:36:58Z</time>
      </trkpt>
      <trkpt lat="42.99761" lon="0.65499">
        <ele>806.48</ele>
        <time>2019-09-08T07:37:14Z</time>
      </trkpt>
      <trkpt lat="42.99751" lon="0.65466">
        <ele>805.11</ele>
        <time>2019-09-08T07:37:33Z</time>
      </trkpt>
      <trkpt lat="42.99736" lon="0.65445">
        <ele>804.26</ele>
        <time>2019-09-08T07:37:47Z</time>
      </trkpt>
      <trkpt lat="42.99728" lon="0.65433">
        <ele>803.96</ele>
        <time>2019-09-08T07:37:55Z</time>
      </trkpt>
      <trkpt lat="42.99725" lon="0.65427">
        <ele>803.86</ele>
        <time>2019-09-08T07:37:58Z</time>
      </trkpt>
      <trkpt lat="42.99709" lon="0.6542">
        <ele>803.77</ele>
        <time>2019-09-08T07:38:12Z</time>
      </trkpt>
      <trkpt lat="42.99706" lon="0.6542">
        <ele>803.79</ele>
        <time>2019-09-08T07:38:15Z</time>
      </trkpt>
      <trkpt lat="42.99705" lon="0.6542">
        <ele>803.8</ele>
        <time>2019-09-08T07:38:16Z</time>
      </trkpt>
      <trkpt lat="42.99703" lon="0.65421">
        <ele>803.8</ele>
        <time>2019-09-08T07:38:17Z</time>
      </trkpt>
      <trkpt lat="42.99687" lon="0.65426">
        <ele>803.85</ele>
        <time>2019-09-08T07:38:31Z</time>
      </trkpt>
      <trkpt lat="42.9968" lon="0.65426">
        <ele>803.94</ele>
        <time>2019-09-08T07:38:37Z</time>
      </trkpt>
      <trkpt lat="42.99678" lon="0.65427">
        <ele>803.94</ele>
        <time>2019-09-08T07:38:38Z</time>
      </trkpt>
      <trkpt lat="42.99677" lon="0.65427">
        <ele>803.95</ele>
        <time>2019-09-08T07:38:39Z</time>
      </trkpt>
      <trkpt lat="42.99676" lon="0.65427">
        <ele>803.96</ele>
        <time>2019-09-08T07:38:40Z</time>
      </trkpt>
      <trkpt lat="42.99675" lon="0.65427">
        <ele>803.97</ele>
        <time>2019-09-08T07:38:41Z</time>
      </trkpt>
      <trkpt lat="42.99663" lon="0.65433">
        <ele>804.25</ele>
        <time>2019-09-08T07:38:50Z</time>
      </trkpt>
      <trkpt lat="42.99659" lon="0.65435">
        <ele>804.32</ele>
        <time>2019-09-08T07:38:53Z</time>
      </trkpt>
      <trkpt lat="42.99657" lon="0.65436">
        <ele>804.36</ele>
        <time>2019-09-08T07:38:54Z</time>
      </trkpt>
      <trkpt lat="42.99638" lon="0.65442">
        <ele>804.51</ele>
        <time>2019-09-08T07:39:08Z</time>
      </trkpt>
      <trkpt lat="42.99616" lon="0.65443">
        <ele>804.04</ele>
        <time>2019-09-08T07:39:27Z</time>
      </trkpt>
      <trkpt lat="42.99594" lon="0.65434">
        <ele>802.25</ele>
        <time>2019-09-08T07:39:43Z</time>
      </trkpt>
      <trkpt lat="42.99575" lon="0.65429">
        <ele>799.92</ele>
        <time>2019-09-08T07:39:59Z</time>
      </trkpt>
      <trkpt lat="42.9957" lon="0.6543">
        <ele>799.45</ele>
        <time>2019-09-08T07:40:02Z</time>
      </trkpt>
      <trkpt lat="42.99562" lon="0.65427">
        <ele>797.42</ele>
        <time>2019-09-08T07:40:17Z</time>
      </trkpt>
      <trkpt lat="42.99569" lon="0.65416">
        <ele>800.4</ele>
        <time>2019-09-08T07:40:36Z</time>
      </trkpt>
      <trkpt lat="42.99577" lon="0.65412">
        <ele>803.59</ele>
        <time>2019-09-08T07:40:51Z</time>
      </trkpt>
      <trkpt lat="42.99588" lon="0.65411">
        <ele>806.74</ele>
        <time>2019-09-08T07:41:08Z</time>
      </trkpt>
      <trkpt lat="42.99603" lon="0.65412">
        <ele>809.81</ele>
        <time>2019-09-08T07:41:26Z</time>
      </trkpt>
      <trkpt lat="42.99622" lon="0.65406">
        <ele>812.97</ele>
        <time>2019-09-08T07:41:47Z</time>
      </trkpt>
      <trkpt lat="42.99625" lon="0.65403">
        <ele>813.31</ele>
        <time>2019-09-08T07:41:49Z</time>
      </trkpt>
      <trkpt lat="42.99628" lon="0.65395">
        <ele>816.42</ele>
        <time>2019-09-08T07:42:04Z</time>
      </trkpt>
      <trkpt lat="42.99629" lon="0.65375">
        <ele>819.57</ele>
        <time>2019-09-08T07:42:21Z</time>
      </trkpt>
      <trkpt lat="42.99631" lon="0.65364">
        <ele>822.75</ele>
        <time>2019-09-08T07:42:36Z</time>
      </trkpt>
      <trkpt lat="42.99632" lon="0.65347">
        <ele>825.87</ele>
        <time>2019-09-08T07:42:53Z</time>
      </trkpt>
      <trkpt lat="42.99621" lon="0.65334">
        <ele>828.77</ele>
        <time>2019-09-08T07:43:11Z</time>
      </trkpt>
      <trkpt lat="42.99609" lon="0.65317">
        <ele>831.66</ele>
        <time>2019-09-08T07:43:31Z</time>
      </trkpt>
      <trkpt lat="42.99612" lon="0.65296">
        <ele>834.78</ele>
        <time>2019-09-08T07:43:51Z</time>
      </trkpt>
      <trkpt lat="42.99615" lon="0.65287">
        <ele>837.94</ele>
        <time>2019-09-08T07:44:05Z</time>
      </trkpt>
      <trkpt lat="42.9962" lon="0.65279">
        <ele>840.97</ele>
        <time>2019-09-08T07:44:19Z</time>
      </trkpt>
      <trkpt lat="42.99627" lon="0.65266">
        <ele>844.05</ele>
        <time>2019-09-08T07:44:33Z</time>
      </trkpt>
      <trkpt lat="42.99635" lon="0.65256">
        <ele>847.1</ele>
        <time>2019-09-08T07:44:50Z</time>
      </trkpt>
      <trkpt lat="42.99644" lon="0.65248">
        <ele>850.23</ele>
        <time>2019-09-08T07:45:08Z</time>
      </trkpt>
      <trkpt lat="42.99654" lon="0.65238">
        <ele>851.28</ele>
        <time>2019-09-08T07:45:29Z</time>
      </trkpt>
      <trkpt lat="42.99672" lon="0.65221">
        <ele>852.41</ele>
        <time>2019-09-08T07:45:50Z</time>
      </trkpt>
      <trkpt lat="42.99699" lon="0.65202">
        <ele>854.12</ele>
        <time>2019-09-08T07:46:09Z</time>
      </trkpt>
      <trkpt lat="42.99714" lon="0.65202">
        <ele>856.54</ele>
        <time>2019-09-08T07:46:30Z</time>
      </trkpt>
      <trkpt lat="42.99733" lon="0.65208">
        <ele>859.75</ele>
        <time>2019-09-08T07:46:49Z</time>
      </trkpt>
      <trkpt lat="42.99749" lon="0.65208">
        <ele>861.3</ele>
        <time>2019-09-08T07:47:08Z</time>
      </trkpt>
      <trkpt lat="42.99778" lon="0.65196">
        <ele>862.56</ele>
        <time>2019-09-08T07:47:29Z</time>
      </trkpt>
      <trkpt lat="42.99779" lon="0.65195">
        <ele>862.64</ele>
        <time>2019-09-08T07:47:30Z</time>
      </trkpt>
      <trkpt lat="42.99782" lon="0.65179">
        <ele>864.01</ele>
        <time>2019-09-08T07:47:48Z</time>
      </trkpt>
      <trkpt lat="42.99765" lon="0.6516">
        <ele>866.78</ele>
        <time>2019-09-08T07:48:05Z</time>
      </trkpt>
      <trkpt lat="42.99759" lon="0.65144">
        <ele>868.19</ele>
        <time>2019-09-08T07:48:23Z</time>
      </trkpt>
      <trkpt lat="42.99761" lon="0.65113">
        <ele>866.63</ele>
        <time>2019-09-08T07:48:42Z</time>
      </trkpt>
      <trkpt lat="42.99748" lon="0.65093">
        <ele>864.95</ele>
        <time>2019-09-08T07:49:00Z</time>
      </trkpt>
      <trkpt lat="42.99746" lon="0.65067">
        <ele>863.92</ele>
        <time>2019-09-08T07:49:17Z</time>
      </trkpt>
      <trkpt lat="42.99748" lon="0.65037">
        <ele>864.77</ele>
        <time>2019-09-08T07:49:34Z</time>
      </trkpt>
      <trkpt lat="42.9975" lon="0.65025">
        <ele>864.91</ele>
        <time>2019-09-08T07:49:41Z</time>
      </trkpt>
      <trkpt lat="42.99762" lon="0.65004">
        <ele>865.11</ele>
        <time>2019-09-08T07:50:00Z</time>
      </trkpt>
      <trkpt lat="42.99773" lon="0.64998">
        <ele>865.58</ele>
        <time>2019-09-08T07:50:15Z</time>
      </trkpt>
      <trkpt lat="42.99797" lon="0.64985">
        <ele>865.58</ele>
        <time>2019-09-08T07:50:30Z</time>
      </trkpt>
      <trkpt lat="42.99814" lon="0.64974">
        <ele>865.61</ele>
        <time>2019-09-08T07:50:46Z</time>
      </trkpt>
      <trkpt lat="42.99828" lon="0.64963">
        <ele>866.18</ele>
        <time>2019-09-08T07:51:00Z</time>
      </trkpt>
      <trkpt lat="42.99845" lon="0.64955">
        <ele>866.71</ele>
        <time>2019-09-08T07:51:17Z</time>
      </trkpt>
      <trkpt lat="42.99859" lon="0.64946">
        <ele>867.14</ele>
        <time>2019-09-08T07:51:30Z</time>
      </trkpt>
      <trkpt lat="42.99881" lon="0.64938">
        <ele>868.32</ele>
        <time>2019-09-08T07:51:52Z</time>
      </trkpt>
      <trkpt lat="42.99903" lon="0.64948">
        <ele>869.65</ele>
        <time>2019-09-08T07:52:11Z</time>
      </trkpt>
      <trkpt lat="42.99907" lon="0.64951">
        <ele>871.79</ele>
        <time>2019-09-08T07:52:19Z</time>
      </trkpt>
      <trkpt lat="42.99919" lon="0.64949">
        <ele>873.52</ele>
        <time>2019-09-08T07:52:38Z</time>
      </trkpt>
      <trkpt lat="42.99936" lon="0.64945">
        <ele>875.8</ele>
        <time>2019-09-08T07:52:49Z</time>
      </trkpt>
      <trkpt lat="42.9995" lon="0.64941">
        <ele>879.18</ele>
        <time>2019-09-08T07:53:06Z</time>
      </trkpt>
      <trkpt lat="42.9996" lon="0.64927">
        <ele>882.28</ele>
        <time>2019-09-08T07:53:22Z</time>
      </trkpt>
      <trkpt lat="42.99964" lon="0.64922">
        <ele>883.6</ele>
        <time>2019-09-08T07:53:31Z</time>
      </trkpt>
      <trkpt lat="42.99979" lon="0.64902">
        <ele>886.81</ele>
        <time>2019-09-08T07:53:50Z</time>
      </trkpt>
      <trkpt lat="42.9999" lon="0.64887">
        <ele>889.81</ele>
        <time>2019-09-08T07:54:07Z</time>
      </trkpt>
      <trkpt lat="42.99995" lon="0.64862">
        <ele>892.92</ele>
        <time>2019-09-08T07:54:25Z</time>
      </trkpt>
      <trkpt lat="43.00005" lon="0.64833">
        <ele>894.93</ele>
        <time>2019-09-08T07:54:43Z</time>
      </trkpt>
      <trkpt lat="43.00005" lon="0.64832">
        <ele>895.03</ele>
        <time>2019-09-08T07:54:44Z</time>
      </trkpt>
      <trkpt lat="43.00014" lon="0.64807">
        <ele>897.99</ele>
        <time>2019-09-08T07:55:04Z</time>
      </trkpt>
      <trkpt lat="43.00029" lon="0.64785">
        <ele>899.24</ele>
        <time>2019-09-08T07:55:22Z</time>
      </trkpt>
      <trkpt lat="43.00028" lon="0.64759">
        <ele>897.99</ele>
        <time>2019-09-08T07:55:40Z</time>
      </trkpt>
      <trkpt lat="43.00026" lon="0.64754">
        <ele>897.55</ele>
        <time>2019-09-08T07:55:43Z</time>
      </trkpt>
      <trkpt lat="43.00015" lon="0.64729">
        <ele>894.89</ele>
        <time>2019-09-08T07:56:00Z</time>
      </trkpt>
      <trkpt lat="43.00008" lon="0.6471">
        <ele>892.19</ele>
        <time>2019-09-08T07:56:16Z</time>
      </trkpt>
      <trkpt lat="42.99999" lon="0.64682">
        <ele>889.68</ele>
        <time>2019-09-08T07:56:32Z</time>
      </trkpt>
      <trkpt lat="42.99994" lon="0.64663">
        <ele>888.44</ele>
        <time>2019-09-08T07:56:42Z</time>
      </trkpt>
      <trkpt lat="42.99993" lon="0.64634">
        <ele>886.41</ele>
        <time>2019-09-08T07:56:57Z</time>
      </trkpt>
      <trkpt lat="42.99991" lon="0.64605">
        <ele>885.53</ele>
        <time>2019-09-08T07:57:13Z</time>
      </trkpt>
      <trkpt lat="42.99989" lon="0.64579">
        <ele>884.8</ele>
        <time>2019-09-08T07:57:29Z</time>
      </trkpt>
      <trkpt lat="42.9998" lon="0.64551">
        <ele>884.65</ele>
        <time>2019-09-08T07:57:45Z</time>
      </trkpt>
      <trkpt lat="42.99972" lon="0.64527">
        <ele>885.59</ele>
        <time>2019-09-08T07:58:02Z</time>
      </trkpt>
      <trkpt lat="42.99965" lon="0.64503">
        <ele>886.39</ele>
        <time>2019-09-08T07:58:16Z</time>
      </trkpt>
      <trkpt lat="42.99957" lon="0.6447">
        <ele>886.29</ele>
        <time>2019-09-08T07:58:34Z</time>
      </trkpt>
      <trkpt lat="42.99951" lon="0.64448">
        <ele>885.69</ele>
        <time>2019-09-08T07:58:48Z</time>
      </trkpt>
      <trkpt lat="42.9995" lon="0.64418">
        <ele>884.91</ele>
        <time>2019-09-08T07:59:08Z</time>
      </trkpt>
      <trkpt lat="42.9995" lon="0.64387">
        <ele>885.59</ele>
        <time>2019-09-08T07:59:27Z</time>
      </trkpt>
      <trkpt lat="42.99941" lon="0.64349">
        <ele>885.59</ele>
        <time>2019-09-08T07:59:46Z</time>
      </trkpt>
      <trkpt lat="42.99943" lon="0.64317">
        <ele>889.49</ele>
        <time>2019-09-08T08:00:03Z</time>
      </trkpt>
      <trkpt lat="42.99944" lon="0.64295">
        <ele>892.33</ele>
        <time>2019-09-08T08:00:15Z</time>
      </trkpt>
      <trkpt lat="42.9996" lon="0.64292">
        <ele>892.14</ele>
        <time>2019-09-08T08:00:31Z</time>
      </trkpt>
      <trkpt lat="42.99985" lon="0.64295">
        <ele>891.7</ele>
        <time>2019-09-08T08:00:51Z</time>
      </trkpt>
      <trkpt lat="42.99993" lon="0.64294">
        <ele>891.75</ele>
        <time>2019-09-08T08:00:57Z</time>
      </trkpt>
      <trkpt lat="43.00007" lon="0.64291">
        <ele>891.97</ele>
        <time>2019-09-08T08:01:14Z</time>
      </trkpt>
      <trkpt lat="43.00043" lon="0.64286">
        <ele>891.93</ele>
        <time>2019-09-08T08:01:32Z</time>
      </trkpt>
      <trkpt lat="43.00068" lon="0.64288">
        <ele>892.47</ele>
        <time>2019-09-08T08:01:54Z</time>
      </trkpt>
      <trkpt lat="43.0009" lon="0.64307">
        <ele>893.79</ele>
        <time>2019-09-08T08:02:12Z</time>
      </trkpt>
      <trkpt lat="43.00099" lon="0.64314">
        <ele>895.97</ele>
        <time>2019-09-08T08:02:30Z</time>
      </trkpt>
      <trkpt lat="43.00114" lon="0.64316">
        <ele>898.76</ele>
        <time>2019-09-08T08:02:54Z</time>
      </trkpt>
      <trkpt lat="43.00126" lon="0.64317">
        <ele>900.51</ele>
        <time>2019-09-08T08:03:09Z</time>
      </trkpt>
      <trkpt lat="43.00155" lon="0.64324">
        <ele>903.63</ele>
        <time>2019-09-08T08:03:30Z</time>
      </trkpt>
      <trkpt lat="43.00189" lon="0.64333">
        <ele>906.74</ele>
        <time>2019-09-08T08:03:49Z</time>
      </trkpt>
      <trkpt lat="43.00207" lon="0.6433">
        <ele>908.63</ele>
        <time>2019-09-08T08:04:07Z</time>
      </trkpt>
      <trkpt lat="43.00228" lon="0.64325">
        <ele>908.9</ele>
        <time>2019-09-08T08:04:24Z</time>
      </trkpt>
      <trkpt lat="43.00252" lon="0.64324">
        <ele>910.04</ele>
        <time>2019-09-08T08:04:45Z</time>
      </trkpt>
      <trkpt lat="43.00254" lon="0.64325">
        <ele>910.2</ele>
        <time>2019-09-08T08:04:48Z</time>
      </trkpt>
      <trkpt lat="43.00282" lon="0.64333">
        <ele>910.7</ele>
        <time>2019-09-08T08:05:08Z</time>
      </trkpt>
      <trkpt lat="43.00304" lon="0.64345">
        <ele>911.09</ele>
        <time>2019-09-08T08:05:21Z</time>
      </trkpt>
      <trkpt lat="43.00321" lon="0.64349">
        <ele>912.3</ele>
        <time>2019-09-08T08:05:42Z</time>
      </trkpt>
      <trkpt lat="43.00336" lon="0.64335">
        <ele>913.57</ele>
        <time>2019-09-08T08:06:00Z</time>
      </trkpt>
      <trkpt lat="43.00344" lon="0.64327">
        <ele>914.18</ele>
        <time>2019-09-08T08:06:07Z</time>
      </trkpt>
      <trkpt lat="43.00359" lon="0.64315">
        <ele>915.88</ele>
        <time>2019-09-08T08:06:24Z</time>
      </trkpt>
      <trkpt lat="43.00385" lon="0.64291">
        <ele>918.32</ele>
        <time>2019-09-08T08:06:45Z</time>
      </trkpt>
      <trkpt lat="43.00403" lon="0.6427">
        <ele>920.44</ele>
        <time>2019-09-08T08:07:05Z</time>
      </trkpt>
      <trkpt lat="43.00419" lon="0.64251">
        <ele>922.26</ele>
        <time>2019-09-08T08:07:26Z</time>
      </trkpt>
      <trkpt lat="43.00438" lon="0.64228">
        <ele>922.41</ele>
        <time>2019-09-08T08:07:44Z</time>
      </trkpt>
      <trkpt lat="43.00454" lon="0.64204">
        <ele>922.54</ele>
        <time>2019-09-08T08:08:02Z</time>
      </trkpt>
      <trkpt lat="43.00475" lon="0.64188">
        <ele>922.38</ele>
        <time>2019-09-08T08:08:20Z</time>
      </trkpt>
      <trkpt lat="43.00491" lon="0.64172">
        <ele>923.02</ele>
        <time>2019-09-08T08:08:37Z</time>
      </trkpt>
      <trkpt lat="43.00513" lon="0.64162">
        <ele>923.47</ele>
        <time>2019-09-08T08:08:52Z</time>
      </trkpt>
      <trkpt lat="43.00529" lon="0.6415">
        <ele>923.87</ele>
        <time>2019-09-08T08:09:06Z</time>
      </trkpt>
      <trkpt lat="43.00542" lon="0.64129">
        <ele>923.82</ele>
        <time>2019-09-08T08:09:23Z</time>
      </trkpt>
      <trkpt lat="43.0056" lon="0.64116">
        <ele>924.92</ele>
        <time>2019-09-08T08:09:42Z</time>
      </trkpt>
      <trkpt lat="43.00583" lon="0.64095">
        <ele>925.98</ele>
        <time>2019-09-08T08:09:59Z</time>
      </trkpt>
      <trkpt lat="43.00597" lon="0.64074">
        <ele>927.26</ele>
        <time>2019-09-08T08:10:19Z</time>
      </trkpt>
      <trkpt lat="43.00618" lon="0.64052">
        <ele>928.48</ele>
        <time>2019-09-08T08:10:39Z</time>
      </trkpt>
      <trkpt lat="43.00639" lon="0.64046">
        <ele>929.98</ele>
        <time>2019-09-08T08:10:54Z</time>
      </trkpt>
      <trkpt lat="43.00664" lon="0.64038">
        <ele>931.38</ele>
        <time>2019-09-08T08:11:14Z</time>
      </trkpt>
      <trkpt lat="43.00686" lon="0.64016">
        <ele>931.16</ele>
        <time>2019-09-08T08:11:34Z</time>
      </trkpt>
      <trkpt lat="43.00703" lon="0.64011">
        <ele>931.27</ele>
        <time>2019-09-08T08:11:48Z</time>
      </trkpt>
      <trkpt lat="43.00726" lon="0.64018">
        <ele>932.46</ele>
        <time>2019-09-08T08:12:06Z</time>
      </trkpt>
      <trkpt lat="43.00736" lon="0.6403">
        <ele>934.42</ele>
        <time>2019-09-08T08:12:24Z</time>
      </trkpt>
      <trkpt lat="43.00763" lon="0.64034">
        <ele>935.82</ele>
        <time>2019-09-08T08:12:45Z</time>
      </trkpt>
      <trkpt lat="43.00788" lon="0.64045">
        <ele>937.13</ele>
        <time>2019-09-08T08:13:04Z</time>
      </trkpt>
      <trkpt lat="43.00805" lon="0.64066">
        <ele>939.78</ele>
        <time>2019-09-08T08:13:24Z</time>
      </trkpt>
      <trkpt lat="43.00824" lon="0.64083">
        <ele>941.75</ele>
        <time>2019-09-08T08:13:43Z</time>
      </trkpt>
      <trkpt lat="43.00849" lon="0.64099">
        <ele>942.58</ele>
        <time>2019-09-08T08:14:02Z</time>
      </trkpt>
      <trkpt lat="43.00872" lon="0.64121">
        <ele>943.2</ele>
        <time>2019-09-08T08:14:22Z</time>
      </trkpt>
      <trkpt lat="43.00888" lon="0.64124">
        <ele>942.35</ele>
        <time>2019-09-08T08:14:38Z</time>
      </trkpt>
      <trkpt lat="43.00911" lon="0.64134">
        <ele>940.88</ele>
        <time>2019-09-08T08:14:58Z</time>
      </trkpt>
      <trkpt lat="43.00923" lon="0.64136">
        <ele>940.45</ele>
        <time>2019-09-08T08:15:05Z</time>
      </trkpt>
      <trkpt lat="43.00925" lon="0.64136">
        <ele>940.4</ele>
        <time>2019-09-08T08:15:06Z</time>
      </trkpt>
      <trkpt lat="43.00926" lon="0.64137">
        <ele>940.35</ele>
        <time>2019-09-08T08:15:07Z</time>
      </trkpt>
      <trkpt lat="43.00946" lon="0.64138">
        <ele>938.87</ele>
        <time>2019-09-08T08:15:23Z</time>
      </trkpt>
      <trkpt lat="43.00971" lon="0.64134">
        <ele>937.84</ele>
        <time>2019-09-08T08:15:43Z</time>
      </trkpt>
      <trkpt lat="43.00974" lon="0.64133">
        <ele>937.76</ele>
        <time>2019-09-08T08:15:45Z</time>
      </trkpt>
      <trkpt lat="43.0099" lon="0.64123">
        <ele>936.93</ele>
        <time>2019-09-08T08:16:03Z</time>
      </trkpt>
      <trkpt lat="43.01004" lon="0.64119">
        <ele>936.77</ele>
        <time>2019-09-08T08:16:13Z</time>
      </trkpt>
      <trkpt lat="43.01021" lon="0.64109">
        <ele>936.72</ele>
        <time>2019-09-08T08:16:27Z</time>
      </trkpt>
      <trkpt lat="43.01043" lon="0.64098">
        <ele>936.74</ele>
        <time>2019-09-08T08:16:46Z</time>
      </trkpt>
      <trkpt lat="43.01044" lon="0.64098">
        <ele>936.67</ele>
        <time>2019-09-08T08:16:47Z</time>
      </trkpt>
      <trkpt lat="43.01061" lon="0.64069">
        <ele>935.77</ele>
        <time>2019-09-08T08:17:05Z</time>
      </trkpt>
      <trkpt lat="43.01076" lon="0.64044">
        <ele>934.59</ele>
        <time>2019-09-08T08:17:24Z</time>
      </trkpt>
      <trkpt lat="43.01077" lon="0.64043">
        <ele>934.51</ele>
        <time>2019-09-08T08:17:25Z</time>
      </trkpt>
      <trkpt lat="43.01084" lon="0.64022">
        <ele>933.42</ele>
        <time>2019-09-08T08:17:39Z</time>
      </trkpt>
      <trkpt lat="43.01092" lon="0.64012">
        <ele>933.03</ele>
        <time>2019-09-08T08:17:47Z</time>
      </trkpt>
      <trkpt lat="43.01093" lon="0.64011">
        <ele>933.02</ele>
        <time>2019-09-08T08:17:48Z</time>
      </trkpt>
      <trkpt lat="43.01109" lon="0.63993">
        <ele>932.64</ele>
        <time>2019-09-08T08:18:04Z</time>
      </trkpt>
      <trkpt lat="43.01125" lon="0.63964">
        <ele>931.69</ele>
        <time>2019-09-08T08:18:23Z</time>
      </trkpt>
      <trkpt lat="43.01134" lon="0.63946">
        <ele>930.8</ele>
        <time>2019-09-08T08:18:35Z</time>
      </trkpt>
      <trkpt lat="43.01148" lon="0.63915">
        <ele>930.46</ele>
        <time>2019-09-08T08:18:56Z</time>
      </trkpt>
      <trkpt lat="43.01161" lon="0.63894">
        <ele>929.99</ele>
        <time>2019-09-08T08:19:12Z</time>
      </trkpt>
      <trkpt lat="43.01175" lon="0.63868">
        <ele>929.98</ele>
        <time>2019-09-08T08:19:28Z</time>
      </trkpt>
      <trkpt lat="43.01176" lon="0.63863">
        <ele>929.97</ele>
        <time>2019-09-08T08:19:31Z</time>
      </trkpt>
      <trkpt lat="43.01181" lon="0.63843">
        <ele>929.79</ele>
        <time>2019-09-08T08:19:44Z</time>
      </trkpt>
      <trkpt lat="43.01189" lon="0.63823">
        <ele>930</ele>
        <time>2019-09-08T08:20:00Z</time>
      </trkpt>
      <trkpt lat="43.01197" lon="0.63799">
        <ele>929.44</ele>
        <time>2019-09-08T08:20:15Z</time>
      </trkpt>
      <trkpt lat="43.01203" lon="0.63775">
        <ele>929.26</ele>
        <time>2019-09-08T08:20:30Z</time>
      </trkpt>
      <trkpt lat="43.01215" lon="0.63747">
        <ele>930.82</ele>
        <time>2019-09-08T08:20:49Z</time>
      </trkpt>
      <trkpt lat="43.01221" lon="0.63724">
        <ele>933.95</ele>
        <time>2019-09-08T08:21:05Z</time>
      </trkpt>
      <trkpt lat="43.01222" lon="0.63724">
        <ele>933.3</ele>
        <time>2019-09-08T08:21:06Z</time>
      </trkpt>
      <trkpt lat="43.01228" lon="0.63711">
        <ele>933.15</ele>
        <time>2019-09-08T08:21:20Z</time>
      </trkpt>
      <trkpt lat="43.01224" lon="0.63702">
        <ele>933.34</ele>
        <time>2019-09-08T08:21:37Z</time>
      </trkpt>
      <trkpt lat="43.01224" lon="0.63708">
        <ele>933.24</ele>
        <time>2019-09-08T08:22:23Z</time>
      </trkpt>
      <trkpt lat="43.01237" lon="0.637">
        <ele>933.38</ele>
        <time>2019-09-08T08:22:50Z</time>
      </trkpt>
      <trkpt lat="43.01248" lon="0.63696">
        <ele>932.92</ele>
        <time>2019-09-08T08:23:09Z</time>
      </trkpt>
      <trkpt lat="43.01276" lon="0.63709">
        <ele>929.91</ele>
        <time>2019-09-08T08:23:27Z</time>
      </trkpt>
      <trkpt lat="43.01294" lon="0.63728">
        <ele>926.9</ele>
        <time>2019-09-08T08:23:44Z</time>
      </trkpt>
      <trkpt lat="43.01305" lon="0.63741">
        <ele>923.64</ele>
        <time>2019-09-08T08:23:57Z</time>
      </trkpt>
      <trkpt lat="43.01315" lon="0.63753">
        <ele>920.41</ele>
        <time>2019-09-08T08:24:09Z</time>
      </trkpt>
      <trkpt lat="43.01324" lon="0.63755">
        <ele>917.21</ele>
        <time>2019-09-08T08:24:24Z</time>
      </trkpt>
      <trkpt lat="43.0135" lon="0.6374">
        <ele>914.04</ele>
        <time>2019-09-08T08:24:42Z</time>
      </trkpt>
      <trkpt lat="43.01361" lon="0.63724">
        <ele>911.03</ele>
        <time>2019-09-08T08:24:56Z</time>
      </trkpt>
      <trkpt lat="43.01369" lon="0.63701">
        <ele>909.56</ele>
        <time>2019-09-08T08:25:11Z</time>
      </trkpt>
      <trkpt lat="43.01375" lon="0.63685">
        <ele>909.13</ele>
        <time>2019-09-08T08:25:23Z</time>
      </trkpt>
      <trkpt lat="43.01377" lon="0.63648">
        <ele>907.15</ele>
        <time>2019-09-08T08:25:45Z</time>
      </trkpt>
      <trkpt lat="43.01382" lon="0.63618">
        <ele>904.14</ele>
        <time>2019-09-08T08:26:01Z</time>
      </trkpt>
      <trkpt lat="43.01388" lon="0.63595">
        <ele>901.11</ele>
        <time>2019-09-08T08:26:18Z</time>
      </trkpt>
      <trkpt lat="43.01393" lon="0.63583">
        <ele>898.81</ele>
        <time>2019-09-08T08:26:29Z</time>
      </trkpt>
      <trkpt lat="43.01401" lon="0.63566">
        <ele>895.47</ele>
        <time>2019-09-08T08:26:42Z</time>
      </trkpt>
      <trkpt lat="43.01405" lon="0.63552">
        <ele>892.26</ele>
        <time>2019-09-08T08:26:55Z</time>
      </trkpt>
      <trkpt lat="43.01409" lon="0.63536">
        <ele>889.03</ele>
        <time>2019-09-08T08:27:08Z</time>
      </trkpt>
      <trkpt lat="43.01418" lon="0.63524">
        <ele>885.86</ele>
        <time>2019-09-08T08:27:21Z</time>
      </trkpt>
      <trkpt lat="43.01424" lon="0.6351">
        <ele>882.66</ele>
        <time>2019-09-08T08:27:36Z</time>
      </trkpt>
      <trkpt lat="43.01432" lon="0.63501">
        <ele>879.66</ele>
        <time>2019-09-08T08:27:50Z</time>
      </trkpt>
      <trkpt lat="43.01435" lon="0.63499">
        <ele>879.04</ele>
        <time>2019-09-08T08:27:53Z</time>
      </trkpt>
      <trkpt lat="43.01441" lon="0.63491">
        <ele>875.8</ele>
        <time>2019-09-08T08:28:07Z</time>
      </trkpt>
      <trkpt lat="43.01446" lon="0.6348">
        <ele>872.77</ele>
        <time>2019-09-08T08:28:20Z</time>
      </trkpt>
      <trkpt lat="43.01455" lon="0.63472">
        <ele>869.62</ele>
        <time>2019-09-08T08:28:31Z</time>
      </trkpt>
      <trkpt lat="43.01457" lon="0.63468">
        <ele>868.8</ele>
        <time>2019-09-08T08:28:34Z</time>
      </trkpt>
      <trkpt lat="43.0146" lon="0.63459">
        <ele>865.68</ele>
        <time>2019-09-08T08:28:49Z</time>
      </trkpt>
      <trkpt lat="43.01468" lon="0.6345">
        <ele>862.69</ele>
        <time>2019-09-08T08:29:04Z</time>
      </trkpt>
      <trkpt lat="43.01476" lon="0.63442">
        <ele>861.31</ele>
        <time>2019-09-08T08:29:11Z</time>
      </trkpt>
      <trkpt lat="43.0148" lon="0.63433">
        <ele>858.12</ele>
        <time>2019-09-08T08:29:24Z</time>
      </trkpt>
      <trkpt lat="43.01486" lon="0.63424">
        <ele>855.09</ele>
        <time>2019-09-08T08:29:37Z</time>
      </trkpt>
      <trkpt lat="43.01502" lon="0.63404">
        <ele>851.92</ele>
        <time>2019-09-08T08:29:53Z</time>
      </trkpt>
      <trkpt lat="43.01513" lon="0.63385">
        <ele>848.78</ele>
        <time>2019-09-08T08:30:08Z</time>
      </trkpt>
      <trkpt lat="43.01525" lon="0.63359">
        <ele>845.71</ele>
        <time>2019-09-08T08:30:26Z</time>
      </trkpt>
      <trkpt lat="43.01539" lon="0.63337">
        <ele>843.44</ele>
        <time>2019-09-08T08:30:43Z</time>
      </trkpt>
      <trkpt lat="43.01545" lon="0.63331">
        <ele>843.03</ele>
        <time>2019-09-08T08:30:49Z</time>
      </trkpt>
      <trkpt lat="43.01561" lon="0.63323">
        <ele>843.49</ele>
        <time>2019-09-08T08:31:08Z</time>
      </trkpt>
      <trkpt lat="43.01584" lon="0.63325">
        <ele>844.56</ele>
        <time>2019-09-08T08:31:26Z</time>
      </trkpt>
      <trkpt lat="43.01595" lon="0.63351">
        <ele>844.51</ele>
        <time>2019-09-08T08:31:42Z</time>
      </trkpt>
      <trkpt lat="43.016" lon="0.6336">
        <ele>843.82</ele>
        <time>2019-09-08T08:31:48Z</time>
      </trkpt>
      <trkpt lat="43.01609" lon="0.63382">
        <ele>842.39</ele>
        <time>2019-09-08T08:32:02Z</time>
      </trkpt>
      <trkpt lat="43.01617" lon="0.63397">
        <ele>841.45</ele>
        <time>2019-09-08T08:32:11Z</time>
      </trkpt>
      <trkpt lat="43.01625" lon="0.63421">
        <ele>839.28</ele>
        <time>2019-09-08T08:32:26Z</time>
      </trkpt>
      <trkpt lat="43.01634" lon="0.6345">
        <ele>836.65</ele>
        <time>2019-09-08T08:32:43Z</time>
      </trkpt>
      <trkpt lat="43.01639" lon="0.63464">
        <ele>835.43</ele>
        <time>2019-09-08T08:32:52Z</time>
      </trkpt>
      <trkpt lat="43.01647" lon="0.63486">
        <ele>833.35</ele>
        <time>2019-09-08T08:33:06Z</time>
      </trkpt>
      <trkpt lat="43.01649" lon="0.63495">
        <ele>832.92</ele>
        <time>2019-09-08T08:33:11Z</time>
      </trkpt>
      <trkpt lat="43.01657" lon="0.63515">
        <ele>831.36</ele>
        <time>2019-09-08T08:33:24Z</time>
      </trkpt>
      <trkpt lat="43.01667" lon="0.63539">
        <ele>829.85</ele>
        <time>2019-09-08T08:33:40Z</time>
      </trkpt>
      <trkpt lat="43.01668" lon="0.6354">
        <ele>829.78</ele>
        <time>2019-09-08T08:33:41Z</time>
      </trkpt>
      <trkpt lat="43.01681" lon="0.63547">
        <ele>827.26</ele>
        <time>2019-09-08T08:33:56Z</time>
      </trkpt>
      <trkpt lat="43.01682" lon="0.63548">
        <ele>827.01</ele>
        <time>2019-09-08T08:33:57Z</time>
      </trkpt>
      <trkpt lat="43.01688" lon="0.63557">
        <ele>823.9</ele>
        <time>2019-09-08T08:34:09Z</time>
      </trkpt>
      <trkpt lat="43.01691" lon="0.63556">
        <ele>823.11</ele>
        <time>2019-09-08T08:34:52Z</time>
      </trkpt>
      <trkpt lat="43.01692" lon="0.63555">
        <ele>823.16</ele>
        <time>2019-09-08T08:35:24Z</time>
      </trkpt>
      <trkpt lat="43.01692" lon="0.63555">
        <ele>823.16</ele>
        <time>2019-09-08T08:35:54Z</time>
      </trkpt>
      <trkpt lat="43.01693" lon="0.63555">
        <ele>823.16</ele>
        <time>2019-09-08T08:36:28Z</time>
      </trkpt>
      <trkpt lat="43.01693" lon="0.63552">
        <ele>823.16</ele>
        <time>2019-09-08T08:37:01Z</time>
      </trkpt>
      <trkpt lat="43.01693" lon="0.63552">
        <ele>823.16</ele>
        <time>2019-09-08T08:37:23Z</time>
      </trkpt>
      <trkpt lat="43.01692" lon="0.63551">
        <ele>823.16</ele>
        <time>2019-09-08T08:37:48Z</time>
      </trkpt>
      <trkpt lat="43.01692" lon="0.63551">
        <ele>823.16</ele>
        <time>2019-09-08T08:38:09Z</time>
      </trkpt>
      <trkpt lat="43.01691" lon="0.63551">
        <ele>823.16</ele>
        <time>2019-09-08T08:38:33Z</time>
      </trkpt>
      <trkpt lat="43.0169" lon="0.63551">
        <ele>823.16</ele>
        <time>2019-09-08T08:39:21Z</time>
      </trkpt>
      <trkpt lat="43.0169" lon="0.63552">
        <ele>823.16</ele>
        <time>2019-09-08T08:39:47Z</time>
      </trkpt>
      <trkpt lat="43.0169" lon="0.63551">
        <ele>823.16</ele>
        <time>2019-09-08T08:40:18Z</time>
      </trkpt>
      <trkpt lat="43.0169" lon="0.63551">
        <ele>823.16</ele>
        <time>2019-09-08T08:40:54Z</time>
      </trkpt>
      <trkpt lat="43.01689" lon="0.63552">
        <ele>823.16</ele>
        <time>2019-09-08T08:41:26Z</time>
      </trkpt>
      <trkpt lat="43.01688" lon="0.63551">
        <ele>823.16</ele>
        <time>2019-09-08T08:42:03Z</time>
      </trkpt>
      <trkpt lat="43.0169" lon="0.63552">
        <ele>823.16</ele>
        <time>2019-09-08T08:42:38Z</time>
      </trkpt>
      <trkpt lat="43.01702" lon="0.63568">
        <ele>823.16</ele>
        <time>2019-09-08T08:42:53Z</time>
      </trkpt>
      <trkpt lat="43.0171" lon="0.63577">
        <ele>823.16</ele>
        <time>2019-09-08T08:43:14Z</time>
      </trkpt>
      <trkpt lat="43.01712" lon="0.63578">
        <ele>815.03</ele>
        <time>2019-09-08T08:43:18Z</time>
      </trkpt>
      <trkpt lat="43.01719" lon="0.6359">
        <ele>811.9</ele>
        <time>2019-09-08T08:43:29Z</time>
      </trkpt>
      <trkpt lat="43.01738" lon="0.63609">
        <ele>808.84</ele>
        <time>2019-09-08T08:43:40Z</time>
      </trkpt>
      <trkpt lat="43.01756" lon="0.63622">
        <ele>805.81</ele>
        <time>2019-09-08T08:43:54Z</time>
      </trkpt>
      <trkpt lat="43.01777" lon="0.63633">
        <ele>803.86</ele>
        <time>2019-09-08T08:44:11Z</time>
      </trkpt>
      <trkpt lat="43.01789" lon="0.63614">
        <ele>801.86</ele>
        <time>2019-09-08T08:44:27Z</time>
      </trkpt>
      <trkpt lat="43.01787" lon="0.636">
        <ele>799.64</ele>
        <time>2019-09-08T08:44:38Z</time>
      </trkpt>
      <trkpt lat="43.01788" lon="0.63588">
        <ele>796.51</ele>
        <time>2019-09-08T08:44:52Z</time>
      </trkpt>
      <trkpt lat="43.01789" lon="0.63568">
        <ele>793.51</ele>
        <time>2019-09-08T08:45:06Z</time>
      </trkpt>
      <trkpt lat="43.01798" lon="0.63523">
        <ele>790.85</ele>
        <time>2019-09-08T08:45:23Z</time>
      </trkpt>
      <trkpt lat="43.01803" lon="0.63499">
        <ele>788.11</ele>
        <time>2019-09-08T08:45:37Z</time>
      </trkpt>
      <trkpt lat="43.01809" lon="0.63476">
        <ele>785.1</ele>
        <time>2019-09-08T08:45:51Z</time>
      </trkpt>
      <trkpt lat="43.01811" lon="0.63458">
        <ele>782.09</ele>
        <time>2019-09-08T08:46:02Z</time>
      </trkpt>
      <trkpt lat="43.01814" lon="0.6344">
        <ele>779.01</ele>
        <time>2019-09-08T08:46:15Z</time>
      </trkpt>
      <trkpt lat="43.01814" lon="0.63409">
        <ele>775.93</ele>
        <time>2019-09-08T08:46:29Z</time>
      </trkpt>
      <trkpt lat="43.01817" lon="0.63389">
        <ele>772.91</ele>
        <time>2019-09-08T08:46:42Z</time>
      </trkpt>
      <trkpt lat="43.01821" lon="0.63365">
        <ele>769.82</ele>
        <time>2019-09-08T08:46:57Z</time>
      </trkpt>
      <trkpt lat="43.01826" lon="0.63339">
        <ele>766.81</ele>
        <time>2019-09-08T08:47:12Z</time>
      </trkpt>
      <trkpt lat="43.01823" lon="0.63299">
        <ele>764.51</ele>
        <time>2019-09-08T08:47:30Z</time>
      </trkpt>
      <trkpt lat="43.0182" lon="0.6327">
        <ele>762.8</ele>
        <time>2019-09-08T08:47:45Z</time>
      </trkpt>
      <trkpt lat="43.01823" lon="0.63245">
        <ele>759.88</ele>
        <time>2019-09-08T08:48:02Z</time>
      </trkpt>
      <trkpt lat="43.01823" lon="0.63224">
        <ele>756.84</ele>
        <time>2019-09-08T08:48:12Z</time>
      </trkpt>
      <trkpt lat="43.01823" lon="0.63208">
        <ele>753.65</ele>
        <time>2019-09-08T08:48:22Z</time>
      </trkpt>
      <trkpt lat="43.01824" lon="0.63189">
        <ele>750.64</ele>
        <time>2019-09-08T08:48:32Z</time>
      </trkpt>
      <trkpt lat="43.0183" lon="0.63165">
        <ele>747.19</ele>
        <time>2019-09-08T08:48:45Z</time>
      </trkpt>
      <trkpt lat="43.01838" lon="0.63145">
        <ele>744.16</ele>
        <time>2019-09-08T08:48:59Z</time>
      </trkpt>
      <trkpt lat="43.0185" lon="0.63105">
        <ele>742.12</ele>
        <time>2019-09-08T08:49:17Z</time>
      </trkpt>
      <trkpt lat="43.01859" lon="0.63076">
        <ele>740.74</ele>
        <time>2019-09-08T08:49:34Z</time>
      </trkpt>
      <trkpt lat="43.01865" lon="0.63051">
        <ele>740.11</ele>
        <time>2019-09-08T08:49:50Z</time>
      </trkpt>
      <trkpt lat="43.01871" lon="0.63023">
        <ele>739.39</ele>
        <time>2019-09-08T08:50:06Z</time>
      </trkpt>
      <trkpt lat="43.01875" lon="0.62996">
        <ele>738.87</ele>
        <time>2019-09-08T08:50:21Z</time>
      </trkpt>
      <trkpt lat="43.01877" lon="0.62986">
        <ele>738.55</ele>
        <time>2019-09-08T08:50:26Z</time>
      </trkpt>
      <trkpt lat="43.01881" lon="0.62959">
        <ele>738.02</ele>
        <time>2019-09-08T08:50:40Z</time>
      </trkpt>
      <trkpt lat="43.01882" lon="0.62953">
        <ele>738.2</ele>
        <time>2019-09-08T08:50:44Z</time>
      </trkpt>
      <trkpt lat="43.01892" lon="0.62923">
        <ele>737.19</ele>
        <time>2019-09-08T08:51:01Z</time>
      </trkpt>
      <trkpt lat="43.01904" lon="0.62902">
        <ele>735.91</ele>
        <time>2019-09-08T08:51:16Z</time>
      </trkpt>
      <trkpt lat="43.01916" lon="0.6288">
        <ele>733.36</ele>
        <time>2019-09-08T08:51:33Z</time>
      </trkpt>
      <trkpt lat="43.01937" lon="0.62863">
        <ele>730.48</ele>
        <time>2019-09-08T08:51:52Z</time>
      </trkpt>
      <trkpt lat="43.01947" lon="0.62859">
        <ele>729.48</ele>
        <time>2019-09-08T08:52:04Z</time>
      </trkpt>
      <trkpt lat="43.01959" lon="0.62855">
        <ele>726.75</ele>
        <time>2019-09-08T08:52:24Z</time>
      </trkpt>
      <trkpt lat="43.01986" lon="0.62846">
        <ele>723.73</ele>
        <time>2019-09-08T08:52:41Z</time>
      </trkpt>
      <trkpt lat="43.02022" lon="0.62831">
        <ele>721.07</ele>
        <time>2019-09-08T08:52:59Z</time>
      </trkpt>
      <trkpt lat="43.02037" lon="0.6282">
        <ele>718.54</ele>
        <time>2019-09-08T08:53:13Z</time>
      </trkpt>
      <trkpt lat="43.02051" lon="0.62805">
        <ele>715.72</ele>
        <time>2019-09-08T08:53:28Z</time>
      </trkpt>
      <trkpt lat="43.0206" lon="0.62797">
        <ele>713.15</ele>
        <time>2019-09-08T08:53:39Z</time>
      </trkpt>
      <trkpt lat="43.02061" lon="0.62796">
        <ele>712.96</ele>
        <time>2019-09-08T08:53:40Z</time>
      </trkpt>
      <trkpt lat="43.02063" lon="0.62795">
        <ele>712.79</ele>
        <time>2019-09-08T08:53:41Z</time>
      </trkpt>
      <trkpt lat="43.02066" lon="0.62793">
        <ele>712.46</ele>
        <time>2019-09-08T08:53:43Z</time>
      </trkpt>
      <trkpt lat="43.02067" lon="0.62791">
        <ele>712.31</ele>
        <time>2019-09-08T08:53:44Z</time>
      </trkpt>
      <trkpt lat="43.02068" lon="0.62789">
        <ele>712.17</ele>
        <time>2019-09-08T08:53:45Z</time>
      </trkpt>
      <trkpt lat="43.02086" lon="0.62768">
        <ele>710.18</ele>
        <time>2019-09-08T08:54:01Z</time>
      </trkpt>
      <trkpt lat="43.0211" lon="0.62734">
        <ele>708.3</ele>
        <time>2019-09-08T08:54:26Z</time>
      </trkpt>
      <trkpt lat="43.0213" lon="0.62704">
        <ele>706.97</ele>
        <time>2019-09-08T08:54:49Z</time>
      </trkpt>
      <trkpt lat="43.02149" lon="0.62677">
        <ele>706.27</ele>
        <time>2019-09-08T08:55:09Z</time>
      </trkpt>
      <trkpt lat="43.02168" lon="0.62652">
        <ele>705.12</ele>
        <time>2019-09-08T08:55:30Z</time>
      </trkpt>
      <trkpt lat="43.02172" lon="0.62635">
        <ele>705.54</ele>
        <time>2019-09-08T08:55:46Z</time>
      </trkpt>
      <trkpt lat="43.0217" lon="0.6261">
        <ele>705.45</ele>
        <time>2019-09-08T08:55:59Z</time>
      </trkpt>
      <trkpt lat="43.0217" lon="0.62607">
        <ele>705.48</ele>
        <time>2019-09-08T08:56:00Z</time>
      </trkpt>
      <trkpt lat="43.0217" lon="0.62576">
        <ele>706.33</ele>
        <time>2019-09-08T08:56:16Z</time>
      </trkpt>
      <trkpt lat="43.02171" lon="0.6257">
        <ele>706.58</ele>
        <time>2019-09-08T08:56:20Z</time>
      </trkpt>
      <trkpt lat="43.0218" lon="0.62536">
        <ele>706.44</ele>
        <time>2019-09-08T08:56:39Z</time>
      </trkpt>
      <trkpt lat="43.02188" lon="0.62511">
        <ele>706.49</ele>
        <time>2019-09-08T08:56:55Z</time>
      </trkpt>
      <trkpt lat="43.02191" lon="0.62506">
        <ele>707.18</ele>
        <time>2019-09-08T08:57:12Z</time>
      </trkpt>
      <trkpt lat="43.02195" lon="0.62499">
        <ele>707.59</ele>
        <time>2019-09-08T08:57:27Z</time>
      </trkpt>
      <trkpt lat="43.02196" lon="0.625">
        <ele>707.85</ele>
        <time>2019-09-08T08:57:58Z</time>
      </trkpt>
      <trkpt lat="43.02201" lon="0.62484">
        <ele>707.83</ele>
        <time>2019-09-08T08:58:29Z</time>
      </trkpt>
      <trkpt lat="43.02201" lon="0.62466">
        <ele>707.97</ele>
        <time>2019-09-08T08:58:40Z</time>
      </trkpt>
      <trkpt lat="43.02201" lon="0.62459">
        <ele>707.81</ele>
        <time>2019-09-08T08:58:45Z</time>
      </trkpt>
      <trkpt lat="43.02203" lon="0.62432">
        <ele>707.51</ele>
        <time>2019-09-08T08:59:00Z</time>
      </trkpt>
      <trkpt lat="43.02208" lon="0.62402">
        <ele>707.77</ele>
        <time>2019-09-08T08:59:18Z</time>
      </trkpt>
      <trkpt lat="43.02208" lon="0.62378">
        <ele>706.21</ele>
        <time>2019-09-08T08:59:32Z</time>
      </trkpt>
      <trkpt lat="43.02205" lon="0.62357">
        <ele>702.95</ele>
        <time>2019-09-08T08:59:44Z</time>
      </trkpt>
      <trkpt lat="43.02214" lon="0.62332">
        <ele>699.85</ele>
        <time>2019-09-08T09:00:01Z</time>
      </trkpt>
      <trkpt lat="43.02237" lon="0.62306">
        <ele>697.85</ele>
        <time>2019-09-08T09:00:21Z</time>
      </trkpt>
      <trkpt lat="43.02258" lon="0.62297">
        <ele>698.41</ele>
        <time>2019-09-08T09:00:40Z</time>
      </trkpt>
      <trkpt lat="43.02279" lon="0.62289">
        <ele>696.63</ele>
        <time>2019-09-08T09:00:58Z</time>
      </trkpt>
      <trkpt lat="43.02304" lon="0.62298">
        <ele>695.21</ele>
        <time>2019-09-08T09:01:17Z</time>
      </trkpt>
      <trkpt lat="43.02323" lon="0.62313">
        <ele>694.34</ele>
        <time>2019-09-08T09:01:33Z</time>
      </trkpt>
      <trkpt lat="43.0234" lon="0.62331">
        <ele>692.25</ele>
        <time>2019-09-08T09:01:52Z</time>
      </trkpt>
      <trkpt lat="43.02364" lon="0.62336">
        <ele>690.25</ele>
        <time>2019-09-08T09:02:08Z</time>
      </trkpt>
      <trkpt lat="43.02383" lon="0.62337">
        <ele>687.13</ele>
        <time>2019-09-08T09:02:23Z</time>
      </trkpt>
      <trkpt lat="43.02398" lon="0.62337">
        <ele>683.95</ele>
        <time>2019-09-08T09:02:37Z</time>
      </trkpt>
      <trkpt lat="43.02418" lon="0.62341">
        <ele>680.81</ele>
        <time>2019-09-08T09:02:50Z</time>
      </trkpt>
      <trkpt lat="43.02438" lon="0.62351">
        <ele>678.75</ele>
        <time>2019-09-08T09:03:05Z</time>
      </trkpt>
      <trkpt lat="43.02455" lon="0.62369">
        <ele>677.28</ele>
        <time>2019-09-08T09:03:21Z</time>
      </trkpt>
      <trkpt lat="43.02473" lon="0.62385">
        <ele>674.99</ele>
        <time>2019-09-08T09:03:37Z</time>
      </trkpt>
      <trkpt lat="43.02488" lon="0.62401">
        <ele>671.99</ele>
        <time>2019-09-08T09:03:54Z</time>
      </trkpt>
      <trkpt lat="43.02511" lon="0.62416">
        <ele>669.38</ele>
        <time>2019-09-08T09:04:11Z</time>
      </trkpt>
      <trkpt lat="43.02533" lon="0.62426">
        <ele>666.65</ele>
        <time>2019-09-08T09:04:29Z</time>
      </trkpt>
      <trkpt lat="43.02552" lon="0.62432">
        <ele>663.64</ele>
        <time>2019-09-08T09:04:44Z</time>
      </trkpt>
      <trkpt lat="43.0257" lon="0.62435">
        <ele>660.59</ele>
        <time>2019-09-08T09:04:58Z</time>
      </trkpt>
      <trkpt lat="43.02585" lon="0.62437">
        <ele>658.21</ele>
        <time>2019-09-08T09:05:10Z</time>
      </trkpt>
      <trkpt lat="43.02588" lon="0.62443">
        <ele>657.2</ele>
        <time>2019-09-08T09:05:29Z</time>
      </trkpt>
      <trkpt lat="43.02591" lon="0.62447">
        <ele>657.15</ele>
        <time>2019-09-08T09:05:42Z</time>
      </trkpt>
      <trkpt lat="43.02589" lon="0.62446">
        <ele>656.99</ele>
        <time>2019-09-08T09:06:11Z</time>
      </trkpt>
      <trkpt lat="43.02593" lon="0.62441">
        <ele>657</ele>
        <time>2019-09-08T09:06:29Z</time>
      </trkpt>
      <trkpt lat="43.02589" lon="0.62446">
        <ele>656.79</ele>
        <time>2019-09-08T09:06:50Z</time>
      </trkpt>
      <trkpt lat="43.02591" lon="0.62447">
        <ele>656.14</ele>
        <time>2019-09-08T09:07:16Z</time>
      </trkpt>
      <trkpt lat="43.02589" lon="0.62448">
        <ele>656.14</ele>
        <time>2019-09-08T09:07:20Z</time>
      </trkpt>
      <trkpt lat="43.02588" lon="0.62451">
        <ele>655.92</ele>
        <time>2019-09-08T09:07:44Z</time>
      </trkpt>
      <trkpt lat="43.02592" lon="0.62455">
        <ele>656.13</ele>
        <time>2019-09-08T09:08:11Z</time>
      </trkpt>
      <trkpt lat="43.02596" lon="0.62453">
        <ele>655.94</ele>
        <time>2019-09-08T09:08:42Z</time>
      </trkpt>
      <trkpt lat="43.02596" lon="0.62451">
        <ele>655.37</ele>
        <time>2019-09-08T09:08:59Z</time>
      </trkpt>
      <trkpt lat="43.02592" lon="0.62454">
        <ele>655.63</ele>
        <time>2019-09-08T09:09:13Z</time>
      </trkpt>
      <trkpt lat="43.02592" lon="0.62453">
        <ele>655.39</ele>
        <time>2019-09-08T09:09:25Z</time>
      </trkpt>
      <trkpt lat="43.02591" lon="0.62453">
        <ele>655.65</ele>
        <time>2019-09-08T09:09:47Z</time>
      </trkpt>
      <trkpt lat="43.02592" lon="0.62451">
        <ele>655.71</ele>
        <time>2019-09-08T09:10:06Z</time>
      </trkpt>
      <trkpt lat="43.0259" lon="0.62451">
        <ele>655.41</ele>
        <time>2019-09-08T09:10:33Z</time>
      </trkpt>
      <trkpt lat="43.02587" lon="0.62451">
        <ele>655.41</ele>
        <time>2019-09-08T09:10:57Z</time>
      </trkpt>
      <trkpt lat="43.02587" lon="0.6245">
        <ele>655.41</ele>
        <time>2019-09-08T09:11:16Z</time>
      </trkpt>
      <trkpt lat="43.02589" lon="0.62445">
        <ele>655.41</ele>
        <time>2019-09-08T09:11:55Z</time>
      </trkpt>
      <trkpt lat="43.02589" lon="0.62445">
        <ele>655.41</ele>
        <time>2019-09-08T09:12:19Z</time>
      </trkpt>
      <trkpt lat="43.02585" lon="0.62445">
        <ele>655.41</ele>
        <time>2019-09-08T09:12:52Z</time>
      </trkpt>
      <trkpt lat="43.02587" lon="0.62446">
        <ele>655.41</ele>
        <time>2019-09-08T09:13:20Z</time>
      </trkpt>
      <trkpt lat="43.02588" lon="0.62449">
        <ele>655.41</ele>
        <time>2019-09-08T09:13:52Z</time>
      </trkpt>
      <trkpt lat="43.02587" lon="0.62447">
        <ele>654.76</ele>
        <time>2019-09-08T09:14:01Z</time>
      </trkpt>
      <trkpt lat="43.02586" lon="0.6245">
        <ele>654.54</ele>
        <time>2019-09-08T09:14:18Z</time>
      </trkpt>
      <trkpt lat="43.02587" lon="0.62452">
        <ele>654.5</ele>
        <time>2019-09-08T09:14:54Z</time>
      </trkpt>
      <trkpt lat="43.02591" lon="0.62447">
        <ele>654.43</ele>
        <time>2019-09-08T09:15:27Z</time>
      </trkpt>
      <trkpt lat="43.02588" lon="0.62448">
        <ele>654.43</ele>
        <time>2019-09-08T09:15:58Z</time>
      </trkpt>
      <trkpt lat="43.0259" lon="0.62449">
        <ele>654.43</ele>
        <time>2019-09-08T09:16:16Z</time>
      </trkpt>
      <trkpt lat="43.02594" lon="0.62453">
        <ele>654.43</ele>
        <time>2019-09-08T09:16:34Z</time>
      </trkpt>
      <trkpt lat="43.02596" lon="0.62451">
        <ele>654.43</ele>
        <time>2019-09-08T09:16:47Z</time>
      </trkpt>
      <trkpt lat="43.02596" lon="0.62451">
        <ele>654.43</ele>
        <time>2019-09-08T09:17:06Z</time>
      </trkpt>
      <trkpt lat="43.02593" lon="0.6245">
        <ele>654.43</ele>
        <time>2019-09-08T09:17:19Z</time>
      </trkpt>
      <trkpt lat="43.02591" lon="0.62451">
        <ele>654.43</ele>
        <time>2019-09-08T09:17:46Z</time>
      </trkpt>
      <trkpt lat="43.02588" lon="0.6245">
        <ele>654.43</ele>
        <time>2019-09-08T09:18:16Z</time>
      </trkpt>
      <trkpt lat="43.02586" lon="0.62447">
        <ele>654.43</ele>
        <time>2019-09-08T09:18:43Z</time>
      </trkpt>
      <trkpt lat="43.02587" lon="0.6245">
        <ele>654.06</ele>
        <time>2019-09-08T09:18:52Z</time>
      </trkpt>
      <trkpt lat="43.02588" lon="0.6245">
        <ele>653.07</ele>
        <time>2019-09-08T09:19:07Z</time>
      </trkpt>
      <trkpt lat="43.02589" lon="0.62451">
        <ele>654.32</ele>
        <time>2019-09-08T09:19:10Z</time>
      </trkpt>
      <trkpt lat="43.02588" lon="0.62451">
        <ele>654.01</ele>
        <time>2019-09-08T09:19:33Z</time>
      </trkpt>
      <trkpt lat="43.02592" lon="0.62455">
        <ele>653.32</ele>
        <time>2019-09-08T09:20:01Z</time>
      </trkpt>
      <trkpt lat="43.02592" lon="0.62451">
        <ele>653.2</ele>
        <time>2019-09-08T09:20:32Z</time>
      </trkpt>
      <trkpt lat="43.02591" lon="0.62452">
        <ele>653</ele>
        <time>2019-09-08T09:21:00Z</time>
      </trkpt>
      <trkpt lat="43.0259" lon="0.62452">
        <ele>653</ele>
        <time>2019-09-08T09:21:29Z</time>
      </trkpt>
      <trkpt lat="43.02589" lon="0.62448">
        <ele>653</ele>
        <time>2019-09-08T09:21:57Z</time>
      </trkpt>
      <trkpt lat="43.02588" lon="0.62447">
        <ele>653</ele>
        <time>2019-09-08T09:22:25Z</time>
      </trkpt>
      <trkpt lat="43.02585" lon="0.62447">
        <ele>653</ele>
        <time>2019-09-08T09:22:51Z</time>
      </trkpt>
      <trkpt lat="43.02585" lon="0.62446">
        <ele>653</ele>
        <time>2019-09-08T09:23:15Z</time>
      </trkpt>
      <trkpt lat="43.0259" lon="0.62444">
        <ele>653</ele>
        <time>2019-09-08T09:23:45Z</time>
      </trkpt>
      <trkpt lat="43.02588" lon="0.62443">
        <ele>653</ele>
        <time>2019-09-08T09:24:09Z</time>
      </trkpt>
      <trkpt lat="43.02589" lon="0.62446">
        <ele>653</ele>
        <time>2019-09-08T09:24:31Z</time>
      </trkpt>
      <trkpt lat="43.02591" lon="0.62448">
        <ele>653</ele>
        <time>2019-09-08T09:24:55Z</time>
      </trkpt>
      <trkpt lat="43.0259" lon="0.6245">
        <ele>653</ele>
        <time>2019-09-08T09:25:23Z</time>
      </trkpt>
      <trkpt lat="43.02595" lon="0.6245">
        <ele>653</ele>
        <time>2019-09-08T09:25:36Z</time>
      </trkpt>
      <trkpt lat="43.02604" lon="0.62454">
        <ele>653</ele>
        <time>2019-09-08T09:25:51Z</time>
      </trkpt>
      <trkpt lat="43.0261" lon="0.6246">
        <ele>648.8</ele>
        <time>2019-09-08T09:25:58Z</time>
      </trkpt>
      <trkpt lat="43.02611" lon="0.62461">
        <ele>648.91</ele>
        <time>2019-09-08T09:25:59Z</time>
      </trkpt>
      <trkpt lat="43.02629" lon="0.6248">
        <ele>646.86</ele>
        <time>2019-09-08T09:26:18Z</time>
      </trkpt>
      <trkpt lat="43.0264" lon="0.62488">
        <ele>645.26</ele>
        <time>2019-09-08T09:26:28Z</time>
      </trkpt>
      <trkpt lat="43.02659" lon="0.62506">
        <ele>642.43</ele>
        <time>2019-09-08T09:26:43Z</time>
      </trkpt>
      <trkpt lat="43.02674" lon="0.62523">
        <ele>639.38</ele>
        <time>2019-09-08T09:27:00Z</time>
      </trkpt>
      <trkpt lat="43.02691" lon="0.62545">
        <ele>636.59</ele>
        <time>2019-09-08T09:27:19Z</time>
      </trkpt>
      <trkpt lat="43.02708" lon="0.62567">
        <ele>634.5</ele>
        <time>2019-09-08T09:27:37Z</time>
      </trkpt>
      <trkpt lat="43.02725" lon="0.6259">
        <ele>631.79</ele>
        <time>2019-09-08T09:27:56Z</time>
      </trkpt>
      <trkpt lat="43.02742" lon="0.62612">
        <ele>628.77</ele>
        <time>2019-09-08T09:28:12Z</time>
      </trkpt>
      <trkpt lat="43.02756" lon="0.62634">
        <ele>625.61</ele>
        <time>2019-09-08T09:28:30Z</time>
      </trkpt>
      <trkpt lat="43.02767" lon="0.62655">
        <ele>622.43</ele>
        <time>2019-09-08T09:28:45Z</time>
      </trkpt>
      <trkpt lat="43.02786" lon="0.62679">
        <ele>619.35</ele>
        <time>2019-09-08T09:29:01Z</time>
      </trkpt>
      <trkpt lat="43.02799" lon="0.62698">
        <ele>616.88</ele>
        <time>2019-09-08T09:29:16Z</time>
      </trkpt>
      <trkpt lat="43.0281" lon="0.6272">
        <ele>614.35</ele>
        <time>2019-09-08T09:29:31Z</time>
      </trkpt>
      <trkpt lat="43.0283" lon="0.62746">
        <ele>611.83</ele>
        <time>2019-09-08T09:29:48Z</time>
      </trkpt>
      <trkpt lat="43.02843" lon="0.62769">
        <ele>609.91</ele>
        <time>2019-09-08T09:30:03Z</time>
      </trkpt>
      <trkpt lat="43.0285" lon="0.62794">
        <ele>607.12</ele>
        <time>2019-09-08T09:30:20Z</time>
      </trkpt>
      <trkpt lat="43.02866" lon="0.62818">
        <ele>604.9</ele>
        <time>2019-09-08T09:30:36Z</time>
      </trkpt>
      <trkpt lat="43.02877" lon="0.62842">
        <ele>601.71</ele>
        <time>2019-09-08T09:30:55Z</time>
      </trkpt>
      <trkpt lat="43.02899" lon="0.62868">
        <ele>598.77</ele>
        <time>2019-09-08T09:31:13Z</time>
      </trkpt>
      <trkpt lat="43.02917" lon="0.6289">
        <ele>596.23</ele>
        <time>2019-09-08T09:31:29Z</time>
      </trkpt>
      <trkpt lat="43.02931" lon="0.62915">
        <ele>593.39</ele>
        <time>2019-09-08T09:31:47Z</time>
      </trkpt>
      <trkpt lat="43.02942" lon="0.6293">
        <ele>591.89</ele>
        <time>2019-09-08T09:31:58Z</time>
      </trkpt>
      <trkpt lat="43.02959" lon="0.62952">
        <ele>589.6</ele>
        <time>2019-09-08T09:32:15Z</time>
      </trkpt>
      <trkpt lat="43.02974" lon="0.62977">
        <ele>587.21</ele>
        <time>2019-09-08T09:32:34Z</time>
      </trkpt>
      <trkpt lat="43.02989" lon="0.62999">
        <ele>585.3</ele>
        <time>2019-09-08T09:32:52Z</time>
      </trkpt>
      <trkpt lat="43.03016" lon="0.63022">
        <ele>582.2</ele>
        <time>2019-09-08T09:33:12Z</time>
      </trkpt>
      <trkpt lat="43.03031" lon="0.63039">
        <ele>579.84</ele>
        <time>2019-09-08T09:33:27Z</time>
      </trkpt>
      <trkpt lat="43.03046" lon="0.63058">
        <ele>577.53</ele>
        <time>2019-09-08T09:33:44Z</time>
      </trkpt>
      <trkpt lat="43.03067" lon="0.63074">
        <ele>574.86</ele>
        <time>2019-09-08T09:34:04Z</time>
      </trkpt>
      <trkpt lat="43.0309" lon="0.63076">
        <ele>571.76</ele>
        <time>2019-09-08T09:34:18Z</time>
      </trkpt>
      <trkpt lat="43.03112" lon="0.63074">
        <ele>568.61</ele>
        <time>2019-09-08T09:34:32Z</time>
      </trkpt>
      <trkpt lat="43.03141" lon="0.63071">
        <ele>565.78</ele>
        <time>2019-09-08T09:34:50Z</time>
      </trkpt>
      <trkpt lat="43.03162" lon="0.6308">
        <ele>564.23</ele>
        <time>2019-09-08T09:35:08Z</time>
      </trkpt>
      <trkpt lat="43.03175" lon="0.63082">
        <ele>561.14</ele>
        <time>2019-09-08T09:35:22Z</time>
      </trkpt>
      <trkpt lat="43.03195" lon="0.6308">
        <ele>558.19</ele>
        <time>2019-09-08T09:35:33Z</time>
      </trkpt>
      <trkpt lat="43.03209" lon="0.63069">
        <ele>555.14</ele>
        <time>2019-09-08T09:35:45Z</time>
      </trkpt>
      <trkpt lat="43.03217" lon="0.63062">
        <ele>553.92</ele>
        <time>2019-09-08T09:35:52Z</time>
      </trkpt>
      <trkpt lat="43.03223" lon="0.63056">
        <ele>553.34</ele>
        <time>2019-09-08T09:35:56Z</time>
      </trkpt>
      <trkpt lat="43.03236" lon="0.63034">
        <ele>551.58</ele>
        <time>2019-09-08T09:36:11Z</time>
      </trkpt>
      <trkpt lat="43.03247" lon="0.63014">
        <ele>550.61</ele>
        <time>2019-09-08T09:36:27Z</time>
      </trkpt>
      <trkpt lat="43.03255" lon="0.62987">
        <ele>548.56</ele>
        <time>2019-09-08T09:36:44Z</time>
      </trkpt>
      <trkpt lat="43.03264" lon="0.62953">
        <ele>545.83</ele>
        <time>2019-09-08T09:37:03Z</time>
      </trkpt>
      <trkpt lat="43.03271" lon="0.62921">
        <ele>543.67</ele>
        <time>2019-09-08T09:37:19Z</time>
      </trkpt>
      <trkpt lat="43.03281" lon="0.62891">
        <ele>541.17</ele>
        <time>2019-09-08T09:37:38Z</time>
      </trkpt>
      <trkpt lat="43.03288" lon="0.62866">
        <ele>539.34</ele>
        <time>2019-09-08T09:37:51Z</time>
      </trkpt>
      <trkpt lat="43.03289" lon="0.62865">
        <ele>539.11</ele>
        <time>2019-09-08T09:37:52Z</time>
      </trkpt>
      <trkpt lat="43.03289" lon="0.62863">
        <ele>539.11</ele>
        <time>2019-09-08T09:37:53Z</time>
      </trkpt>
      <trkpt lat="43.0329" lon="0.62861">
        <ele>538.97</ele>
        <time>2019-09-08T09:37:54Z</time>
      </trkpt>
      <trkpt lat="43.0329" lon="0.62859">
        <ele>538.81</ele>
        <time>2019-09-08T09:37:55Z</time>
      </trkpt>
      <trkpt lat="43.03291" lon="0.62858">
        <ele>538.61</ele>
        <time>2019-09-08T09:37:56Z</time>
      </trkpt>
      <trkpt lat="43.03297" lon="0.62842">
        <ele>537.85</ele>
        <time>2019-09-08T09:38:07Z</time>
      </trkpt>
      <trkpt lat="43.03297" lon="0.62841">
        <ele>537.66</ele>
        <time>2019-09-08T09:38:08Z</time>
      </trkpt>
      <trkpt lat="43.03305" lon="0.62826">
        <ele>536.51</ele>
        <time>2019-09-08T09:38:18Z</time>
      </trkpt>
      <trkpt lat="43.03305" lon="0.62824">
        <ele>536.4</ele>
        <time>2019-09-08T09:38:19Z</time>
      </trkpt>
      <trkpt lat="43.03306" lon="0.62822">
        <ele>536.2</ele>
        <time>2019-09-08T09:38:20Z</time>
      </trkpt>
      <trkpt lat="43.03307" lon="0.6282">
        <ele>536.02</ele>
        <time>2019-09-08T09:38:21Z</time>
      </trkpt>
      <trkpt lat="43.03308" lon="0.62818">
        <ele>535.9</ele>
        <time>2019-09-08T09:38:22Z</time>
      </trkpt>
      <trkpt lat="43.0332" lon="0.62792">
        <ele>533.84</ele>
        <time>2019-09-08T09:38:37Z</time>
      </trkpt>
      <trkpt lat="43.03318" lon="0.62781">
        <ele>532.69</ele>
        <time>2019-09-08T09:38:51Z</time>
      </trkpt>
      <trkpt lat="43.03306" lon="0.62781">
        <ele>529.47</ele>
        <time>2019-09-08T09:39:01Z</time>
      </trkpt>
      <trkpt lat="43.03304" lon="0.62779">
        <ele>528.87</ele>
        <time>2019-09-08T09:39:03Z</time>
      </trkpt>
      <trkpt lat="43.03301" lon="0.62771">
        <ele>527.49</ele>
        <time>2019-09-08T09:39:09Z</time>
      </trkpt>
      <trkpt lat="43.03305" lon="0.62748">
        <ele>524.63</ele>
        <time>2019-09-08T09:39:26Z</time>
      </trkpt>
      <trkpt lat="43.03308" lon="0.62721">
        <ele>521.5</ele>
        <time>2019-09-08T09:39:43Z</time>
      </trkpt>
      <trkpt lat="43.03314" lon="0.62695">
        <ele>518.41</ele>
        <time>2019-09-08T09:39:58Z</time>
      </trkpt>
      <trkpt lat="43.03324" lon="0.62671">
        <ele>515.38</ele>
        <time>2019-09-08T09:40:13Z</time>
      </trkpt>
      <trkpt lat="43.03333" lon="0.62649">
        <ele>512.6</ele>
        <time>2019-09-08T09:40:27Z</time>
      </trkpt>
      <trkpt lat="43.03342" lon="0.62636">
        <ele>509.31</ele>
        <time>2019-09-08T09:40:39Z</time>
      </trkpt>
      <trkpt lat="43.03345" lon="0.62617">
        <ele>506.3</ele>
        <time>2019-09-08T09:40:53Z</time>
      </trkpt>
      <trkpt lat="43.03347" lon="0.62601">
        <ele>503.24</ele>
        <time>2019-09-08T09:41:06Z</time>
      </trkpt>
      <trkpt lat="43.03346" lon="0.62586">
        <ele>501.05</ele>
        <time>2019-09-08T09:41:15Z</time>
      </trkpt>
      <trkpt lat="43.03344" lon="0.62573">
        <ele>498.77</ele>
        <time>2019-09-08T09:41:29Z</time>
      </trkpt>
      <trkpt lat="43.03347" lon="0.62564">
        <ele>498.36</ele>
        <time>2019-09-08T09:42:00Z</time>
      </trkpt>
      <trkpt lat="43.03348" lon="0.62555">
        <ele>497.59</ele>
        <time>2019-09-08T09:42:06Z</time>
      </trkpt>
      <trkpt lat="43.03341" lon="0.62535">
        <ele>494.63</ele>
        <time>2019-09-08T09:42:20Z</time>
      </trkpt>
      <trkpt lat="43.03341" lon="0.62534">
        <ele>494.34</ele>
        <time>2019-09-08T09:42:21Z</time>
      </trkpt>
      <trkpt lat="43.03339" lon="0.62534">
        <ele>494.19</ele>
        <time>2019-09-08T09:42:22Z</time>
      </trkpt>
      <trkpt lat="43.03316" lon="0.62505">
        <ele>492.18</ele>
        <time>2019-09-08T09:42:42Z</time>
      </trkpt>
      <trkpt lat="43.03303" lon="0.62484">
        <ele>491.29</ele>
        <time>2019-09-08T09:42:58Z</time>
      </trkpt>
      <trkpt lat="43.03299" lon="0.62471">
        <ele>491.33</ele>
        <time>2019-09-08T09:43:08Z</time>
      </trkpt>
      <trkpt lat="43.03298" lon="0.6247">
        <ele>491.33</ele>
        <time>2019-09-08T09:43:09Z</time>
      </trkpt>
      <trkpt lat="43.03297" lon="0.62468">
        <ele>491.33</ele>
        <time>2019-09-08T09:43:10Z</time>
      </trkpt>
      <trkpt lat="43.03287" lon="0.6244">
        <ele>491.18</ele>
        <time>2019-09-08T09:43:27Z</time>
      </trkpt>
      <trkpt lat="43.03277" lon="0.62405">
        <ele>490.93</ele>
        <time>2019-09-08T09:43:46Z</time>
      </trkpt>
      <trkpt lat="43.03272" lon="0.62372">
        <ele>489.14</ele>
        <time>2019-09-08T09:44:03Z</time>
      </trkpt>
      <trkpt lat="43.03276" lon="0.62342">
        <ele>486.96</ele>
        <time>2019-09-08T09:44:21Z</time>
      </trkpt>
      <trkpt lat="43.03277" lon="0.62316">
        <ele>485.01</ele>
        <time>2019-09-08T09:44:35Z</time>
      </trkpt>
      <trkpt lat="43.03274" lon="0.62281">
        <ele>482.24</ele>
        <time>2019-09-08T09:44:54Z</time>
      </trkpt>
      <trkpt lat="43.03266" lon="0.6225">
        <ele>479.11</ele>
        <time>2019-09-08T09:45:11Z</time>
      </trkpt>
      <trkpt lat="43.03259" lon="0.62217">
        <ele>476.39</ele>
        <time>2019-09-08T09:45:29Z</time>
      </trkpt>
      <trkpt lat="43.03257" lon="0.62186">
        <ele>473.34</ele>
        <time>2019-09-08T09:45:49Z</time>
      </trkpt>
      <trkpt lat="43.03253" lon="0.62187">
        <ele>473.12</ele>
        <time>2019-09-08T09:45:53Z</time>
      </trkpt>
      <trkpt lat="43.03249" lon="0.62188">
        <ele>472.66</ele>
        <time>2019-09-08T09:45:56Z</time>
      </trkpt>
      <trkpt lat="43.03248" lon="0.62189">
        <ele>472.45</ele>
        <time>2019-09-08T09:45:57Z</time>
      </trkpt>
      <trkpt lat="43.03247" lon="0.62189">
        <ele>472.23</ele>
        <time>2019-09-08T09:45:58Z</time>
      </trkpt>
      <trkpt lat="43.03245" lon="0.62188">
        <ele>472</ele>
        <time>2019-09-08T09:45:59Z</time>
      </trkpt>
      <trkpt lat="43.03244" lon="0.62188">
        <ele>471.84</ele>
        <time>2019-09-08T09:46:00Z</time>
      </trkpt>
      <trkpt lat="43.03243" lon="0.62188">
        <ele>471.71</ele>
        <time>2019-09-08T09:46:01Z</time>
      </trkpt>
      <trkpt lat="43.03242" lon="0.62188">
        <ele>471.61</ele>
        <time>2019-09-08T09:46:02Z</time>
      </trkpt>
      <trkpt lat="43.03224" lon="0.62181">
        <ele>470.14</ele>
        <time>2019-09-08T09:46:17Z</time>
      </trkpt>
      <trkpt lat="43.03204" lon="0.62172">
        <ele>468.6</ele>
        <time>2019-09-08T09:46:32Z</time>
      </trkpt>
      <trkpt lat="43.03181" lon="0.6217">
        <ele>467.47</ele>
        <time>2019-09-08T09:46:49Z</time>
      </trkpt>
      <trkpt lat="43.03154" lon="0.62155">
        <ele>466.16</ele>
        <time>2019-09-08T09:47:10Z</time>
      </trkpt>
      <trkpt lat="43.0314" lon="0.62115">
        <ele>464.38</ele>
        <time>2019-09-08T09:47:35Z</time>
      </trkpt>
      <trkpt lat="43.03132" lon="0.62089">
        <ele>463.44</ele>
        <time>2019-09-08T09:47:54Z</time>
      </trkpt>
      <trkpt lat="43.03125" lon="0.62049">
        <ele>462.5</ele>
        <time>2019-09-08T09:48:13Z</time>
      </trkpt>
      <trkpt lat="43.03111" lon="0.62006">
        <ele>461.44</ele>
        <time>2019-09-08T09:48:37Z</time>
      </trkpt>
      <trkpt lat="43.03101" lon="0.61968">
        <ele>460.85</ele>
        <time>2019-09-08T09:48:59Z</time>
      </trkpt>
      <trkpt lat="43.03093" lon="0.61937">
        <ele>460.4</ele>
        <time>2019-09-08T09:49:16Z</time>
      </trkpt>
      <trkpt lat="43.03086" lon="0.61915">
        <ele>460.19</ele>
        <time>2019-09-08T09:49:30Z</time>
      </trkpt>
      <trkpt lat="43.0308" lon="0.61887">
        <ele>459.74</ele>
        <time>2019-09-08T09:49:46Z</time>
      </trkpt>
      <trkpt lat="43.03076" lon="0.61859">
        <ele>459.07</ele>
        <time>2019-09-08T09:50:01Z</time>
      </trkpt>
      <trkpt lat="43.03076" lon="0.61829">
        <ele>458.38</ele>
        <time>2019-09-08T09:50:19Z</time>
      </trkpt>
      <trkpt lat="43.03079" lon="0.61804">
        <ele>457.12</ele>
        <time>2019-09-08T09:50:35Z</time>
      </trkpt>
      <trkpt lat="43.03079" lon="0.61796">
        <ele>456.74</ele>
        <time>2019-09-08T09:50:39Z</time>
      </trkpt>
      <trkpt lat="43.03079" lon="0.61793">
        <ele>456.63</ele>
        <time>2019-09-08T09:50:40Z</time>
      </trkpt>
      <trkpt lat="43.03062" lon="0.61773">
        <ele>454.58</ele>
        <time>2019-09-08T09:50:57Z</time>
      </trkpt>
      <trkpt lat="43.03042" lon="0.61773">
        <ele>452.94</ele>
        <time>2019-09-08T09:51:14Z</time>
      </trkpt>
      <trkpt lat="43.0302" lon="0.61774">
        <ele>451.04</ele>
        <time>2019-09-08T09:51:31Z</time>
      </trkpt>
      <trkpt lat="43.03006" lon="0.61787">
        <ele>449.14</ele>
        <time>2019-09-08T09:51:46Z</time>
      </trkpt>
      <trkpt lat="43.03002" lon="0.6179">
        <ele>448.91</ele>
        <time>2019-09-08T09:51:48Z</time>
      </trkpt>
      <trkpt lat="43.02994" lon="0.61795">
        <ele>448.45</ele>
        <time>2019-09-08T09:51:52Z</time>
      </trkpt>
      <trkpt lat="43.02967" lon="0.61795">
        <ele>446.96</ele>
        <time>2019-09-08T09:52:08Z</time>
      </trkpt>
      <trkpt lat="43.02942" lon="0.61789">
        <ele>445.2</ele>
        <time>2019-09-08T09:52:25Z</time>
      </trkpt>
      <trkpt lat="43.0292" lon="0.6176">
        <ele>443.33</ele>
        <time>2019-09-08T09:52:47Z</time>
      </trkpt>
      <trkpt lat="43.02908" lon="0.61731">
        <ele>441.88</ele>
        <time>2019-09-08T09:53:06Z</time>
      </trkpt>
      <trkpt lat="43.02898" lon="0.61702">
        <ele>441.75</ele>
        <time>2019-09-08T09:53:24Z</time>
      </trkpt>
      <trkpt lat="43.02886" lon="0.61669">
        <ele>441.49</ele>
        <time>2019-09-08T09:53:43Z</time>
      </trkpt>
      <trkpt lat="43.02873" lon="0.61635">
        <ele>441.51</ele>
        <time>2019-09-08T09:54:03Z</time>
      </trkpt>
      <trkpt lat="43.02865" lon="0.61608">
        <ele>441.22</ele>
        <time>2019-09-08T09:54:21Z</time>
      </trkpt>
      <trkpt lat="43.02856" lon="0.6158">
        <ele>440.95</ele>
        <time>2019-09-08T09:54:39Z</time>
      </trkpt>
      <trkpt lat="43.02847" lon="0.61543">
        <ele>440.8</ele>
        <time>2019-09-08T09:55:00Z</time>
      </trkpt>
      <trkpt lat="43.02837" lon="0.61508">
        <ele>440.72</ele>
        <time>2019-09-08T09:55:21Z</time>
      </trkpt>
      <trkpt lat="43.02828" lon="0.61479">
        <ele>440.41</ele>
        <time>2019-09-08T09:55:40Z</time>
      </trkpt>
      <trkpt lat="43.02827" lon="0.61474">
        <ele>440.4</ele>
        <time>2019-09-08T09:55:43Z</time>
      </trkpt>
      <trkpt lat="43.02826" lon="0.61473">
        <ele>440.4</ele>
        <time>2019-09-08T09:55:44Z</time>
      </trkpt>
      <trkpt lat="43.02822" lon="0.6146">
        <ele>440.4</ele>
        <time>2019-09-08T09:55:52Z</time>
      </trkpt>
      <trkpt lat="43.02821" lon="0.61435">
        <ele>440.43</ele>
        <time>2019-09-08T09:56:07Z</time>
      </trkpt>
      <trkpt lat="43.02822" lon="0.61429">
        <ele>440.43</ele>
        <time>2019-09-08T09:56:11Z</time>
      </trkpt>
      <trkpt lat="43.02822" lon="0.61427">
        <ele>440.43</ele>
        <time>2019-09-08T09:56:12Z</time>
      </trkpt>
      <trkpt lat="43.02826" lon="0.61403">
        <ele>440.17</ele>
        <time>2019-09-08T09:56:26Z</time>
      </trkpt>
      <trkpt lat="43.02826" lon="0.61401">
        <ele>440.17</ele>
        <time>2019-09-08T09:56:27Z</time>
      </trkpt>
      <trkpt lat="43.02831" lon="0.61367">
        <ele>439.9</ele>
        <time>2019-09-08T09:56:45Z</time>
      </trkpt>
      <trkpt lat="43.02836" lon="0.61337">
        <ele>439.79</ele>
        <time>2019-09-08T09:57:02Z</time>
      </trkpt>
      <trkpt lat="43.02838" lon="0.61298">
        <ele>439.59</ele>
        <time>2019-09-08T09:57:22Z</time>
      </trkpt>
      <trkpt lat="43.0284" lon="0.61262">
        <ele>439.8</ele>
        <time>2019-09-08T09:57:43Z</time>
      </trkpt>
      <trkpt lat="43.02844" lon="0.61235">
        <ele>440.18</ele>
        <time>2019-09-08T09:58:00Z</time>
      </trkpt>
      <trkpt lat="43.02844" lon="0.61194">
        <ele>440.16</ele>
        <time>2019-09-08T09:58:22Z</time>
      </trkpt>
      <trkpt lat="43.0284" lon="0.61161">
        <ele>440.52</ele>
        <time>2019-09-08T09:58:41Z</time>
      </trkpt>
      <trkpt lat="43.02839" lon="0.61132">
        <ele>441.22</ele>
        <time>2019-09-08T09:58:59Z</time>
      </trkpt>
      <trkpt lat="43.02836" lon="0.61097">
        <ele>441.88</ele>
        <time>2019-09-08T09:59:20Z</time>
      </trkpt>
      <trkpt lat="43.02839" lon="0.61086">
        <ele>442.17</ele>
        <time>2019-09-08T09:59:26Z</time>
      </trkpt>
      <trkpt lat="43.02839" lon="0.61084">
        <ele>442.18</ele>
        <time>2019-09-08T09:59:27Z</time>
      </trkpt>
      <trkpt lat="43.02838" lon="0.61082">
        <ele>442.19</ele>
        <time>2019-09-08T09:59:28Z</time>
      </trkpt>
      <trkpt lat="43.02823" lon="0.61065">
        <ele>442.28</ele>
        <time>2019-09-08T09:59:45Z</time>
      </trkpt>
      <trkpt lat="43.02814" lon="0.61063">
        <ele>442.38</ele>
        <time>2019-09-08T09:59:54Z</time>
      </trkpt>
      <trkpt lat="43.02812" lon="0.61058">
        <ele>442.37</ele>
        <time>2019-09-08T09:59:58Z</time>
      </trkpt>
      <trkpt lat="43.02811" lon="0.61056">
        <ele>442.37</ele>
        <time>2019-09-08T09:59:59Z</time>
      </trkpt>
      <trkpt lat="43.02802" lon="0.61021">
        <ele>442.54</ele>
        <time>2019-09-08T10:00:22Z</time>
      </trkpt>
      <trkpt lat="43.02801" lon="0.61018">
        <ele>442.54</ele>
        <time>2019-09-08T10:00:25Z</time>
      </trkpt>
      <trkpt lat="43.028" lon="0.61015">
        <ele>442.54</ele>
        <time>2019-09-08T10:00:27Z</time>
      </trkpt>
      <trkpt lat="43.02794" lon="0.60996">
        <ele>442.82</ele>
        <time>2019-09-08T10:00:44Z</time>
      </trkpt>
      <trkpt lat="43.02789" lon="0.60997">
        <ele>442.55</ele>
        <time>2019-09-08T10:00:58Z</time>
      </trkpt>
      <trkpt lat="43.02789" lon="0.60997">
        <ele>442.38</ele>
        <time>2019-09-08T10:01:04Z</time>
      </trkpt>
      <trkpt lat="43.02782" lon="0.6098">
        <ele>442.06</ele>
        <time>2019-09-08T10:01:18Z</time>
      </trkpt>
      <trkpt lat="43.02778" lon="0.60974">
        <ele>441.87</ele>
        <time>2019-09-08T10:01:23Z</time>
      </trkpt>
      <trkpt lat="43.02764" lon="0.6095">
        <ele>440.99</ele>
        <time>2019-09-08T10:01:39Z</time>
      </trkpt>
      <trkpt lat="43.02743" lon="0.60922">
        <ele>440.37</ele>
        <time>2019-09-08T10:01:59Z</time>
      </trkpt>
      <trkpt lat="43.02726" lon="0.60897">
        <ele>440.69</ele>
        <time>2019-09-08T10:02:16Z</time>
      </trkpt>
      <trkpt lat="43.02712" lon="0.60875">
        <ele>441.29</ele>
        <time>2019-09-08T10:02:35Z</time>
      </trkpt>
      <trkpt lat="43.02695" lon="0.60852">
        <ele>441.64</ele>
        <time>2019-09-08T10:02:53Z</time>
      </trkpt>
      <trkpt lat="43.02677" lon="0.60825">
        <ele>441.5</ele>
        <time>2019-09-08T10:03:14Z</time>
      </trkpt>
      <trkpt lat="43.02654" lon="0.60793">
        <ele>441.67</ele>
        <time>2019-09-08T10:03:39Z</time>
      </trkpt>
      <trkpt lat="43.02631" lon="0.60759">
        <ele>441.92</ele>
        <time>2019-09-08T10:04:05Z</time>
      </trkpt>
      <trkpt lat="43.02615" lon="0.60732">
        <ele>442.16</ele>
        <time>2019-09-08T10:04:24Z</time>
      </trkpt>
      <trkpt lat="43.02598" lon="0.60709">
        <ele>441.78</ele>
        <time>2019-09-08T10:04:41Z</time>
      </trkpt>
      <trkpt lat="43.02579" lon="0.60677">
        <ele>442.28</ele>
        <time>2019-09-08T10:05:03Z</time>
      </trkpt>
      <trkpt lat="43.02566" lon="0.60652">
        <ele>442.46</ele>
        <time>2019-09-08T10:05:22Z</time>
      </trkpt>
      <trkpt lat="43.02553" lon="0.60629">
        <ele>442.57</ele>
        <time>2019-09-08T10:05:39Z</time>
      </trkpt>
      <trkpt lat="43.02539" lon="0.60608">
        <ele>442.91</ele>
        <time>2019-09-08T10:05:57Z</time>
      </trkpt>
      <trkpt lat="43.02535" lon="0.606">
        <ele>443.03</ele>
        <time>2019-09-08T10:06:02Z</time>
      </trkpt>
      <trkpt lat="43.02533" lon="0.60596">
        <ele>443.17</ele>
        <time>2019-09-08T10:06:04Z</time>
      </trkpt>
      <trkpt lat="43.02523" lon="0.60574">
        <ele>444.06</ele>
        <time>2019-09-08T10:06:18Z</time>
      </trkpt>
      <trkpt lat="43.02515" lon="0.60558">
        <ele>444.48</ele>
        <time>2019-09-08T10:06:29Z</time>
      </trkpt>
      <trkpt lat="43.02513" lon="0.60553">
        <ele>444.59</ele>
        <time>2019-09-08T10:06:32Z</time>
      </trkpt>
      <trkpt lat="43.02512" lon="0.60551">
        <ele>444.64</ele>
        <time>2019-09-08T10:06:33Z</time>
      </trkpt>
      <trkpt lat="43.02499" lon="0.60526">
        <ele>445.25</ele>
        <time>2019-09-08T10:06:51Z</time>
      </trkpt>
      <trkpt lat="43.02487" lon="0.60503">
        <ele>445.28</ele>
        <time>2019-09-08T10:07:08Z</time>
      </trkpt>
      <trkpt lat="43.02465" lon="0.60482">
        <ele>445.08</ele>
        <time>2019-09-08T10:07:24Z</time>
      </trkpt>
      <trkpt lat="43.02461" lon="0.6048">
        <ele>445.16</ele>
        <time>2019-09-08T10:07:27Z</time>
      </trkpt>
      <trkpt lat="43.0245" lon="0.60481">
        <ele>444.77</ele>
        <time>2019-09-08T10:07:37Z</time>
      </trkpt>
      <trkpt lat="43.02449" lon="0.60481">
        <ele>444.91</ele>
        <time>2019-09-08T10:07:38Z</time>
      </trkpt>
      <trkpt lat="43.02435" lon="0.60484">
        <ele>446.22</ele>
        <time>2019-09-08T10:07:52Z</time>
      </trkpt>
      <trkpt lat="43.02427" lon="0.60489">
        <ele>445.96</ele>
        <time>2019-09-08T10:07:57Z</time>
      </trkpt>
      <trkpt lat="43.02415" lon="0.60497">
        <ele>445.66</ele>
        <time>2019-09-08T10:08:14Z</time>
      </trkpt>
      <trkpt lat="43.02426" lon="0.60497">
        <ele>446.03</ele>
        <time>2019-09-08T10:10:10Z</time>
      </trkpt>
      <trkpt lat="43.02427" lon="0.60498">
        <ele>445.78</ele>
        <time>2019-09-08T10:10:30Z</time>
      </trkpt>
      <trkpt lat="43.02424" lon="0.60497">
        <ele>445.41</ele>
        <time>2019-09-08T10:10:42Z</time>
      </trkpt>
      <trkpt lat="43.02424" lon="0.60497">
        <ele>445.45</ele>
        <time>2019-09-08T10:10:53Z</time>
      </trkpt>
      <trkpt lat="43.02422" lon="0.60496">
        <ele>445.52</ele>
        <time>2019-09-08T10:11:20Z</time>
      </trkpt>
      <trkpt lat="43.02423" lon="0.60496">
        <ele>445.99</ele>
        <time>2019-09-08T10:11:36Z</time>
      </trkpt>
      <trkpt lat="43.02424" lon="0.60498">
        <ele>445.99</ele>
        <time>2019-09-08T10:11:55Z</time>
      </trkpt>
      <trkpt lat="43.02424" lon="0.60501">
        <ele>445.99</ele>
        <time>2019-09-08T10:12:19Z</time>
      </trkpt>
      <trkpt lat="43.02425" lon="0.60501">
        <ele>445.99</ele>
        <time>2019-09-08T10:12:27Z</time>
      </trkpt>
      <trkpt lat="43.02425" lon="0.60495">
        <ele>445.99</ele>
        <time>2019-09-08T10:12:40Z</time>
      </trkpt>
      <trkpt lat="43.0242" lon="0.6048">
        <ele>446.29</ele>
        <time>2019-09-08T10:12:52Z</time>
      </trkpt>
      <trkpt lat="43.02409" lon="0.60461">
        <ele>445.86</ele>
        <time>2019-09-08T10:13:07Z</time>
      </trkpt>
      <trkpt lat="43.02403" lon="0.60441">
        <ele>445.46</ele>
        <time>2019-09-08T10:13:20Z</time>
      </trkpt>
      <trkpt lat="43.02402" lon="0.60439">
        <ele>445.47</ele>
        <time>2019-09-08T10:13:21Z</time>
      </trkpt>
      <trkpt lat="43.02401" lon="0.60438">
        <ele>445.47</ele>
        <time>2019-09-08T10:13:22Z</time>
      </trkpt>
      <trkpt lat="43.02401" lon="0.60436">
        <ele>445.46</ele>
        <time>2019-09-08T10:13:23Z</time>
      </trkpt>
      <trkpt lat="43.024" lon="0.60434">
        <ele>445.42</ele>
        <time>2019-09-08T10:13:24Z</time>
      </trkpt>
      <trkpt lat="43.024" lon="0.60432">
        <ele>445.4</ele>
        <time>2019-09-08T10:13:25Z</time>
      </trkpt>
      <trkpt lat="43.02391" lon="0.60401">
        <ele>445.11</ele>
        <time>2019-09-08T10:13:43Z</time>
      </trkpt>
      <trkpt lat="43.02391" lon="0.60372">
        <ele>445.02</ele>
        <time>2019-09-08T10:14:00Z</time>
      </trkpt>
      <trkpt lat="43.02391" lon="0.6037">
        <ele>444.96</ele>
        <time>2019-09-08T10:14:01Z</time>
      </trkpt>
      <trkpt lat="43.0239" lon="0.6035">
        <ele>445.25</ele>
        <time>2019-09-08T10:14:14Z</time>
      </trkpt>
      <trkpt lat="43.02388" lon="0.60331">
        <ele>445.24</ele>
        <time>2019-09-08T10:14:25Z</time>
      </trkpt>
      <trkpt lat="43.02388" lon="0.60329">
        <ele>445.09</ele>
        <time>2019-09-08T10:14:26Z</time>
      </trkpt>
      <trkpt lat="43.02388" lon="0.60327">
        <ele>444.99</ele>
        <time>2019-09-08T10:14:27Z</time>
      </trkpt>
      <trkpt lat="43.02387" lon="0.60325">
        <ele>444.95</ele>
        <time>2019-09-08T10:14:28Z</time>
      </trkpt>
      <trkpt lat="43.02387" lon="0.60324">
        <ele>444.82</ele>
        <time>2019-09-08T10:14:29Z</time>
      </trkpt>
      <trkpt lat="43.02387" lon="0.60322">
        <ele>444.67</ele>
        <time>2019-09-08T10:14:30Z</time>
      </trkpt>
      <trkpt lat="43.02387" lon="0.6032">
        <ele>444.58</ele>
        <time>2019-09-08T10:14:31Z</time>
      </trkpt>
      <trkpt lat="43.02387" lon="0.60318">
        <ele>444.64</ele>
        <time>2019-09-08T10:14:32Z</time>
      </trkpt>
      <trkpt lat="43.02391" lon="0.60287">
        <ele>445.03</ele>
        <time>2019-09-08T10:14:49Z</time>
      </trkpt>
      <trkpt lat="43.02401" lon="0.60263">
        <ele>444.68</ele>
        <time>2019-09-08T10:15:04Z</time>
      </trkpt>
      <trkpt lat="43.0241" lon="0.60236">
        <ele>444.57</ele>
        <time>2019-09-08T10:15:21Z</time>
      </trkpt>
      <trkpt lat="43.02417" lon="0.60216">
        <ele>444.68</ele>
        <time>2019-09-08T10:15:35Z</time>
      </trkpt>
      <trkpt lat="43.02428" lon="0.60188">
        <ele>444.38</ele>
        <time>2019-09-08T10:15:53Z</time>
      </trkpt>
      <trkpt lat="43.02432" lon="0.60177">
        <ele>444.15</ele>
        <time>2019-09-08T10:16:01Z</time>
      </trkpt>
      <trkpt lat="43.0244" lon="0.6016">
        <ele>443.58</ele>
        <time>2019-09-08T10:16:14Z</time>
      </trkpt>
      <trkpt lat="43.02447" lon="0.60146">
        <ele>443.78</ele>
        <time>2019-09-08T10:16:24Z</time>
      </trkpt>
      <trkpt lat="43.02457" lon="0.60126">
        <ele>443.89</ele>
        <time>2019-09-08T10:16:39Z</time>
      </trkpt>
      <trkpt lat="43.02466" lon="0.60097">
        <ele>443.8</ele>
        <time>2019-09-08T10:16:54Z</time>
      </trkpt>
      <trkpt lat="43.02478" lon="0.60058">
        <ele>443.56</ele>
        <time>2019-09-08T10:17:17Z</time>
      </trkpt>
      <trkpt lat="43.02479" lon="0.60052">
        <ele>443.44</ele>
        <time>2019-09-08T10:17:22Z</time>
      </trkpt>
      <trkpt lat="43.02491" lon="0.60021">
        <ele>443.31</ele>
        <time>2019-09-08T10:17:41Z</time>
      </trkpt>
      <trkpt lat="43.02502" lon="0.59989">
        <ele>443.15</ele>
        <time>2019-09-08T10:18:00Z</time>
      </trkpt>
      <trkpt lat="43.02512" lon="0.59958">
        <ele>442.93</ele>
        <time>2019-09-08T10:18:19Z</time>
      </trkpt>
      <trkpt lat="43.02522" lon="0.5993">
        <ele>442.78</ele>
        <time>2019-09-08T10:18:37Z</time>
      </trkpt>
      <trkpt lat="43.02523" lon="0.59899">
        <ele>442.77</ele>
        <time>2019-09-08T10:18:55Z</time>
      </trkpt>
      <trkpt lat="43.02528" lon="0.59899">
        <ele>442.8</ele>
        <time>2019-09-08T10:19:11Z</time>
      </trkpt>
      <trkpt lat="43.02522" lon="0.59898">
        <ele>442.58</ele>
        <time>2019-09-08T10:19:49Z</time>
      </trkpt>
      <trkpt lat="43.02523" lon="0.59893">
        <ele>442.62</ele>
        <time>2019-09-08T10:19:53Z</time>
      </trkpt>
      <trkpt lat="43.02526" lon="0.59863">
        <ele>442.62</ele>
        <time>2019-09-08T10:20:13Z</time>
      </trkpt>
      <trkpt lat="43.0253" lon="0.59832">
        <ele>442.5</ele>
        <time>2019-09-08T10:20:30Z</time>
      </trkpt>
      <trkpt lat="43.02537" lon="0.598">
        <ele>443.12</ele>
        <time>2019-09-08T10:20:50Z</time>
      </trkpt>
      <trkpt lat="43.02545" lon="0.59761">
        <ele>443.22</ele>
        <time>2019-09-08T10:21:14Z</time>
      </trkpt>
      <trkpt lat="43.02553" lon="0.59723">
        <ele>443.87</ele>
        <time>2019-09-08T10:21:37Z</time>
      </trkpt>
      <trkpt lat="43.02562" lon="0.59681">
        <ele>446.02</ele>
        <time>2019-09-08T10:22:04Z</time>
      </trkpt>
      <trkpt lat="43.02568" lon="0.59648">
        <ele>448.89</ele>
        <time>2019-09-08T10:22:27Z</time>
      </trkpt>
      <trkpt lat="43.02569" lon="0.59645">
        <ele>449.55</ele>
        <time>2019-09-08T10:22:29Z</time>
      </trkpt>
      <trkpt lat="43.02575" lon="0.59619">
        <ele>452.52</ele>
        <time>2019-09-08T10:22:49Z</time>
      </trkpt>
      <trkpt lat="43.02574" lon="0.59617">
        <ele>453.91</ele>
        <time>2019-09-08T10:23:03Z</time>
      </trkpt>
      <trkpt lat="43.02575" lon="0.59617">
        <ele>453.89</ele>
        <time>2019-09-08T10:23:54Z</time>
      </trkpt>
      <trkpt lat="43.02583" lon="0.59608">
        <ele>453.73</ele>
        <time>2019-09-08T10:24:11Z</time>
      </trkpt>
      <trkpt lat="43.02604" lon="0.59612">
        <ele>456.58</ele>
        <time>2019-09-08T10:24:28Z</time>
      </trkpt>
      <trkpt lat="43.02632" lon="0.5962">
        <ele>456.78</ele>
        <time>2019-09-08T10:24:50Z</time>
      </trkpt>
      <trkpt lat="43.02661" lon="0.59625">
        <ele>456.91</ele>
        <time>2019-09-08T10:25:13Z</time>
      </trkpt>
      <trkpt lat="43.02692" lon="0.59631">
        <ele>456.75</ele>
        <time>2019-09-08T10:25:37Z</time>
      </trkpt>
      <trkpt lat="43.02728" lon="0.59633">
        <ele>457.04</ele>
        <time>2019-09-08T10:26:05Z</time>
      </trkpt>
      <trkpt lat="43.02771" lon="0.5963">
        <ele>457.01</ele>
        <time>2019-09-08T10:26:38Z</time>
      </trkpt>
      <trkpt lat="43.02802" lon="0.59628">
        <ele>456.71</ele>
        <time>2019-09-08T10:27:02Z</time>
      </trkpt>
      <trkpt lat="43.02837" lon="0.59631">
        <ele>457.04</ele>
        <time>2019-09-08T10:27:29Z</time>
      </trkpt>
      <trkpt lat="43.02874" lon="0.59636">
        <ele>456.2</ele>
        <time>2019-09-08T10:27:58Z</time>
      </trkpt>
      <trkpt lat="43.02895" lon="0.5962">
        <ele>456.06</ele>
        <time>2019-09-08T10:28:19Z</time>
      </trkpt>
      <trkpt lat="43.02904" lon="0.5959">
        <ele>456.26</ele>
        <time>2019-09-08T10:28:37Z</time>
      </trkpt>
      <trkpt lat="43.02921" lon="0.59556">
        <ele>455.83</ele>
        <time>2019-09-08T10:29:01Z</time>
      </trkpt>
      <trkpt lat="43.02939" lon="0.5953">
        <ele>455.36</ele>
        <time>2019-09-08T10:29:22Z</time>
      </trkpt>
      <trkpt lat="43.02955" lon="0.59516">
        <ele>455.27</ele>
        <time>2019-09-08T10:29:37Z</time>
      </trkpt>
      <trkpt lat="43.02971" lon="0.59516">
        <ele>455.69</ele>
        <time>2019-09-08T10:29:50Z</time>
      </trkpt>
      <trkpt lat="43.02976" lon="0.59515">
        <ele>456</ele>
        <time>2019-09-08T10:29:53Z</time>
      </trkpt>
      <trkpt lat="43.03" lon="0.59512">
        <ele>456.79</ele>
        <time>2019-09-08T10:30:12Z</time>
      </trkpt>
      <trkpt lat="43.03027" lon="0.59503">
        <ele>458.56</ele>
        <time>2019-09-08T10:30:33Z</time>
      </trkpt>
      <trkpt lat="43.03037" lon="0.59492">
        <ele>459.12</ele>
        <time>2019-09-08T10:30:47Z</time>
      </trkpt>
      <trkpt lat="43.03036" lon="0.59492">
        <ele>459.12</ele>
        <time>2019-09-08T10:30:48Z</time>
      </trkpt>
      <trkpt lat="43.03035" lon="0.59492">
        <ele>459.12</ele>
        <time>2019-09-08T10:30:49Z</time>
      </trkpt>
      <trkpt lat="43.03001" lon="0.59495">
        <ele>461.38</ele>
        <time>2019-09-08T10:31:15Z</time>
      </trkpt>
      <trkpt lat="43.02967" lon="0.59487">
        <ele>463.74</ele>
        <time>2019-09-08T10:31:44Z</time>
      </trkpt>
      <trkpt lat="43.02952" lon="0.5946">
        <ele>464.67</ele>
        <time>2019-09-08T10:32:05Z</time>
      </trkpt>
      <trkpt lat="43.0294" lon="0.59421">
        <ele>466.04</ele>
        <time>2019-09-08T10:32:30Z</time>
      </trkpt>
      <trkpt lat="43.02926" lon="0.59386">
        <ele>467.01</ele>
        <time>2019-09-08T10:32:52Z</time>
      </trkpt>
      <trkpt lat="43.02913" lon="0.59358">
        <ele>467.25</ele>
        <time>2019-09-08T10:33:11Z</time>
      </trkpt>
      <trkpt lat="43.02892" lon="0.59325">
        <ele>467.97</ele>
        <time>2019-09-08T10:33:36Z</time>
      </trkpt>
      <trkpt lat="43.02866" lon="0.59289">
        <ele>468.16</ele>
        <time>2019-09-08T10:34:04Z</time>
      </trkpt>
      <trkpt lat="43.02844" lon="0.59257">
        <ele>467.55</ele>
        <time>2019-09-08T10:34:28Z</time>
      </trkpt>
      <trkpt lat="43.0282" lon="0.59226">
        <ele>466.51</ele>
        <time>2019-09-08T10:34:54Z</time>
      </trkpt>
      <trkpt lat="43.02791" lon="0.59188">
        <ele>465.04</ele>
        <time>2019-09-08T10:35:25Z</time>
      </trkpt>
      <trkpt lat="43.02787" lon="0.59181">
        <ele>464.7</ele>
        <time>2019-09-08T10:35:30Z</time>
      </trkpt>
      <trkpt lat="43.02787" lon="0.59179">
        <ele>464.64</ele>
        <time>2019-09-08T10:35:31Z</time>
      </trkpt>
      <trkpt lat="43.02787" lon="0.59177">
        <ele>464.59</ele>
        <time>2019-09-08T10:35:32Z</time>
      </trkpt>
      <trkpt lat="43.02786" lon="0.59175">
        <ele>464.53</ele>
        <time>2019-09-08T10:35:33Z</time>
      </trkpt>
      <trkpt lat="43.02786" lon="0.59173">
        <ele>464.48</ele>
        <time>2019-09-08T10:35:34Z</time>
      </trkpt>
      <trkpt lat="43.02785" lon="0.59171">
        <ele>464.44</ele>
        <time>2019-09-08T10:35:35Z</time>
      </trkpt>
      <trkpt lat="43.02784" lon="0.5917">
        <ele>464.42</ele>
        <time>2019-09-08T10:35:36Z</time>
      </trkpt>
      <trkpt lat="43.02783" lon="0.59168">
        <ele>464.41</ele>
        <time>2019-09-08T10:35:37Z</time>
      </trkpt>
      <trkpt lat="43.02764" lon="0.59147">
        <ele>464.18</ele>
        <time>2019-09-08T10:35:57Z</time>
      </trkpt>
      <trkpt lat="43.02762" lon="0.59122">
        <ele>462.6</ele>
        <time>2019-09-08T10:36:13Z</time>
      </trkpt>
      <trkpt lat="43.02768" lon="0.59093">
        <ele>461.52</ele>
        <time>2019-09-08T10:36:31Z</time>
      </trkpt>
      <trkpt lat="43.02772" lon="0.59078">
        <ele>461.32</ele>
        <time>2019-09-08T10:36:48Z</time>
      </trkpt>
      <trkpt lat="43.02781" lon="0.59049">
        <ele>461.14</ele>
        <time>2019-09-08T10:37:07Z</time>
      </trkpt>
      <trkpt lat="43.02793" lon="0.59016">
        <ele>461.29</ele>
        <time>2019-09-08T10:37:26Z</time>
      </trkpt>
      <trkpt lat="43.02805" lon="0.58989">
        <ele>461.5</ele>
        <time>2019-09-08T10:37:45Z</time>
      </trkpt>
      <trkpt lat="43.02821" lon="0.58953">
        <ele>461.8</ele>
        <time>2019-09-08T10:38:08Z</time>
      </trkpt>
      <trkpt lat="43.02837" lon="0.58917">
        <ele>462.51</ele>
        <time>2019-09-08T10:38:31Z</time>
      </trkpt>
      <trkpt lat="43.02848" lon="0.58889">
        <ele>463.07</ele>
        <time>2019-09-08T10:38:50Z</time>
      </trkpt>
      <trkpt lat="43.02853" lon="0.58863">
        <ele>463.87</ele>
        <time>2019-09-08T10:39:06Z</time>
      </trkpt>
      <trkpt lat="43.0286" lon="0.5883">
        <ele>465.06</ele>
        <time>2019-09-08T10:39:25Z</time>
      </trkpt>
      <trkpt lat="43.02857" lon="0.58814">
        <ele>466.01</ele>
        <time>2019-09-08T10:39:40Z</time>
      </trkpt>
      <trkpt lat="43.02855" lon="0.58814">
        <ele>466.39</ele>
        <time>2019-09-08T10:40:03Z</time>
      </trkpt>
      <trkpt lat="43.02857" lon="0.58814">
        <ele>466.39</ele>
        <time>2019-09-08T10:40:19Z</time>
      </trkpt>
      <trkpt lat="43.02857" lon="0.58811">
        <ele>466.18</ele>
        <time>2019-09-08T10:40:38Z</time>
      </trkpt>
      <trkpt lat="43.02856" lon="0.58813">
        <ele>466.56</ele>
        <time>2019-09-08T10:41:07Z</time>
      </trkpt>
      <trkpt lat="43.02855" lon="0.58813">
        <ele>466.56</ele>
        <time>2019-09-08T10:41:32Z</time>
      </trkpt>
      <trkpt lat="43.02855" lon="0.58813">
        <ele>466.56</ele>
        <time>2019-09-08T10:42:03Z</time>
      </trkpt>
      <trkpt lat="43.02855" lon="0.58814">
        <ele>466.56</ele>
        <time>2019-09-08T10:42:28Z</time>
      </trkpt>
      <trkpt lat="43.02856" lon="0.58808">
        <ele>466.56</ele>
        <time>2019-09-08T10:42:47Z</time>
      </trkpt>
      <trkpt lat="43.02856" lon="0.58815">
        <ele>466.56</ele>
        <time>2019-09-08T10:43:05Z</time>
      </trkpt>
      <trkpt lat="43.02857" lon="0.58817">
        <ele>466.56</ele>
        <time>2019-09-08T10:43:34Z</time>
      </trkpt>
      <trkpt lat="43.02858" lon="0.58817">
        <ele>466.56</ele>
        <time>2019-09-08T10:43:36Z</time>
      </trkpt>
      <trkpt lat="43.02858" lon="0.58819">
        <ele>465.11</ele>
        <time>2019-09-08T10:43:48Z</time>
      </trkpt>
      <trkpt lat="43.02857" lon="0.58821">
        <ele>465.19</ele>
        <time>2019-09-08T10:44:22Z</time>
      </trkpt>
      <trkpt lat="43.02855" lon="0.58817">
        <ele>464.84</ele>
        <time>2019-09-08T10:44:54Z</time>
      </trkpt>
      <trkpt lat="43.02857" lon="0.58817">
        <ele>464.84</ele>
        <time>2019-09-08T10:45:22Z</time>
      </trkpt>
      <trkpt lat="43.02853" lon="0.5882">
        <ele>464.84</ele>
        <time>2019-09-08T10:46:03Z</time>
      </trkpt>
      <trkpt lat="43.02852" lon="0.58824">
        <ele>464.84</ele>
        <time>2019-09-08T10:46:12Z</time>
      </trkpt>
      <trkpt lat="43.02858" lon="0.5884">
        <ele>465.53</ele>
        <time>2019-09-08T10:46:38Z</time>
      </trkpt>
      <trkpt lat="43.02855" lon="0.58838">
        <ele>465.39</ele>
        <time>2019-09-08T10:47:03Z</time>
      </trkpt>
      <trkpt lat="43.02855" lon="0.58841">
        <ele>464.97</ele>
        <time>2019-09-08T10:47:30Z</time>
      </trkpt>
      <trkpt lat="43.02853" lon="0.5884">
        <ele>465.29</ele>
        <time>2019-09-08T10:47:58Z</time>
      </trkpt>
      <trkpt lat="43.02851" lon="0.58838">
        <ele>465.29</ele>
        <time>2019-09-08T10:48:25Z</time>
      </trkpt>
      <trkpt lat="43.02848" lon="0.58827">
        <ele>465.29</ele>
        <time>2019-09-08T10:48:54Z</time>
      </trkpt>
      <trkpt lat="43.02851" lon="0.58822">
        <ele>465.29</ele>
        <time>2019-09-08T10:49:21Z</time>
      </trkpt>
      <trkpt lat="43.02854" lon="0.58811">
        <ele>465.29</ele>
        <time>2019-09-08T10:49:46Z</time>
      </trkpt>
      <trkpt lat="43.02856" lon="0.58814">
        <ele>465.29</ele>
        <time>2019-09-08T10:50:16Z</time>
      </trkpt>
      <trkpt lat="43.02854" lon="0.58816">
        <ele>465.29</ele>
        <time>2019-09-08T10:50:51Z</time>
      </trkpt>
      <trkpt lat="43.02855" lon="0.58819">
        <ele>465.29</ele>
        <time>2019-09-08T10:51:09Z</time>
      </trkpt>
      <trkpt lat="43.02857" lon="0.58819">
        <ele>465.29</ele>
        <time>2019-09-08T10:51:44Z</time>
      </trkpt>
      <trkpt lat="43.02855" lon="0.58816">
        <ele>465.29</ele>
        <time>2019-09-08T10:52:14Z</time>
      </trkpt>
      <trkpt lat="43.02855" lon="0.58816">
        <ele>465.29</ele>
        <time>2019-09-08T10:52:37Z</time>
      </trkpt>
      <trkpt lat="43.02854" lon="0.58813">
        <ele>465.29</ele>
        <time>2019-09-08T10:53:13Z</time>
      </trkpt>
      <trkpt lat="43.02856" lon="0.58809">
        <ele>465.06</ele>
        <time>2019-09-08T10:53:27Z</time>
      </trkpt>
      <trkpt lat="43.02857" lon="0.58808">
        <ele>464.85</ele>
        <time>2019-09-08T10:53:50Z</time>
      </trkpt>
      <trkpt lat="43.02853" lon="0.58806">
        <ele>465.12</ele>
        <time>2019-09-08T10:54:08Z</time>
      </trkpt>
      <trkpt lat="43.02854" lon="0.58805">
        <ele>465.11</ele>
        <time>2019-09-08T10:54:42Z</time>
      </trkpt>
      <trkpt lat="43.02857" lon="0.58814">
        <ele>464.64</ele>
        <time>2019-09-08T10:55:05Z</time>
      </trkpt>
      <trkpt lat="43.02856" lon="0.58815">
        <ele>464.53</ele>
        <time>2019-09-08T10:55:30Z</time>
      </trkpt>
      <trkpt lat="43.0285" lon="0.58812">
        <ele>464.53</ele>
        <time>2019-09-08T10:56:04Z</time>
      </trkpt>
      <trkpt lat="43.02852" lon="0.58812">
        <ele>464.53</ele>
        <time>2019-09-08T10:56:34Z</time>
      </trkpt>
      <trkpt lat="43.02852" lon="0.58812">
        <ele>464.53</ele>
        <time>2019-09-08T10:57:07Z</time>
      </trkpt>
      <trkpt lat="43.02852" lon="0.58811">
        <ele>468.82</ele>
        <time>2019-09-08T10:57:24Z</time>
      </trkpt>
      <trkpt lat="43.02852" lon="0.58812">
        <ele>468.3</ele>
        <time>2019-09-08T10:57:25Z</time>
      </trkpt>
      <trkpt lat="43.02853" lon="0.58813">
        <ele>465.2</ele>
        <time>2019-09-08T10:57:33Z</time>
      </trkpt>
      <trkpt lat="43.02856" lon="0.58813">
        <ele>464.24</ele>
        <time>2019-09-08T10:58:11Z</time>
      </trkpt>
      <trkpt lat="43.02855" lon="0.58808">
        <ele>464.67</ele>
        <time>2019-09-08T10:58:34Z</time>
      </trkpt>
      <trkpt lat="43.02857" lon="0.58806">
        <ele>465.62</ele>
        <time>2019-09-08T10:58:52Z</time>
      </trkpt>
      <trkpt lat="43.0286" lon="0.58806">
        <ele>462.52</ele>
        <time>2019-09-08T10:59:01Z</time>
      </trkpt>
      <trkpt lat="43.0286" lon="0.58806">
        <ele>459.4</ele>
        <time>2019-09-08T10:59:03Z</time>
      </trkpt>
      <trkpt lat="43.02859" lon="0.58807">
        <ele>462.79</ele>
        <time>2019-09-08T10:59:11Z</time>
      </trkpt>
      <trkpt lat="43.02859" lon="0.58807">
        <ele>463.58</ele>
        <time>2019-09-08T10:59:13Z</time>
      </trkpt>
      <trkpt lat="43.0286" lon="0.58807">
        <ele>466.93</ele>
        <time>2019-09-08T10:59:27Z</time>
      </trkpt>
      <trkpt lat="43.0286" lon="0.58806">
        <ele>466.93</ele>
        <time>2019-09-08T10:59:28Z</time>
      </trkpt>
      <trkpt lat="43.0286" lon="0.58806">
        <ele>470.15</ele>
        <time>2019-09-08T10:59:31Z</time>
      </trkpt>
      <trkpt lat="43.02861" lon="0.58806">
        <ele>466.93</ele>
        <time>2019-09-08T10:59:37Z</time>
      </trkpt>
      <trkpt lat="43.0286" lon="0.58812">
        <ele>465</ele>
        <time>2019-09-08T10:59:47Z</time>
      </trkpt>
      <trkpt lat="43.02859" lon="0.5881">
        <ele>464.88</ele>
        <time>2019-09-08T10:59:58Z</time>
      </trkpt>
      <trkpt lat="43.0286" lon="0.58807">
        <ele>465.16</ele>
        <time>2019-09-08T11:00:12Z</time>
      </trkpt>
      <trkpt lat="43.02859" lon="0.5881">
        <ele>465.06</ele>
        <time>2019-09-08T11:00:24Z</time>
      </trkpt>
      <trkpt lat="43.02859" lon="0.58814">
        <ele>464.48</ele>
        <time>2019-09-08T11:00:42Z</time>
      </trkpt>
      <trkpt lat="43.02858" lon="0.58817">
        <ele>464.64</ele>
        <time>2019-09-08T11:01:11Z</time>
      </trkpt>
      <trkpt lat="43.02856" lon="0.58815">
        <ele>464.72</ele>
        <time>2019-09-08T11:01:39Z</time>
      </trkpt>
      <trkpt lat="43.02856" lon="0.58814">
        <ele>464.85</ele>
        <time>2019-09-08T11:02:08Z</time>
      </trkpt>
      <trkpt lat="43.02856" lon="0.58816">
        <ele>464.78</ele>
        <time>2019-09-08T11:02:40Z</time>
      </trkpt>
      <trkpt lat="43.02854" lon="0.58814">
        <ele>464.78</ele>
        <time>2019-09-08T11:03:09Z</time>
      </trkpt>
      <trkpt lat="43.02855" lon="0.58815">
        <ele>464.78</ele>
        <time>2019-09-08T11:03:47Z</time>
      </trkpt>
      <trkpt lat="43.0285" lon="0.58813">
        <ele>464.78</ele>
        <time>2019-09-08T11:04:17Z</time>
      </trkpt>
      <trkpt lat="43.02854" lon="0.58817">
        <ele>464.78</ele>
        <time>2019-09-08T11:04:47Z</time>
      </trkpt>
      <trkpt lat="43.02856" lon="0.58816">
        <ele>464.78</ele>
        <time>2019-09-08T11:05:19Z</time>
      </trkpt>
      <trkpt lat="43.02857" lon="0.58814">
        <ele>464.78</ele>
        <time>2019-09-08T11:05:50Z</time>
      </trkpt>
      <trkpt lat="43.02858" lon="0.58813">
        <ele>464.78</ele>
        <time>2019-09-08T11:06:20Z</time>
      </trkpt>
      <trkpt lat="43.02857" lon="0.58819">
        <ele>464.78</ele>
        <time>2019-09-08T11:06:47Z</time>
      </trkpt>
      <trkpt lat="43.02855" lon="0.58819">
        <ele>464.78</ele>
        <time>2019-09-08T11:07:14Z</time>
      </trkpt>
      <trkpt lat="43.02853" lon="0.58819">
        <ele>464.78</ele>
        <time>2019-09-08T11:07:41Z</time>
      </trkpt>
      <trkpt lat="43.02853" lon="0.58819">
        <ele>464.78</ele>
        <time>2019-09-08T11:08:08Z</time>
      </trkpt>
      <trkpt lat="43.02855" lon="0.58815">
        <ele>464.78</ele>
        <time>2019-09-08T11:08:41Z</time>
      </trkpt>
      <trkpt lat="43.02855" lon="0.58817">
        <ele>464.78</ele>
        <time>2019-09-08T11:09:09Z</time>
      </trkpt>
      <trkpt lat="43.02852" lon="0.5882">
        <ele>464.78</ele>
        <time>2019-09-08T11:09:35Z</time>
      </trkpt>
      <trkpt lat="43.02854" lon="0.58821">
        <ele>464.78</ele>
        <time>2019-09-08T11:10:07Z</time>
      </trkpt>
      <trkpt lat="43.0286" lon="0.5882">
        <ele>464.78</ele>
        <time>2019-09-08T11:10:39Z</time>
      </trkpt>
      <trkpt lat="43.02857" lon="0.5882">
        <ele>464.78</ele>
        <time>2019-09-08T11:11:10Z</time>
      </trkpt>
      <trkpt lat="43.02861" lon="0.58818">
        <ele>464.78</ele>
        <time>2019-09-08T11:11:42Z</time>
      </trkpt>
      <trkpt lat="43.0286" lon="0.58817">
        <ele>464.78</ele>
        <time>2019-09-08T11:11:47Z</time>
      </trkpt>
      <trkpt lat="43.02857" lon="0.58819">
        <ele>464.78</ele>
        <time>2019-09-08T11:12:18Z</time>
      </trkpt>
      <trkpt lat="43.02858" lon="0.58819">
        <ele>464.78</ele>
        <time>2019-09-08T11:12:50Z</time>
      </trkpt>
      <trkpt lat="43.02858" lon="0.58822">
        <ele>464.78</ele>
        <time>2019-09-08T11:13:16Z</time>
      </trkpt>
      <trkpt lat="43.02855" lon="0.5882">
        <ele>464.78</ele>
        <time>2019-09-08T11:13:39Z</time>
      </trkpt>
      <trkpt lat="43.02854" lon="0.58821">
        <ele>464.78</ele>
        <time>2019-09-08T11:14:06Z</time>
      </trkpt>
      <trkpt lat="43.0286" lon="0.58821">
        <ele>464.78</ele>
        <time>2019-09-08T11:14:30Z</time>
      </trkpt>
      <trkpt lat="43.02854" lon="0.58816">
        <ele>464.49</ele>
        <time>2019-09-08T11:14:53Z</time>
      </trkpt>
      <trkpt lat="43.02856" lon="0.58818">
        <ele>464.32</ele>
        <time>2019-09-08T11:15:23Z</time>
      </trkpt>
      <trkpt lat="43.02855" lon="0.58817">
        <ele>464.4</ele>
        <time>2019-09-08T11:15:51Z</time>
      </trkpt>
      <trkpt lat="43.02855" lon="0.58816">
        <ele>464.4</ele>
        <time>2019-09-08T11:16:17Z</time>
      </trkpt>
      <trkpt lat="43.02857" lon="0.58816">
        <ele>464.4</ele>
        <time>2019-09-08T11:16:53Z</time>
      </trkpt>
      <trkpt lat="43.02852" lon="0.58816">
        <ele>465</ele>
        <time>2019-09-08T11:17:40Z</time>
      </trkpt>
      <trkpt lat="43.02853" lon="0.58813">
        <ele>464.61</ele>
        <time>2019-09-08T11:18:08Z</time>
      </trkpt>
      <trkpt lat="43.02855" lon="0.58812">
        <ele>464.36</ele>
        <time>2019-09-08T11:19:07Z</time>
      </trkpt>
      <trkpt lat="43.02852" lon="0.58817">
        <ele>464.36</ele>
        <time>2019-09-08T11:19:37Z</time>
      </trkpt>
      <trkpt lat="43.02854" lon="0.58814">
        <ele>464.36</ele>
        <time>2019-09-08T11:20:16Z</time>
      </trkpt>
      <trkpt lat="43.02852" lon="0.58812">
        <ele>464.36</ele>
        <time>2019-09-08T11:20:37Z</time>
      </trkpt>
      <trkpt lat="43.02857" lon="0.58813">
        <ele>465.03</ele>
        <time>2019-09-08T11:20:59Z</time>
      </trkpt>
      <trkpt lat="43.02857" lon="0.58814">
        <ele>464.91</ele>
        <time>2019-09-08T11:21:26Z</time>
      </trkpt>
      <trkpt lat="43.02857" lon="0.58813">
        <ele>464.9</ele>
        <time>2019-09-08T11:21:51Z</time>
      </trkpt>
      <trkpt lat="43.02859" lon="0.58811">
        <ele>464.94</ele>
        <time>2019-09-08T11:22:23Z</time>
      </trkpt>
      <trkpt lat="43.02857" lon="0.58814">
        <ele>464.94</ele>
        <time>2019-09-08T11:22:52Z</time>
      </trkpt>
      <trkpt lat="43.02857" lon="0.58815">
        <ele>464.94</ele>
        <time>2019-09-08T11:24:40Z</time>
      </trkpt>
      <trkpt lat="43.02856" lon="0.58816">
        <ele>464.94</ele>
        <time>2019-09-08T11:27:32Z</time>
      </trkpt>
      <trkpt lat="43.0286" lon="0.58814">
        <ele>464.94</ele>
        <time>2019-09-08T11:27:57Z</time>
      </trkpt>
      <trkpt lat="43.02861" lon="0.58813">
        <ele>464.94</ele>
        <time>2019-09-08T11:27:58Z</time>
      </trkpt>
      <trkpt lat="43.02862" lon="0.58812">
        <ele>464.94</ele>
        <time>2019-09-08T11:27:59Z</time>
      </trkpt>
      <trkpt lat="43.02863" lon="0.58811">
        <ele>464.94</ele>
        <time>2019-09-08T11:28:00Z</time>
      </trkpt>
      <trkpt lat="43.02864" lon="0.58811">
        <ele>464.95</ele>
        <time>2019-09-08T11:28:01Z</time>
      </trkpt>
      <trkpt lat="43.02867" lon="0.58806">
        <ele>464.99</ele>
        <time>2019-09-08T11:28:05Z</time>
      </trkpt>
      <trkpt lat="43.0287" lon="0.58789">
        <ele>465.3</ele>
        <time>2019-09-08T11:28:16Z</time>
      </trkpt>
      <trkpt lat="43.02877" lon="0.58754">
        <ele>464.33</ele>
        <time>2019-09-08T11:28:36Z</time>
      </trkpt>
      <trkpt lat="43.02883" lon="0.58716">
        <ele>462.88</ele>
        <time>2019-09-08T11:28:57Z</time>
      </trkpt>
      <trkpt lat="43.02889" lon="0.58682">
        <ele>461.35</ele>
        <time>2019-09-08T11:29:18Z</time>
      </trkpt>
      <trkpt lat="43.02895" lon="0.58655">
        <ele>460.61</ele>
        <time>2019-09-08T11:29:35Z</time>
      </trkpt>
      <trkpt lat="43.029" lon="0.58621">
        <ele>460.41</ele>
        <time>2019-09-08T11:29:54Z</time>
      </trkpt>
      <trkpt lat="43.029" lon="0.58609">
        <ele>460.57</ele>
        <time>2019-09-08T11:30:12Z</time>
      </trkpt>
      <trkpt lat="43.02907" lon="0.5858">
        <ele>460.04</ele>
        <time>2019-09-08T11:30:30Z</time>
      </trkpt>
      <trkpt lat="43.02913" lon="0.58547">
        <ele>460.18</ele>
        <time>2019-09-08T11:30:50Z</time>
      </trkpt>
      <trkpt lat="43.02918" lon="0.5851">
        <ele>459.97</ele>
        <time>2019-09-08T11:31:10Z</time>
      </trkpt>
      <trkpt lat="43.02922" lon="0.58479">
        <ele>459.53</ele>
        <time>2019-09-08T11:31:28Z</time>
      </trkpt>
      <trkpt lat="43.02917" lon="0.5846">
        <ele>459.46</ele>
        <time>2019-09-08T11:31:42Z</time>
      </trkpt>
      <trkpt lat="43.02908" lon="0.58459">
        <ele>460.23</ele>
        <time>2019-09-08T11:31:50Z</time>
      </trkpt>
      <trkpt lat="43.02906" lon="0.58459">
        <ele>460.33</ele>
        <time>2019-09-08T11:31:51Z</time>
      </trkpt>
      <trkpt lat="43.02905" lon="0.58459">
        <ele>460.41</ele>
        <time>2019-09-08T11:31:52Z</time>
      </trkpt>
      <trkpt lat="43.02903" lon="0.58459">
        <ele>460.46</ele>
        <time>2019-09-08T11:31:53Z</time>
      </trkpt>
      <trkpt lat="43.02902" lon="0.58459">
        <ele>460.5</ele>
        <time>2019-09-08T11:31:54Z</time>
      </trkpt>
      <trkpt lat="43.02887" lon="0.58463">
        <ele>460.8</ele>
        <time>2019-09-08T11:32:09Z</time>
      </trkpt>
      <trkpt lat="43.02889" lon="0.58461">
        <ele>461.02</ele>
        <time>2019-09-08T11:32:24Z</time>
      </trkpt>
      <trkpt lat="43.02897" lon="0.58457">
        <ele>460.06</ele>
        <time>2019-09-08T11:32:40Z</time>
      </trkpt>
      <trkpt lat="43.02902" lon="0.58458">
        <ele>460.05</ele>
        <time>2019-09-08T11:32:45Z</time>
      </trkpt>
      <trkpt lat="43.02908" lon="0.58456">
        <ele>459.76</ele>
        <time>2019-09-08T11:33:01Z</time>
      </trkpt>
      <trkpt lat="43.02907" lon="0.58456">
        <ele>460.14</ele>
        <time>2019-09-08T11:33:02Z</time>
      </trkpt>
      <trkpt lat="43.02906" lon="0.58456">
        <ele>460.72</ele>
        <time>2019-09-08T11:33:03Z</time>
      </trkpt>
      <trkpt lat="43.02895" lon="0.58454">
        <ele>460.83</ele>
        <time>2019-09-08T11:33:13Z</time>
      </trkpt>
      <trkpt lat="43.02891" lon="0.58453">
        <ele>460.83</ele>
        <time>2019-09-08T11:33:16Z</time>
      </trkpt>
      <trkpt lat="43.0287" lon="0.58448">
        <ele>460.8</ele>
        <time>2019-09-08T11:33:34Z</time>
      </trkpt>
      <trkpt lat="43.02847" lon="0.58438">
        <ele>459.9</ele>
        <time>2019-09-08T11:33:53Z</time>
      </trkpt>
      <trkpt lat="43.02829" lon="0.58424">
        <ele>460.71</ele>
        <time>2019-09-08T11:34:10Z</time>
      </trkpt>
      <trkpt lat="43.02824" lon="0.58404">
        <ele>461.07</ele>
        <time>2019-09-08T11:34:23Z</time>
      </trkpt>
      <trkpt lat="43.02821" lon="0.58396">
        <ele>461.32</ele>
        <time>2019-09-08T11:34:28Z</time>
      </trkpt>
      <trkpt lat="43.02809" lon="0.58364">
        <ele>460.68</ele>
        <time>2019-09-08T11:34:47Z</time>
      </trkpt>
      <trkpt lat="43.02812" lon="0.58342">
        <ele>461.02</ele>
        <time>2019-09-08T11:35:02Z</time>
      </trkpt>
      <trkpt lat="43.02825" lon="0.58319">
        <ele>461.99</ele>
        <time>2019-09-08T11:35:20Z</time>
      </trkpt>
      <trkpt lat="43.02836" lon="0.58303">
        <ele>461.58</ele>
        <time>2019-09-08T11:35:34Z</time>
      </trkpt>
      <trkpt lat="43.0285" lon="0.58285">
        <ele>460.7</ele>
        <time>2019-09-08T11:35:50Z</time>
      </trkpt>
      <trkpt lat="43.02866" lon="0.58263">
        <ele>460.05</ele>
        <time>2019-09-08T11:36:07Z</time>
      </trkpt>
      <trkpt lat="43.02878" lon="0.58245">
        <ele>459.01</ele>
        <time>2019-09-08T11:36:20Z</time>
      </trkpt>
      <trkpt lat="43.02877" lon="0.58215">
        <ele>459.37</ele>
        <time>2019-09-08T11:36:37Z</time>
      </trkpt>
      <trkpt lat="43.02865" lon="0.58167">
        <ele>459.48</ele>
        <time>2019-09-08T11:37:02Z</time>
      </trkpt>
      <trkpt lat="43.02862" lon="0.58148">
        <ele>458.95</ele>
        <time>2019-09-08T11:37:16Z</time>
      </trkpt>
      <trkpt lat="43.02859" lon="0.58124">
        <ele>459.03</ele>
        <time>2019-09-08T11:37:31Z</time>
      </trkpt>
      <trkpt lat="43.02858" lon="0.58114">
        <ele>459.1</ele>
        <time>2019-09-08T11:37:36Z</time>
      </trkpt>
      <trkpt lat="43.02858" lon="0.58111">
        <ele>459.14</ele>
        <time>2019-09-08T11:37:37Z</time>
      </trkpt>
      <trkpt lat="43.02852" lon="0.58079">
        <ele>459.44</ele>
        <time>2019-09-08T11:37:56Z</time>
      </trkpt>
      <trkpt lat="43.02845" lon="0.58041">
        <ele>459.39</ele>
        <time>2019-09-08T11:38:18Z</time>
      </trkpt>
      <trkpt lat="43.02836" lon="0.58001">
        <ele>459.89</ele>
        <time>2019-09-08T11:38:41Z</time>
      </trkpt>
      <trkpt lat="43.02824" lon="0.57955">
        <ele>460.26</ele>
        <time>2019-09-08T11:39:08Z</time>
      </trkpt>
      <trkpt lat="43.02819" lon="0.57932">
        <ele>460.21</ele>
        <time>2019-09-08T11:39:24Z</time>
      </trkpt>
      <trkpt lat="43.02817" lon="0.57925">
        <ele>460.16</ele>
        <time>2019-09-08T11:39:28Z</time>
      </trkpt>
      <trkpt lat="43.02813" lon="0.57894">
        <ele>460.27</ele>
        <time>2019-09-08T11:39:45Z</time>
      </trkpt>
      <trkpt lat="43.02814" lon="0.57848">
        <ele>460.4</ele>
        <time>2019-09-08T11:40:09Z</time>
      </trkpt>
      <trkpt lat="43.02818" lon="0.57821">
        <ele>460.74</ele>
        <time>2019-09-08T11:40:27Z</time>
      </trkpt>
      <trkpt lat="43.02826" lon="0.57788">
        <ele>460.98</ele>
        <time>2019-09-08T11:40:45Z</time>
      </trkpt>
      <trkpt lat="43.02816" lon="0.57757">
        <ele>461.43</ele>
        <time>2019-09-08T11:41:04Z</time>
      </trkpt>
      <trkpt lat="43.02813" lon="0.57753">
        <ele>461.19</ele>
        <time>2019-09-08T11:41:14Z</time>
      </trkpt>
      <trkpt lat="43.0281" lon="0.57752">
        <ele>461.2</ele>
        <time>2019-09-08T11:41:16Z</time>
      </trkpt>
      <trkpt lat="43.02809" lon="0.57751">
        <ele>461.2</ele>
        <time>2019-09-08T11:41:17Z</time>
      </trkpt>
      <trkpt lat="43.02785" lon="0.57728">
        <ele>460.99</ele>
        <time>2019-09-08T11:41:39Z</time>
      </trkpt>
      <trkpt lat="43.02755" lon="0.57688">
        <ele>461.37</ele>
        <time>2019-09-08T11:42:11Z</time>
      </trkpt>
      <trkpt lat="43.02738" lon="0.57655">
        <ele>461.31</ele>
        <time>2019-09-08T11:42:33Z</time>
      </trkpt>
      <trkpt lat="43.02729" lon="0.57633">
        <ele>462.6</ele>
        <time>2019-09-08T11:42:54Z</time>
      </trkpt>
      <trkpt lat="43.02727" lon="0.57631">
        <ele>463.07</ele>
        <time>2019-09-08T11:43:18Z</time>
      </trkpt>
      <trkpt lat="43.0273" lon="0.57627">
        <ele>463.44</ele>
        <time>2019-09-08T11:43:41Z</time>
      </trkpt>
      <trkpt lat="43.02733" lon="0.57624">
        <ele>463.51</ele>
        <time>2019-09-08T11:43:45Z</time>
      </trkpt>
      <trkpt lat="43.02734" lon="0.57623">
        <ele>463.51</ele>
        <time>2019-09-08T11:43:46Z</time>
      </trkpt>
      <trkpt lat="43.02737" lon="0.57609">
        <ele>462.86</ele>
        <time>2019-09-08T11:44:01Z</time>
      </trkpt>
      <trkpt lat="43.02734" lon="0.57596">
        <ele>462.61</ele>
        <time>2019-09-08T11:44:08Z</time>
      </trkpt>
      <trkpt lat="43.02733" lon="0.57594">
        <ele>462.55</ele>
        <time>2019-09-08T11:44:09Z</time>
      </trkpt>
      <trkpt lat="43.02725" lon="0.57567">
        <ele>462.34</ele>
        <time>2019-09-08T11:44:25Z</time>
      </trkpt>
      <trkpt lat="43.02722" lon="0.57561">
        <ele>462.3</ele>
        <time>2019-09-08T11:44:29Z</time>
      </trkpt>
      <trkpt lat="43.02717" lon="0.57553">
        <ele>462.24</ele>
        <time>2019-09-08T11:44:35Z</time>
      </trkpt>
      <trkpt lat="43.02717" lon="0.57551">
        <ele>462.23</ele>
        <time>2019-09-08T11:44:36Z</time>
      </trkpt>
      <trkpt lat="43.02699" lon="0.57519">
        <ele>462.49</ele>
        <time>2019-09-08T11:44:57Z</time>
      </trkpt>
      <trkpt lat="43.02684" lon="0.57481">
        <ele>462.9</ele>
        <time>2019-09-08T11:45:20Z</time>
      </trkpt>
      <trkpt lat="43.02671" lon="0.57457">
        <ele>463.4</ele>
        <time>2019-09-08T11:45:39Z</time>
      </trkpt>
      <trkpt lat="43.02663" lon="0.57437">
        <ele>463.62</ele>
        <time>2019-09-08T11:45:55Z</time>
      </trkpt>
      <trkpt lat="43.02658" lon="0.5741">
        <ele>464.04</ele>
        <time>2019-09-08T11:46:12Z</time>
      </trkpt>
      <trkpt lat="43.02658" lon="0.57401">
        <ele>464.15</ele>
        <time>2019-09-08T11:46:16Z</time>
      </trkpt>
      <trkpt lat="43.02657" lon="0.57384">
        <ele>464.29</ele>
        <time>2019-09-08T11:46:26Z</time>
      </trkpt>
      <trkpt lat="43.02657" lon="0.57383">
        <ele>464.3</ele>
        <time>2019-09-08T11:46:27Z</time>
      </trkpt>
      <trkpt lat="43.02657" lon="0.57381">
        <ele>464.31</ele>
        <time>2019-09-08T11:46:28Z</time>
      </trkpt>
      <trkpt lat="43.02657" lon="0.5738">
        <ele>464.31</ele>
        <time>2019-09-08T11:46:29Z</time>
      </trkpt>
      <trkpt lat="43.02664" lon="0.57372">
        <ele>464.28</ele>
        <time>2019-09-08T11:46:41Z</time>
      </trkpt>
      <trkpt lat="43.02667" lon="0.5737">
        <ele>464.48</ele>
        <time>2019-09-08T11:46:44Z</time>
      </trkpt>
      <trkpt lat="43.02668" lon="0.5737">
        <ele>464.51</ele>
        <time>2019-09-08T11:46:45Z</time>
      </trkpt>
      <trkpt lat="43.0268" lon="0.57367">
        <ele>465.76</ele>
        <time>2019-09-08T11:46:57Z</time>
      </trkpt>
      <trkpt lat="43.02696" lon="0.57369">
        <ele>467.49</ele>
        <time>2019-09-08T11:47:11Z</time>
      </trkpt>
      <trkpt lat="43.02702" lon="0.5736">
        <ele>469.16</ele>
        <time>2019-09-08T11:47:27Z</time>
      </trkpt>
      <trkpt lat="43.02703" lon="0.57358">
        <ele>469.57</ele>
        <time>2019-09-08T11:47:29Z</time>
      </trkpt>
      <trkpt lat="43.02704" lon="0.57345">
        <ele>472.71</ele>
        <time>2019-09-08T11:47:42Z</time>
      </trkpt>
      <trkpt lat="43.02695" lon="0.57338">
        <ele>475.71</ele>
        <time>2019-09-08T11:47:55Z</time>
      </trkpt>
      <trkpt lat="43.0269" lon="0.57334">
        <ele>478.83</ele>
        <time>2019-09-08T11:48:08Z</time>
      </trkpt>
      <trkpt lat="43.02684" lon="0.57332">
        <ele>481.84</ele>
        <time>2019-09-08T11:48:22Z</time>
      </trkpt>
      <trkpt lat="43.02687" lon="0.57328">
        <ele>484.98</ele>
        <time>2019-09-08T11:48:37Z</time>
      </trkpt>
      <trkpt lat="43.02693" lon="0.57323">
        <ele>488.16</ele>
        <time>2019-09-08T11:48:54Z</time>
      </trkpt>
      <trkpt lat="43.02701" lon="0.57317">
        <ele>491.25</ele>
        <time>2019-09-08T11:49:10Z</time>
      </trkpt>
      <trkpt lat="43.0272" lon="0.57305">
        <ele>493.68</ele>
        <time>2019-09-08T11:49:28Z</time>
      </trkpt>
      <trkpt lat="43.02729" lon="0.57289">
        <ele>496.22</ele>
        <time>2019-09-08T11:49:45Z</time>
      </trkpt>
      <trkpt lat="43.02727" lon="0.57291">
        <ele>497.93</ele>
        <time>2019-09-08T11:49:54Z</time>
      </trkpt>
      <trkpt lat="43.02708" lon="0.57308">
        <ele>499.81</ele>
        <time>2019-09-08T11:50:16Z</time>
      </trkpt>
      <trkpt lat="43.02687" lon="0.57311">
        <ele>501.53</ele>
        <time>2019-09-08T11:50:36Z</time>
      </trkpt>
      <trkpt lat="43.02669" lon="0.57302">
        <ele>503.51</ele>
        <time>2019-09-08T11:50:57Z</time>
      </trkpt>
      <trkpt lat="43.0267" lon="0.57301">
        <ele>503.83</ele>
        <time>2019-09-08T11:51:22Z</time>
      </trkpt>
      <trkpt lat="43.02673" lon="0.57293">
        <ele>504.11</ele>
        <time>2019-09-08T11:51:42Z</time>
      </trkpt>
      <trkpt lat="43.0268" lon="0.57268">
        <ele>506.18</ele>
        <time>2019-09-08T11:52:06Z</time>
      </trkpt>
      <trkpt lat="43.02682" lon="0.57249">
        <ele>508.43</ele>
        <time>2019-09-08T11:52:23Z</time>
      </trkpt>
      <trkpt lat="43.02684" lon="0.57241">
        <ele>508.72</ele>
        <time>2019-09-08T11:52:29Z</time>
      </trkpt>
      <trkpt lat="43.02686" lon="0.57232">
        <ele>508.93</ele>
        <time>2019-09-08T11:52:35Z</time>
      </trkpt>
      <trkpt lat="43.02689" lon="0.57228">
        <ele>509.12</ele>
        <time>2019-09-08T11:52:39Z</time>
      </trkpt>
      <trkpt lat="43.02694" lon="0.57204">
        <ele>509.08</ele>
        <time>2019-09-08T11:52:58Z</time>
      </trkpt>
      <trkpt lat="43.02702" lon="0.57191">
        <ele>509.21</ele>
        <time>2019-09-08T11:53:09Z</time>
      </trkpt>
      <trkpt lat="43.02707" lon="0.57172">
        <ele>508.93</ele>
        <time>2019-09-08T11:53:22Z</time>
      </trkpt>
      <trkpt lat="43.02701" lon="0.57153">
        <ele>509.74</ele>
        <time>2019-09-08T11:53:35Z</time>
      </trkpt>
      <trkpt lat="43.02705" lon="0.57131">
        <ele>510.9</ele>
        <time>2019-09-08T11:53:51Z</time>
      </trkpt>
      <trkpt lat="43.02713" lon="0.57109">
        <ele>512.05</ele>
        <time>2019-09-08T11:54:05Z</time>
      </trkpt>
      <trkpt lat="43.02713" lon="0.57107">
        <ele>512.12</ele>
        <time>2019-09-08T11:54:06Z</time>
      </trkpt>
      <trkpt lat="43.02712" lon="0.57086">
        <ele>513.53</ele>
        <time>2019-09-08T11:54:20Z</time>
      </trkpt>
      <trkpt lat="43.02707" lon="0.57073">
        <ele>514.7</ele>
        <time>2019-09-08T11:54:29Z</time>
      </trkpt>
      <trkpt lat="43.02697" lon="0.57067">
        <ele>514.89</ele>
        <time>2019-09-08T11:54:44Z</time>
      </trkpt>
      <trkpt lat="43.02697" lon="0.57076">
        <ele>514.9</ele>
        <time>2019-09-08T11:55:12Z</time>
      </trkpt>
      <trkpt lat="43.02683" lon="0.57091">
        <ele>517.41</ele>
        <time>2019-09-08T11:55:33Z</time>
      </trkpt>
      <trkpt lat="43.02681" lon="0.57094">
        <ele>519.69</ele>
        <time>2019-09-08T11:55:53Z</time>
      </trkpt>
      <trkpt lat="43.02699" lon="0.57098">
        <ele>519.61</ele>
        <time>2019-09-08T12:01:17Z</time>
      </trkpt>
      <trkpt lat="43.02693" lon="0.57079">
        <ele>519.61</ele>
        <time>2019-09-08T12:01:47Z</time>
      </trkpt>
      <trkpt lat="43.02699" lon="0.57071">
        <ele>515.19</ele>
        <time>2019-09-08T12:02:01Z</time>
      </trkpt>
      <trkpt lat="43.02699" lon="0.5707">
        <ele>515.3</ele>
        <time>2019-09-08T12:02:02Z</time>
      </trkpt>
      <trkpt lat="43.02701" lon="0.57059">
        <ele>514.03</ele>
        <time>2019-09-08T12:02:21Z</time>
      </trkpt>
      <trkpt lat="43.02696" lon="0.57056">
        <ele>512.8</ele>
        <time>2019-09-08T12:02:35Z</time>
      </trkpt>
      <trkpt lat="43.02678" lon="0.57046">
        <ele>512.43</ele>
        <time>2019-09-08T12:02:55Z</time>
      </trkpt>
      <trkpt lat="43.02665" lon="0.57034">
        <ele>510.89</ele>
        <time>2019-09-08T12:03:10Z</time>
      </trkpt>
      <trkpt lat="43.02661" lon="0.5702">
        <ele>507.78</ele>
        <time>2019-09-08T12:03:24Z</time>
      </trkpt>
      <trkpt lat="43.02661" lon="0.5701">
        <ele>506.33</ele>
        <time>2019-09-08T12:03:31Z</time>
      </trkpt>
      <trkpt lat="43.0266" lon="0.57005">
        <ele>505.86</ele>
        <time>2019-09-08T12:03:34Z</time>
      </trkpt>
      <trkpt lat="43.02657" lon="0.56998">
        <ele>505.25</ele>
        <time>2019-09-08T12:03:40Z</time>
      </trkpt>
      <trkpt lat="43.0265" lon="0.56974">
        <ele>504.06</ele>
        <time>2019-09-08T12:03:57Z</time>
      </trkpt>
      <trkpt lat="43.02643" lon="0.5696">
        <ele>504.28</ele>
        <time>2019-09-08T12:04:14Z</time>
      </trkpt>
      <trkpt lat="43.02636" lon="0.56954">
        <ele>503.97</ele>
        <time>2019-09-08T12:04:20Z</time>
      </trkpt>
      <trkpt lat="43.02627" lon="0.5695">
        <ele>503.47</ele>
        <time>2019-09-08T12:04:28Z</time>
      </trkpt>
      <trkpt lat="43.02625" lon="0.56949">
        <ele>503.31</ele>
        <time>2019-09-08T12:04:30Z</time>
      </trkpt>
      <trkpt lat="43.0262" lon="0.56953">
        <ele>502.26</ele>
        <time>2019-09-08T12:04:42Z</time>
      </trkpt>
      <trkpt lat="43.0262" lon="0.56955">
        <ele>502.24</ele>
        <time>2019-09-08T12:04:43Z</time>
      </trkpt>
      <trkpt lat="43.0262" lon="0.56956">
        <ele>502.21</ele>
        <time>2019-09-08T12:04:44Z</time>
      </trkpt>
      <trkpt lat="43.02622" lon="0.5697">
        <ele>501.32</ele>
        <time>2019-09-08T12:05:04Z</time>
      </trkpt>
      <trkpt lat="43.02624" lon="0.56963">
        <ele>501.98</ele>
        <time>2019-09-08T12:05:20Z</time>
      </trkpt>
      <trkpt lat="43.02627" lon="0.56992">
        <ele>501.12</ele>
        <time>2019-09-08T12:05:38Z</time>
      </trkpt>
      <trkpt lat="43.02628" lon="0.57013">
        <ele>500.38</ele>
        <time>2019-09-08T12:05:52Z</time>
      </trkpt>
      <trkpt lat="43.02626" lon="0.57012">
        <ele>500.31</ele>
        <time>2019-09-08T12:05:54Z</time>
      </trkpt>
      <trkpt lat="43.02625" lon="0.57011">
        <ele>500.28</ele>
        <time>2019-09-08T12:05:55Z</time>
      </trkpt>
      <trkpt lat="43.02625" lon="0.5701">
        <ele>500.23</ele>
        <time>2019-09-08T12:05:56Z</time>
      </trkpt>
      <trkpt lat="43.02619" lon="0.56995">
        <ele>497.21</ele>
        <time>2019-09-08T12:06:10Z</time>
      </trkpt>
      <trkpt lat="43.02609" lon="0.56983">
        <ele>493.93</ele>
        <time>2019-09-08T12:06:22Z</time>
      </trkpt>
      <trkpt lat="43.02599" lon="0.5697">
        <ele>490.72</ele>
        <time>2019-09-08T12:06:34Z</time>
      </trkpt>
      <trkpt lat="43.02592" lon="0.56958">
        <ele>487.44</ele>
        <time>2019-09-08T12:06:45Z</time>
      </trkpt>
      <trkpt lat="43.02583" lon="0.56948">
        <ele>484.58</ele>
        <time>2019-09-08T12:06:55Z</time>
      </trkpt>
      <trkpt lat="43.02579" lon="0.56936">
        <ele>482.71</ele>
        <time>2019-09-08T12:07:02Z</time>
      </trkpt>
      <trkpt lat="43.02575" lon="0.56917">
        <ele>479.75</ele>
        <time>2019-09-08T12:07:14Z</time>
      </trkpt>
      <trkpt lat="43.02576" lon="0.56894">
        <ele>476.73</ele>
        <time>2019-09-08T12:07:26Z</time>
      </trkpt>
      <trkpt lat="43.02579" lon="0.56857">
        <ele>475.46</ele>
        <time>2019-09-08T12:07:47Z</time>
      </trkpt>
      <trkpt lat="43.02579" lon="0.56855">
        <ele>475.47</ele>
        <time>2019-09-08T12:07:48Z</time>
      </trkpt>
      <trkpt lat="43.0258" lon="0.56854">
        <ele>475.47</ele>
        <time>2019-09-08T12:07:49Z</time>
      </trkpt>
      <trkpt lat="43.02583" lon="0.56824">
        <ele>475.94</ele>
        <time>2019-09-08T12:08:07Z</time>
      </trkpt>
      <trkpt lat="43.0258" lon="0.56805">
        <ele>477.58</ele>
        <time>2019-09-08T12:08:21Z</time>
      </trkpt>
      <trkpt lat="43.0258" lon="0.56804">
        <ele>477.79</ele>
        <time>2019-09-08T12:08:22Z</time>
      </trkpt>
      <trkpt lat="43.02561" lon="0.56786">
        <ele>478.69</ele>
        <time>2019-09-08T12:08:40Z</time>
      </trkpt>
      <trkpt lat="43.02548" lon="0.56775">
        <ele>480.07</ele>
        <time>2019-09-08T12:08:55Z</time>
      </trkpt>
      <trkpt lat="43.02547" lon="0.56766">
        <ele>481</ele>
        <time>2019-09-08T12:09:17Z</time>
      </trkpt>
      <trkpt lat="43.02547" lon="0.56749">
        <ele>482.24</ele>
        <time>2019-09-08T12:09:28Z</time>
      </trkpt>
      <trkpt lat="43.02557" lon="0.56723">
        <ele>484.98</ele>
        <time>2019-09-08T12:09:49Z</time>
      </trkpt>
      <trkpt lat="43.02567" lon="0.56706">
        <ele>487.99</ele>
        <time>2019-09-08T12:10:05Z</time>
      </trkpt>
      <trkpt lat="43.0257" lon="0.56691">
        <ele>491.1</ele>
        <time>2019-09-08T12:10:24Z</time>
      </trkpt>
      <trkpt lat="43.02576" lon="0.56664">
        <ele>494.2</ele>
        <time>2019-09-08T12:10:40Z</time>
      </trkpt>
      <trkpt lat="43.02579" lon="0.56667">
        <ele>496.44</ele>
        <time>2019-09-08T12:11:00Z</time>
      </trkpt>
      <trkpt lat="43.02583" lon="0.56693">
        <ele>498.12</ele>
        <time>2019-09-08T12:11:17Z</time>
      </trkpt>
      <trkpt lat="43.02583" lon="0.56718">
        <ele>501.2</ele>
        <time>2019-09-08T12:11:37Z</time>
      </trkpt>
      <trkpt lat="43.02595" lon="0.56734">
        <ele>503.85</ele>
        <time>2019-09-08T12:11:57Z</time>
      </trkpt>
      <trkpt lat="43.02598" lon="0.56715">
        <ele>506.88</ele>
        <time>2019-09-08T12:12:12Z</time>
      </trkpt>
      <trkpt lat="43.02596" lon="0.5669">
        <ele>508.93</ele>
        <time>2019-09-08T12:12:30Z</time>
      </trkpt>
      <trkpt lat="43.026" lon="0.56665">
        <ele>510.24</ele>
        <time>2019-09-08T12:12:48Z</time>
      </trkpt>
      <trkpt lat="43.02609" lon="0.56646">
        <ele>511.08</ele>
        <time>2019-09-08T12:13:03Z</time>
      </trkpt>
      <trkpt lat="43.02624" lon="0.5663">
        <ele>512.07</ele>
        <time>2019-09-08T12:13:18Z</time>
      </trkpt>
      <trkpt lat="43.02624" lon="0.56632">
        <ele>512.64</ele>
        <time>2019-09-08T12:13:30Z</time>
      </trkpt>
      <trkpt lat="43.02625" lon="0.56632">
        <ele>512.54</ele>
        <time>2019-09-08T12:13:48Z</time>
      </trkpt>
      <trkpt lat="43.02638" lon="0.56616">
        <ele>512.53</ele>
        <time>2019-09-08T12:14:04Z</time>
      </trkpt>
      <trkpt lat="43.02648" lon="0.56591">
        <ele>513.63</ele>
        <time>2019-09-08T12:14:22Z</time>
      </trkpt>
      <trkpt lat="43.0266" lon="0.56571">
        <ele>514.53</ele>
        <time>2019-09-08T12:14:39Z</time>
      </trkpt>
      <trkpt lat="43.02674" lon="0.56567">
        <ele>515.21</ele>
        <time>2019-09-08T12:14:53Z</time>
      </trkpt>
      <trkpt lat="43.02688" lon="0.56565">
        <ele>514.39</ele>
        <time>2019-09-08T12:15:06Z</time>
      </trkpt>
      <trkpt lat="43.02692" lon="0.56563">
        <ele>514.37</ele>
        <time>2019-09-08T12:15:17Z</time>
      </trkpt>
      <trkpt lat="43.02707" lon="0.56562">
        <ele>514.16</ele>
        <time>2019-09-08T12:15:39Z</time>
      </trkpt>
      <trkpt lat="43.0272" lon="0.5655">
        <ele>514.46</ele>
        <time>2019-09-08T12:15:51Z</time>
      </trkpt>
      <trkpt lat="43.02733" lon="0.56527">
        <ele>515.42</ele>
        <time>2019-09-08T12:16:07Z</time>
      </trkpt>
      <trkpt lat="43.02742" lon="0.56511">
        <ele>517.16</ele>
        <time>2019-09-08T12:16:26Z</time>
      </trkpt>
      <trkpt lat="43.02746" lon="0.56512">
        <ele>518.01</ele>
        <time>2019-09-08T12:16:50Z</time>
      </trkpt>
      <trkpt lat="43.02765" lon="0.56521">
        <ele>517.05</ele>
        <time>2019-09-08T12:17:10Z</time>
      </trkpt>
      <trkpt lat="43.02776" lon="0.56526">
        <ele>516.42</ele>
        <time>2019-09-08T12:17:31Z</time>
      </trkpt>
      <trkpt lat="43.02793" lon="0.56536">
        <ele>515.29</ele>
        <time>2019-09-08T12:17:46Z</time>
      </trkpt>
      <trkpt lat="43.02807" lon="0.56547">
        <ele>515.33</ele>
        <time>2019-09-08T12:18:03Z</time>
      </trkpt>
      <trkpt lat="43.02812" lon="0.56552">
        <ele>515.44</ele>
        <time>2019-09-08T12:18:09Z</time>
      </trkpt>
      <trkpt lat="43.02822" lon="0.56554">
        <ele>516.63</ele>
        <time>2019-09-08T12:18:29Z</time>
      </trkpt>
      <trkpt lat="43.02843" lon="0.56553">
        <ele>516.92</ele>
        <time>2019-09-08T12:18:49Z</time>
      </trkpt>
      <trkpt lat="43.02864" lon="0.56548">
        <ele>519.55</ele>
        <time>2019-09-08T12:19:09Z</time>
      </trkpt>
      <trkpt lat="43.02888" lon="0.56544">
        <ele>522.5</ele>
        <time>2019-09-08T12:19:30Z</time>
      </trkpt>
      <trkpt lat="43.02912" lon="0.56543">
        <ele>525.49</ele>
        <time>2019-09-08T12:19:51Z</time>
      </trkpt>
      <trkpt lat="43.02934" lon="0.56539">
        <ele>526.4</ele>
        <time>2019-09-08T12:20:11Z</time>
      </trkpt>
      <trkpt lat="43.02948" lon="0.56529">
        <ele>528.06</ele>
        <time>2019-09-08T12:20:25Z</time>
      </trkpt>
      <trkpt lat="43.02963" lon="0.56518">
        <ele>528.13</ele>
        <time>2019-09-08T12:20:41Z</time>
      </trkpt>
      <trkpt lat="43.02981" lon="0.56502">
        <ele>526.94</ele>
        <time>2019-09-08T12:21:00Z</time>
      </trkpt>
      <trkpt lat="43.02995" lon="0.56486">
        <ele>525.83</ele>
        <time>2019-09-08T12:21:15Z</time>
      </trkpt>
      <trkpt lat="43.03009" lon="0.5647">
        <ele>525.83</ele>
        <time>2019-09-08T12:21:32Z</time>
      </trkpt>
      <trkpt lat="43.03023" lon="0.56448">
        <ele>525.83</ele>
        <time>2019-09-08T12:21:49Z</time>
      </trkpt>
      <trkpt lat="43.03039" lon="0.56435">
        <ele>515.9</ele>
        <time>2019-09-08T12:22:07Z</time>
      </trkpt>
      <trkpt lat="43.03039" lon="0.56435">
        <ele>515.94</ele>
        <time>2019-09-08T12:22:08Z</time>
      </trkpt>
      <trkpt lat="43.03057" lon="0.5643">
        <ele>513.1</ele>
        <time>2019-09-08T12:22:26Z</time>
      </trkpt>
      <trkpt lat="43.03074" lon="0.56434">
        <ele>509.94</ele>
        <time>2019-09-08T12:22:41Z</time>
      </trkpt>
      <trkpt lat="43.03101" lon="0.56442">
        <ele>507.51</ele>
        <time>2019-09-08T12:23:01Z</time>
      </trkpt>
      <trkpt lat="43.03121" lon="0.56428">
        <ele>507.48</ele>
        <time>2019-09-08T12:23:20Z</time>
      </trkpt>
      <trkpt lat="43.03136" lon="0.56411">
        <ele>504.49</ele>
        <time>2019-09-08T12:23:39Z</time>
      </trkpt>
      <trkpt lat="43.0315" lon="0.56394">
        <ele>502.5</ele>
        <time>2019-09-08T12:23:58Z</time>
      </trkpt>
      <trkpt lat="43.0317" lon="0.56373">
        <ele>502.28</ele>
        <time>2019-09-08T12:24:18Z</time>
      </trkpt>
      <trkpt lat="43.03189" lon="0.56358">
        <ele>502.88</ele>
        <time>2019-09-08T12:24:32Z</time>
      </trkpt>
      <trkpt lat="43.03192" lon="0.56345">
        <ele>504.11</ele>
        <time>2019-09-08T12:24:43Z</time>
      </trkpt>
      <trkpt lat="43.03187" lon="0.56337">
        <ele>504.37</ele>
        <time>2019-09-08T12:24:51Z</time>
      </trkpt>
      <trkpt lat="43.03172" lon="0.56318">
        <ele>503.35</ele>
        <time>2019-09-08T12:25:08Z</time>
      </trkpt>
      <trkpt lat="43.03165" lon="0.56292">
        <ele>503.73</ele>
        <time>2019-09-08T12:25:28Z</time>
      </trkpt>
      <trkpt lat="43.03178" lon="0.56277">
        <ele>503.68</ele>
        <time>2019-09-08T12:25:46Z</time>
      </trkpt>
      <trkpt lat="43.03194" lon="0.56258">
        <ele>505.66</ele>
        <time>2019-09-08T12:26:04Z</time>
      </trkpt>
      <trkpt lat="43.03211" lon="0.56239">
        <ele>508.72</ele>
        <time>2019-09-08T12:26:23Z</time>
      </trkpt>
      <trkpt lat="43.03227" lon="0.56214">
        <ele>509.94</ele>
        <time>2019-09-08T12:26:45Z</time>
      </trkpt>
      <trkpt lat="43.03245" lon="0.56184">
        <ele>508.45</ele>
        <time>2019-09-08T12:27:07Z</time>
      </trkpt>
      <trkpt lat="43.03256" lon="0.56173">
        <ele>505.88</ele>
        <time>2019-09-08T12:27:22Z</time>
      </trkpt>
      <trkpt lat="43.03277" lon="0.56156">
        <ele>503.51</ele>
        <time>2019-09-08T12:27:41Z</time>
      </trkpt>
      <trkpt lat="43.03289" lon="0.56134">
        <ele>503.15</ele>
        <time>2019-09-08T12:28:00Z</time>
      </trkpt>
      <trkpt lat="43.03302" lon="0.5611">
        <ele>501.89</ele>
        <time>2019-09-08T12:28:18Z</time>
      </trkpt>
      <trkpt lat="43.03315" lon="0.56087">
        <ele>500.07</ele>
        <time>2019-09-08T12:28:39Z</time>
      </trkpt>
      <trkpt lat="43.03327" lon="0.5606">
        <ele>498.87</ele>
        <time>2019-09-08T12:28:56Z</time>
      </trkpt>
      <trkpt lat="43.03334" lon="0.56032">
        <ele>498.46</ele>
        <time>2019-09-08T12:29:14Z</time>
      </trkpt>
      <trkpt lat="43.03342" lon="0.56015">
        <ele>497.07</ele>
        <time>2019-09-08T12:29:25Z</time>
      </trkpt>
      <trkpt lat="43.03349" lon="0.55995">
        <ele>494.43</ele>
        <time>2019-09-08T12:29:38Z</time>
      </trkpt>
      <trkpt lat="43.03358" lon="0.55968">
        <ele>494.05</ele>
        <time>2019-09-08T12:29:57Z</time>
      </trkpt>
      <trkpt lat="43.03369" lon="0.55942">
        <ele>494.16</ele>
        <time>2019-09-08T12:30:17Z</time>
      </trkpt>
      <trkpt lat="43.03379" lon="0.55911">
        <ele>492.4</ele>
        <time>2019-09-08T12:30:37Z</time>
      </trkpt>
      <trkpt lat="43.03371" lon="0.55898">
        <ele>492.32</ele>
        <time>2019-09-08T12:30:50Z</time>
      </trkpt>
      <trkpt lat="43.03361" lon="0.55887">
        <ele>495.34</ele>
        <time>2019-09-08T12:31:07Z</time>
      </trkpt>
      <trkpt lat="43.03354" lon="0.55863">
        <ele>495.53</ele>
        <time>2019-09-08T12:31:27Z</time>
      </trkpt>
      <trkpt lat="43.0335" lon="0.55829">
        <ele>494.4</ele>
        <time>2019-09-08T12:31:49Z</time>
      </trkpt>
      <trkpt lat="43.03344" lon="0.55787">
        <ele>493.99</ele>
        <time>2019-09-08T12:32:08Z</time>
      </trkpt>
      <trkpt lat="43.03343" lon="0.55753">
        <ele>494.46</ele>
        <time>2019-09-08T12:32:27Z</time>
      </trkpt>
      <trkpt lat="43.03341" lon="0.55725">
        <ele>495.85</ele>
        <time>2019-09-08T12:32:45Z</time>
      </trkpt>
      <trkpt lat="43.03337" lon="0.55701">
        <ele>497.88</ele>
        <time>2019-09-08T12:33:07Z</time>
      </trkpt>
      <trkpt lat="43.03333" lon="0.55676">
        <ele>499.63</ele>
        <time>2019-09-08T12:33:28Z</time>
      </trkpt>
      <trkpt lat="43.03328" lon="0.55642">
        <ele>500.13</ele>
        <time>2019-09-08T12:33:46Z</time>
      </trkpt>
      <trkpt lat="43.03326" lon="0.55614">
        <ele>500.89</ele>
        <time>2019-09-08T12:34:05Z</time>
      </trkpt>
      <trkpt lat="43.0333" lon="0.55579">
        <ele>501.92</ele>
        <time>2019-09-08T12:34:25Z</time>
      </trkpt>
      <trkpt lat="43.03329" lon="0.55558">
        <ele>504.93</ele>
        <time>2019-09-08T12:34:45Z</time>
      </trkpt>
      <trkpt lat="43.03324" lon="0.5553">
        <ele>508</ele>
        <time>2019-09-08T12:35:05Z</time>
      </trkpt>
      <trkpt lat="43.03318" lon="0.55508">
        <ele>511.06</ele>
        <time>2019-09-08T12:35:23Z</time>
      </trkpt>
      <trkpt lat="43.03309" lon="0.5548">
        <ele>513.7</ele>
        <time>2019-09-08T12:35:42Z</time>
      </trkpt>
      <trkpt lat="43.033" lon="0.55448">
        <ele>515.41</ele>
        <time>2019-09-08T12:36:03Z</time>
      </trkpt>
      <trkpt lat="43.03293" lon="0.55409">
        <ele>515.82</ele>
        <time>2019-09-08T12:36:23Z</time>
      </trkpt>
      <trkpt lat="43.03289" lon="0.55388">
        <ele>515.87</ele>
        <time>2019-09-08T12:36:42Z</time>
      </trkpt>
      <trkpt lat="43.03283" lon="0.55363">
        <ele>516.14</ele>
        <time>2019-09-08T12:36:56Z</time>
      </trkpt>
      <trkpt lat="43.03272" lon="0.55336">
        <ele>516.51</ele>
        <time>2019-09-08T12:37:14Z</time>
      </trkpt>
      <trkpt lat="43.03271" lon="0.55329">
        <ele>516.51</ele>
        <time>2019-09-08T12:37:18Z</time>
      </trkpt>
      <trkpt lat="43.03271" lon="0.55324">
        <ele>516.51</ele>
        <time>2019-09-08T12:37:20Z</time>
      </trkpt>
      <trkpt lat="43.03267" lon="0.55293">
        <ele>517.48</ele>
        <time>2019-09-08T12:37:38Z</time>
      </trkpt>
      <trkpt lat="43.03266" lon="0.55275">
        <ele>517.33</ele>
        <time>2019-09-08T12:37:51Z</time>
      </trkpt>
      <trkpt lat="43.03266" lon="0.55271">
        <ele>517.46</ele>
        <time>2019-09-08T12:37:53Z</time>
      </trkpt>
      <trkpt lat="43.0326" lon="0.5523">
        <ele>518.81</ele>
        <time>2019-09-08T12:38:16Z</time>
      </trkpt>
      <trkpt lat="43.0325" lon="0.55182">
        <ele>518.82</ele>
        <time>2019-09-08T12:38:44Z</time>
      </trkpt>
      <trkpt lat="43.03248" lon="0.55172">
        <ele>518.25</ele>
        <time>2019-09-08T12:38:51Z</time>
      </trkpt>
      <trkpt lat="43.03248" lon="0.5517">
        <ele>518.07</ele>
        <time>2019-09-08T12:38:52Z</time>
      </trkpt>
      <trkpt lat="43.03249" lon="0.55158">
        <ele>517.52</ele>
        <time>2019-09-08T12:38:59Z</time>
      </trkpt>
      <trkpt lat="43.0325" lon="0.55156">
        <ele>517.48</ele>
        <time>2019-09-08T12:39:00Z</time>
      </trkpt>
      <trkpt lat="43.03251" lon="0.55155">
        <ele>517.45</ele>
        <time>2019-09-08T12:39:01Z</time>
      </trkpt>
      <trkpt lat="43.03254" lon="0.55154">
        <ele>517.59</ele>
        <time>2019-09-08T12:39:04Z</time>
      </trkpt>
      <trkpt lat="43.0327" lon="0.5516">
        <ele>517.71</ele>
        <time>2019-09-08T12:39:18Z</time>
      </trkpt>
      <trkpt lat="43.03272" lon="0.5516">
        <ele>517.8</ele>
        <time>2019-09-08T12:39:19Z</time>
      </trkpt>
      <trkpt lat="43.03273" lon="0.5516">
        <ele>517.85</ele>
        <time>2019-09-08T12:39:20Z</time>
      </trkpt>
      <trkpt lat="43.03275" lon="0.55161">
        <ele>517.87</ele>
        <time>2019-09-08T12:39:21Z</time>
      </trkpt>
      <trkpt lat="43.03276" lon="0.55161">
        <ele>517.82</ele>
        <time>2019-09-08T12:39:22Z</time>
      </trkpt>
      <trkpt lat="43.03277" lon="0.55161">
        <ele>517.76</ele>
        <time>2019-09-08T12:39:23Z</time>
      </trkpt>
      <trkpt lat="43.03298" lon="0.55161">
        <ele>517.95</ele>
        <time>2019-09-08T12:39:39Z</time>
      </trkpt>
      <trkpt lat="43.03327" lon="0.55161">
        <ele>514.88</ele>
        <time>2019-09-08T12:40:01Z</time>
      </trkpt>
      <trkpt lat="43.03358" lon="0.55163">
        <ele>512.72</ele>
        <time>2019-09-08T12:40:25Z</time>
      </trkpt>
      <trkpt lat="43.0338" lon="0.55147">
        <ele>509.88</ele>
        <time>2019-09-08T12:40:45Z</time>
      </trkpt>
      <trkpt lat="43.0339" lon="0.55112">
        <ele>510.94</ele>
        <time>2019-09-08T12:41:08Z</time>
      </trkpt>
      <trkpt lat="43.03401" lon="0.5507">
        <ele>510.48</ele>
        <time>2019-09-08T12:41:35Z</time>
      </trkpt>
      <trkpt lat="43.03413" lon="0.55031">
        <ele>510.53</ele>
        <time>2019-09-08T12:42:00Z</time>
      </trkpt>
      <trkpt lat="43.03425" lon="0.54992">
        <ele>509.82</ele>
        <time>2019-09-08T12:42:23Z</time>
      </trkpt>
      <trkpt lat="43.03432" lon="0.54958">
        <ele>509.34</ele>
        <time>2019-09-08T12:42:43Z</time>
      </trkpt>
      <trkpt lat="43.03431" lon="0.54934">
        <ele>509.64</ele>
        <time>2019-09-08T12:42:58Z</time>
      </trkpt>
      <trkpt lat="43.03428" lon="0.54904">
        <ele>509.81</ele>
        <time>2019-09-08T12:43:15Z</time>
      </trkpt>
      <trkpt lat="43.03429" lon="0.54866">
        <ele>510.8</ele>
        <time>2019-09-08T12:43:37Z</time>
      </trkpt>
      <trkpt lat="43.03428" lon="0.54843">
        <ele>511.02</ele>
        <time>2019-09-08T12:43:51Z</time>
      </trkpt>
      <trkpt lat="43.03431" lon="0.54816">
        <ele>510.23</ele>
        <time>2019-09-08T12:44:07Z</time>
      </trkpt>
      <trkpt lat="43.03445" lon="0.54793">
        <ele>507.7</ele>
        <time>2019-09-08T12:44:24Z</time>
      </trkpt>
      <trkpt lat="43.03461" lon="0.54783">
        <ele>504.87</ele>
        <time>2019-09-08T12:44:41Z</time>
      </trkpt>
      <trkpt lat="43.03461" lon="0.54782">
        <ele>504.74</ele>
        <time>2019-09-08T12:44:42Z</time>
      </trkpt>
      <trkpt lat="43.03449" lon="0.54774">
        <ele>501.69</ele>
        <time>2019-09-08T12:44:56Z</time>
      </trkpt>
      <trkpt lat="43.0345" lon="0.54763">
        <ele>499.57</ele>
        <time>2019-09-08T12:45:07Z</time>
      </trkpt>
      <trkpt lat="43.03451" lon="0.54762">
        <ele>499.32</ele>
        <time>2019-09-08T12:45:08Z</time>
      </trkpt>
      <trkpt lat="43.03453" lon="0.54762">
        <ele>499.01</ele>
        <time>2019-09-08T12:45:09Z</time>
      </trkpt>
      <trkpt lat="43.03455" lon="0.54761">
        <ele>498.7</ele>
        <time>2019-09-08T12:45:10Z</time>
      </trkpt>
      <trkpt lat="43.03456" lon="0.54761">
        <ele>498.48</ele>
        <time>2019-09-08T12:45:11Z</time>
      </trkpt>
      <trkpt lat="43.03468" lon="0.54755">
        <ele>496.68</ele>
        <time>2019-09-08T12:45:21Z</time>
      </trkpt>
      <trkpt lat="43.03473" lon="0.54739">
        <ele>494.77</ele>
        <time>2019-09-08T12:45:31Z</time>
      </trkpt>
      <trkpt lat="43.03473" lon="0.54738">
        <ele>494.54</ele>
        <time>2019-09-08T12:45:32Z</time>
      </trkpt>
      <trkpt lat="43.03473" lon="0.54736">
        <ele>494.27</ele>
        <time>2019-09-08T12:45:33Z</time>
      </trkpt>
      <trkpt lat="43.0347" lon="0.54706">
        <ele>492.17</ele>
        <time>2019-09-08T12:45:52Z</time>
      </trkpt>
      <trkpt lat="43.03471" lon="0.54705">
        <ele>492.02</ele>
        <time>2019-09-08T12:45:53Z</time>
      </trkpt>
      <trkpt lat="43.03473" lon="0.54705">
        <ele>491.74</ele>
        <time>2019-09-08T12:45:55Z</time>
      </trkpt>
      <trkpt lat="43.03489" lon="0.54705">
        <ele>490.93</ele>
        <time>2019-09-08T12:46:08Z</time>
      </trkpt>
      <trkpt lat="43.03503" lon="0.54707">
        <ele>490.94</ele>
        <time>2019-09-08T12:46:21Z</time>
      </trkpt>
      <trkpt lat="43.03528" lon="0.54724">
        <ele>491.32</ele>
        <time>2019-09-08T12:46:42Z</time>
      </trkpt>
      <trkpt lat="43.03554" lon="0.5473">
        <ele>491.46</ele>
        <time>2019-09-08T12:47:01Z</time>
      </trkpt>
      <trkpt lat="43.0357" lon="0.54736">
        <ele>491.66</ele>
        <time>2019-09-08T12:47:15Z</time>
      </trkpt>
      <trkpt lat="43.03587" lon="0.5474">
        <ele>492.36</ele>
        <time>2019-09-08T12:47:31Z</time>
      </trkpt>
      <trkpt lat="43.03614" lon="0.54753">
        <ele>492.83</ele>
        <time>2019-09-08T12:47:54Z</time>
      </trkpt>
      <trkpt lat="43.03626" lon="0.54755">
        <ele>492.79</ele>
        <time>2019-09-08T12:48:02Z</time>
      </trkpt>
      <trkpt lat="43.03654" lon="0.54756">
        <ele>491.82</ele>
        <time>2019-09-08T12:48:22Z</time>
      </trkpt>
      <trkpt lat="43.0369" lon="0.5476">
        <ele>490.05</ele>
        <time>2019-09-08T12:48:49Z</time>
      </trkpt>
      <trkpt lat="43.03721" lon="0.54764">
        <ele>489.95</ele>
        <time>2019-09-08T12:49:13Z</time>
      </trkpt>
      <trkpt lat="43.03757" lon="0.54763">
        <ele>489.78</ele>
        <time>2019-09-08T12:49:40Z</time>
      </trkpt>
      <trkpt lat="43.03788" lon="0.54753">
        <ele>489.86</ele>
        <time>2019-09-08T12:50:06Z</time>
      </trkpt>
      <trkpt lat="43.0382" lon="0.54733">
        <ele>490.85</ele>
        <time>2019-09-08T12:50:35Z</time>
      </trkpt>
      <trkpt lat="43.03845" lon="0.54715">
        <ele>491.12</ele>
        <time>2019-09-08T12:50:57Z</time>
      </trkpt>
      <trkpt lat="43.03875" lon="0.54691">
        <ele>490.61</ele>
        <time>2019-09-08T12:51:23Z</time>
      </trkpt>
      <trkpt lat="43.03889" lon="0.54681">
        <ele>488.59</ele>
        <time>2019-09-08T12:51:40Z</time>
      </trkpt>
      <trkpt lat="43.03898" lon="0.54674">
        <ele>491.4</ele>
        <time>2019-09-08T12:51:55Z</time>
      </trkpt>
      <trkpt lat="43.03901" lon="0.54672">
        <ele>491.69</ele>
        <time>2019-09-08T12:52:05Z</time>
      </trkpt>
      <trkpt lat="43.03906" lon="0.54668">
        <ele>491.7</ele>
        <time>2019-09-08T12:52:11Z</time>
      </trkpt>
      <trkpt lat="43.03907" lon="0.54667">
        <ele>491.7</ele>
        <time>2019-09-08T12:52:12Z</time>
      </trkpt>
      <trkpt lat="43.03909" lon="0.54666">
        <ele>491.7</ele>
        <time>2019-09-08T12:52:13Z</time>
      </trkpt>
      <trkpt lat="43.03935" lon="0.54656">
        <ele>491.51</ele>
        <time>2019-09-08T12:52:34Z</time>
      </trkpt>
      <trkpt lat="43.03959" lon="0.5465">
        <ele>490.31</ele>
        <time>2019-09-08T12:52:54Z</time>
      </trkpt>
      <trkpt lat="43.0397" lon="0.54648">
        <ele>489.59</ele>
        <time>2019-09-08T12:53:04Z</time>
      </trkpt>
      <trkpt lat="43.03988" lon="0.54657">
        <ele>488.25</ele>
        <time>2019-09-08T12:53:21Z</time>
      </trkpt>
      <trkpt lat="43.03994" lon="0.54664">
        <ele>488.08</ele>
        <time>2019-09-08T12:53:26Z</time>
      </trkpt>
      <trkpt lat="43.04006" lon="0.54684">
        <ele>487.64</ele>
        <time>2019-09-08T12:53:43Z</time>
      </trkpt>
      <trkpt lat="43.04013" lon="0.54692">
        <ele>487.57</ele>
        <time>2019-09-08T12:53:49Z</time>
      </trkpt>
      <trkpt lat="43.04014" lon="0.54693">
        <ele>487.55</ele>
        <time>2019-09-08T12:53:50Z</time>
      </trkpt>
      <trkpt lat="43.04015" lon="0.54695">
        <ele>487.51</ele>
        <time>2019-09-08T12:53:51Z</time>
      </trkpt>
      <trkpt lat="43.04033" lon="0.5472">
        <ele>487.37</ele>
        <time>2019-09-08T12:54:10Z</time>
      </trkpt>
      <trkpt lat="43.04048" lon="0.54739">
        <ele>487.23</ele>
        <time>2019-09-08T12:54:27Z</time>
      </trkpt>
      <trkpt lat="43.04064" lon="0.54761">
        <ele>486.06</ele>
        <time>2019-09-08T12:54:44Z</time>
      </trkpt>
      <trkpt lat="43.04089" lon="0.54771">
        <ele>485.25</ele>
        <time>2019-09-08T12:55:03Z</time>
      </trkpt>
      <trkpt lat="43.04115" lon="0.54778">
        <ele>483.67</ele>
        <time>2019-09-08T12:55:25Z</time>
      </trkpt>
      <trkpt lat="43.04116" lon="0.54778">
        <ele>483.53</ele>
        <time>2019-09-08T12:55:26Z</time>
      </trkpt>
      <trkpt lat="43.04123" lon="0.54781">
        <ele>482.87</ele>
        <time>2019-09-08T12:55:32Z</time>
      </trkpt>
      <trkpt lat="43.04152" lon="0.54787">
        <ele>481.71</ele>
        <time>2019-09-08T12:55:53Z</time>
      </trkpt>
      <trkpt lat="43.04186" lon="0.54794">
        <ele>480.02</ele>
        <time>2019-09-08T12:56:18Z</time>
      </trkpt>
      <trkpt lat="43.04211" lon="0.54797">
        <ele>478.58</ele>
        <time>2019-09-08T12:56:38Z</time>
      </trkpt>
      <trkpt lat="43.04245" lon="0.5479">
        <ele>478.09</ele>
        <time>2019-09-08T12:57:04Z</time>
      </trkpt>
      <trkpt lat="43.04285" lon="0.5478">
        <ele>477.75</ele>
        <time>2019-09-08T12:57:35Z</time>
      </trkpt>
      <trkpt lat="43.04312" lon="0.54762">
        <ele>477.33</ele>
        <time>2019-09-08T12:57:59Z</time>
      </trkpt>
      <trkpt lat="43.04333" lon="0.54741">
        <ele>477.45</ele>
        <time>2019-09-08T12:58:20Z</time>
      </trkpt>
      <trkpt lat="43.04339" lon="0.54737">
        <ele>477.76</ele>
        <time>2019-09-08T12:58:28Z</time>
      </trkpt>
      <trkpt lat="43.04359" lon="0.54728">
        <ele>478.66</ele>
        <time>2019-09-08T12:58:46Z</time>
      </trkpt>
      <trkpt lat="43.04376" lon="0.54727">
        <ele>479.37</ele>
        <time>2019-09-08T12:59:01Z</time>
      </trkpt>
      <trkpt lat="43.04401" lon="0.54727">
        <ele>480.62</ele>
        <time>2019-09-08T12:59:22Z</time>
      </trkpt>
      <trkpt lat="43.04393" lon="0.54728">
        <ele>481.23</ele>
        <time>2019-09-08T12:59:38Z</time>
      </trkpt>
      <trkpt lat="43.04385" lon="0.54728">
        <ele>480.27</ele>
        <time>2019-09-08T12:59:58Z</time>
      </trkpt>
      <trkpt lat="43.04375" lon="0.54728">
        <ele>479.91</ele>
        <time>2019-09-08T13:00:12Z</time>
      </trkpt>
      <trkpt lat="43.04377" lon="0.54731">
        <ele>479.35</ele>
        <time>2019-09-08T13:00:33Z</time>
      </trkpt>
      <trkpt lat="43.04398" lon="0.54729">
        <ele>480.11</ele>
        <time>2019-09-08T13:00:51Z</time>
      </trkpt>
      <trkpt lat="43.04415" lon="0.54728">
        <ele>480.81</ele>
        <time>2019-09-08T13:01:07Z</time>
      </trkpt>
      <trkpt lat="43.04418" lon="0.54727">
        <ele>480.89</ele>
        <time>2019-09-08T13:01:09Z</time>
      </trkpt>
      <trkpt lat="43.04446" lon="0.54726">
        <ele>479.97</ele>
        <time>2019-09-08T13:01:30Z</time>
      </trkpt>
      <trkpt lat="43.04468" lon="0.54723">
        <ele>478.72</ele>
        <time>2019-09-08T13:01:48Z</time>
      </trkpt>
      <trkpt lat="43.04486" lon="0.54717">
        <ele>477.81</ele>
        <time>2019-09-08T13:02:04Z</time>
      </trkpt>
      <trkpt lat="43.04506" lon="0.54695">
        <ele>478.13</ele>
        <time>2019-09-08T13:02:24Z</time>
      </trkpt>
      <trkpt lat="43.04523" lon="0.54674">
        <ele>478.66</ele>
        <time>2019-09-08T13:02:42Z</time>
      </trkpt>
      <trkpt lat="43.04536" lon="0.54657">
        <ele>478.77</ele>
        <time>2019-09-08T13:02:57Z</time>
      </trkpt>
      <trkpt lat="43.04555" lon="0.54641">
        <ele>478.97</ele>
        <time>2019-09-08T13:03:14Z</time>
      </trkpt>
      <trkpt lat="43.04564" lon="0.5462">
        <ele>479.33</ele>
        <time>2019-09-08T13:03:30Z</time>
      </trkpt>
      <trkpt lat="43.04567" lon="0.54594">
        <ele>480.1</ele>
        <time>2019-09-08T13:03:48Z</time>
      </trkpt>
      <trkpt lat="43.04576" lon="0.54568">
        <ele>480.62</ele>
        <time>2019-09-08T13:04:05Z</time>
      </trkpt>
      <trkpt lat="43.04595" lon="0.54545">
        <ele>480.54</ele>
        <time>2019-09-08T13:04:23Z</time>
      </trkpt>
      <trkpt lat="43.04627" lon="0.54519">
        <ele>479.41</ele>
        <time>2019-09-08T13:04:49Z</time>
      </trkpt>
      <trkpt lat="43.04663" lon="0.54493">
        <ele>478.44</ele>
        <time>2019-09-08T13:05:17Z</time>
      </trkpt>
      <trkpt lat="43.04683" lon="0.54482">
        <ele>478.91</ele>
        <time>2019-09-08T13:05:38Z</time>
      </trkpt>
      <trkpt lat="43.04698" lon="0.54468">
        <ele>478.47</ele>
        <time>2019-09-08T13:05:54Z</time>
      </trkpt>
      <trkpt lat="43.04712" lon="0.54449">
        <ele>478.66</ele>
        <time>2019-09-08T13:06:11Z</time>
      </trkpt>
      <trkpt lat="43.04714" lon="0.54445">
        <ele>478.6</ele>
        <time>2019-09-08T13:06:14Z</time>
      </trkpt>
      <trkpt lat="43.04715" lon="0.54444">
        <ele>478.6</ele>
        <time>2019-09-08T13:06:15Z</time>
      </trkpt>
      <trkpt lat="43.04717" lon="0.54441">
        <ele>478.69</ele>
        <time>2019-09-08T13:06:17Z</time>
      </trkpt>
      <trkpt lat="43.04718" lon="0.5444">
        <ele>478.73</ele>
        <time>2019-09-08T13:06:18Z</time>
      </trkpt>
      <trkpt lat="43.04718" lon="0.54438">
        <ele>478.79</ele>
        <time>2019-09-08T13:06:19Z</time>
      </trkpt>
      <trkpt lat="43.04719" lon="0.54435">
        <ele>479.04</ele>
        <time>2019-09-08T13:06:22Z</time>
      </trkpt>
      <trkpt lat="43.04719" lon="0.54433">
        <ele>479.14</ele>
        <time>2019-09-08T13:06:23Z</time>
      </trkpt>
      <trkpt lat="43.04727" lon="0.5441">
        <ele>480.34</ele>
        <time>2019-09-08T13:06:40Z</time>
      </trkpt>
      <trkpt lat="43.04733" lon="0.544">
        <ele>480.76</ele>
        <time>2019-09-08T13:06:48Z</time>
      </trkpt>
      <trkpt lat="43.04736" lon="0.54394">
        <ele>480.99</ele>
        <time>2019-09-08T13:06:52Z</time>
      </trkpt>
      <trkpt lat="43.04737" lon="0.54393">
        <ele>481.02</ele>
        <time>2019-09-08T13:06:53Z</time>
      </trkpt>
      <trkpt lat="43.04742" lon="0.54385">
        <ele>481.36</ele>
        <time>2019-09-08T13:06:59Z</time>
      </trkpt>
      <trkpt lat="43.04752" lon="0.54362">
        <ele>481.82</ele>
        <time>2019-09-08T13:07:15Z</time>
      </trkpt>
      <trkpt lat="43.0476" lon="0.54351">
        <ele>482.31</ele>
        <time>2019-09-08T13:07:24Z</time>
      </trkpt>
      <trkpt lat="43.04761" lon="0.5435">
        <ele>482.35</ele>
        <time>2019-09-08T13:07:25Z</time>
      </trkpt>
      <trkpt lat="43.0477" lon="0.54333">
        <ele>483.39</ele>
        <time>2019-09-08T13:07:40Z</time>
      </trkpt>
      <trkpt lat="43.04784" lon="0.54316">
        <ele>483.8</ele>
        <time>2019-09-08T13:07:55Z</time>
      </trkpt>
      <trkpt lat="43.04787" lon="0.54302">
        <ele>483.75</ele>
        <time>2019-09-08T13:08:10Z</time>
      </trkpt>
      <trkpt lat="43.04794" lon="0.54289">
        <ele>483.57</ele>
        <time>2019-09-08T13:08:27Z</time>
      </trkpt>
      <trkpt lat="43.04795" lon="0.54286">
        <ele>484.03</ele>
        <time>2019-09-08T13:08:47Z</time>
      </trkpt>
      <trkpt lat="43.048" lon="0.54284">
        <ele>483.6</ele>
        <time>2019-09-08T13:09:14Z</time>
      </trkpt>
      <trkpt lat="43.04801" lon="0.54281">
        <ele>483.6</ele>
        <time>2019-09-08T13:09:58Z</time>
      </trkpt>
      <trkpt lat="43.04802" lon="0.54284">
        <ele>483.6</ele>
        <time>2019-09-08T13:10:36Z</time>
      </trkpt>
      <trkpt lat="43.048" lon="0.54283">
        <ele>483.6</ele>
        <time>2019-09-08T13:11:32Z</time>
      </trkpt>
      <trkpt lat="43.048" lon="0.54285">
        <ele>483.6</ele>
        <time>2019-09-08T13:12:27Z</time>
      </trkpt>
      <trkpt lat="43.04798" lon="0.54284">
        <ele>483.6</ele>
        <time>2019-09-08T13:14:54Z</time>
      </trkpt>
      <trkpt lat="43.048" lon="0.54284">
        <ele>483.6</ele>
        <time>2019-09-08T13:17:13Z</time>
      </trkpt>
      <trkpt lat="43.04799" lon="0.54285">
        <ele>483.6</ele>
        <time>2019-09-08T13:18:37Z</time>
      </trkpt>
      <trkpt lat="43.04797" lon="0.54287">
        <ele>483.6</ele>
        <time>2019-09-08T13:19:51Z</time>
      </trkpt>
      <trkpt lat="43.04796" lon="0.54285">
        <ele>483.6</ele>
        <time>2019-09-08T13:20:40Z</time>
      </trkpt>
      <trkpt lat="43.04796" lon="0.54282">
        <ele>483.6</ele>
        <time>2019-09-08T13:22:04Z</time>
      </trkpt>
      <trkpt lat="43.04796" lon="0.54282">
        <ele>483.6</ele>
        <time>2019-09-08T13:22:41Z</time>
      </trkpt>
      <trkpt lat="43.04799" lon="0.54285">
        <ele>483.6</ele>
        <time>2019-09-08T13:23:14Z</time>
      </trkpt>
      <trkpt lat="43.048" lon="0.54286">
        <ele>483.6</ele>
        <time>2019-09-08T13:23:53Z</time>
      </trkpt>
      <trkpt lat="43.04799" lon="0.54285">
        <ele>483.6</ele>
        <time>2019-09-08T13:24:30Z</time>
      </trkpt>
      <trkpt lat="43.04798" lon="0.54285">
        <ele>483.6</ele>
        <time>2019-09-08T13:25:05Z</time>
      </trkpt>
      <trkpt lat="43.04797" lon="0.54283">
        <ele>483.6</ele>
        <time>2019-09-08T13:25:41Z</time>
      </trkpt>
      <trkpt lat="43.04796" lon="0.54283">
        <ele>483.6</ele>
        <time>2019-09-08T13:26:18Z</time>
      </trkpt>
      <trkpt lat="43.04794" lon="0.54282">
        <ele>483.6</ele>
        <time>2019-09-08T13:26:55Z</time>
      </trkpt>
      <trkpt lat="43.04797" lon="0.54285">
        <ele>483.6</ele>
        <time>2019-09-08T13:27:33Z</time>
      </trkpt>
      <trkpt lat="43.04796" lon="0.54284">
        <ele>483.6</ele>
        <time>2019-09-08T13:28:14Z</time>
      </trkpt>
      <trkpt lat="43.04795" lon="0.54286">
        <ele>483.6</ele>
        <time>2019-09-08T13:28:50Z</time>
      </trkpt>
      <trkpt lat="43.0479" lon="0.54295">
        <ele>483.6</ele>
        <time>2019-09-08T13:28:57Z</time>
      </trkpt>
      <trkpt lat="43.04785" lon="0.54294">
        <ele>487.71</ele>
        <time>2019-09-08T13:29:01Z</time>
      </trkpt>
      <trkpt lat="43.04784" lon="0.54294">
        <ele>488.07</ele>
        <time>2019-09-08T13:29:02Z</time>
      </trkpt>
      <trkpt lat="43.04781" lon="0.5429">
        <ele>488.41</ele>
        <time>2019-09-08T13:29:06Z</time>
      </trkpt>
      <trkpt lat="43.04766" lon="0.54276">
        <ele>488.19</ele>
        <time>2019-09-08T13:29:23Z</time>
      </trkpt>
      <trkpt lat="43.04757" lon="0.54263">
        <ele>488.62</ele>
        <time>2019-09-08T13:29:41Z</time>
      </trkpt>
      <trkpt lat="43.04759" lon="0.54248">
        <ele>489.18</ele>
        <time>2019-09-08T13:29:55Z</time>
      </trkpt>
      <trkpt lat="43.04766" lon="0.54227">
        <ele>489.86</ele>
        <time>2019-09-08T13:30:14Z</time>
      </trkpt>
      <trkpt lat="43.04768" lon="0.54194">
        <ele>491.4</ele>
        <time>2019-09-08T13:30:33Z</time>
      </trkpt>
      <trkpt lat="43.04768" lon="0.54189">
        <ele>491.63</ele>
        <time>2019-09-08T13:30:37Z</time>
      </trkpt>
      <trkpt lat="43.04766" lon="0.54171">
        <ele>492.28</ele>
        <time>2019-09-08T13:30:51Z</time>
      </trkpt>
      <trkpt lat="43.04768" lon="0.5417">
        <ele>492.06</ele>
        <time>2019-09-08T13:30:53Z</time>
      </trkpt>
      <trkpt lat="43.04774" lon="0.54167">
        <ele>493.16</ele>
        <time>2019-09-08T13:31:01Z</time>
      </trkpt>
      <trkpt lat="43.04775" lon="0.54167">
        <ele>493.22</ele>
        <time>2019-09-08T13:31:02Z</time>
      </trkpt>
      <trkpt lat="43.0479" lon="0.54155">
        <ele>493.21</ele>
        <time>2019-09-08T13:31:18Z</time>
      </trkpt>
      <trkpt lat="43.048" lon="0.54135">
        <ele>494.49</ele>
        <time>2019-09-08T13:31:34Z</time>
      </trkpt>
      <trkpt lat="43.04823" lon="0.5413">
        <ele>494.86</ele>
        <time>2019-09-08T13:31:56Z</time>
      </trkpt>
      <trkpt lat="43.04833" lon="0.54125">
        <ele>494.64</ele>
        <time>2019-09-08T13:32:05Z</time>
      </trkpt>
      <trkpt lat="43.04851" lon="0.54119">
        <ele>494.36</ele>
        <time>2019-09-08T13:32:18Z</time>
      </trkpt>
      <trkpt lat="43.04874" lon="0.54116">
        <ele>493.92</ele>
        <time>2019-09-08T13:32:34Z</time>
      </trkpt>
      <trkpt lat="43.04895" lon="0.54111">
        <ele>493.76</ele>
        <time>2019-09-08T13:32:55Z</time>
      </trkpt>
      <trkpt lat="43.04924" lon="0.54113">
        <ele>493.13</ele>
        <time>2019-09-08T13:33:13Z</time>
      </trkpt>
      <trkpt lat="43.04951" lon="0.54122">
        <ele>491.5</ele>
        <time>2019-09-08T13:33:31Z</time>
      </trkpt>
      <trkpt lat="43.04972" lon="0.54136">
        <ele>491.06</ele>
        <time>2019-09-08T13:33:47Z</time>
      </trkpt>
      <trkpt lat="43.04978" lon="0.54138">
        <ele>490.91</ele>
        <time>2019-09-08T13:33:53Z</time>
      </trkpt>
      <trkpt lat="43.04996" lon="0.54147">
        <ele>490.31</ele>
        <time>2019-09-08T13:34:10Z</time>
      </trkpt>
      <trkpt lat="43.05007" lon="0.54152">
        <ele>489.5</ele>
        <time>2019-09-08T13:34:19Z</time>
      </trkpt>
      <trkpt lat="43.05036" lon="0.54169">
        <ele>488.99</ele>
        <time>2019-09-08T13:34:40Z</time>
      </trkpt>
      <trkpt lat="43.05053" lon="0.5418">
        <ele>488.42</ele>
        <time>2019-09-08T13:34:56Z</time>
      </trkpt>
      <trkpt lat="43.05073" lon="0.54189">
        <ele>488.48</ele>
        <time>2019-09-08T13:35:14Z</time>
      </trkpt>
      <trkpt lat="43.05079" lon="0.54192">
        <ele>488.06</ele>
        <time>2019-09-08T13:35:19Z</time>
      </trkpt>
      <trkpt lat="43.05081" lon="0.54192">
        <ele>487.98</ele>
        <time>2019-09-08T13:35:20Z</time>
      </trkpt>
      <trkpt lat="43.05082" lon="0.54192">
        <ele>487.8</ele>
        <time>2019-09-08T13:35:21Z</time>
      </trkpt>
      <trkpt lat="43.05094" lon="0.54194">
        <ele>487.62</ele>
        <time>2019-09-08T13:35:31Z</time>
      </trkpt>
      <trkpt lat="43.05112" lon="0.54192">
        <ele>491.24</ele>
        <time>2019-09-08T13:35:49Z</time>
      </trkpt>
      <trkpt lat="43.05113" lon="0.54191">
        <ele>490.44</ele>
        <time>2019-09-08T13:35:50Z</time>
      </trkpt>
      <trkpt lat="43.05129" lon="0.54178">
        <ele>491.74</ele>
        <time>2019-09-08T13:36:07Z</time>
      </trkpt>
      <trkpt lat="43.0514" lon="0.54174">
        <ele>494.65</ele>
        <time>2019-09-08T13:36:27Z</time>
      </trkpt>
      <trkpt lat="43.05168" lon="0.5417">
        <ele>497.53</ele>
        <time>2019-09-08T13:36:49Z</time>
      </trkpt>
      <trkpt lat="43.05182" lon="0.54175">
        <ele>499.38</ele>
        <time>2019-09-08T13:37:05Z</time>
      </trkpt>
      <trkpt lat="43.05201" lon="0.5418">
        <ele>502.21</ele>
        <time>2019-09-08T13:37:25Z</time>
      </trkpt>
      <trkpt lat="43.05223" lon="0.54182">
        <ele>503.8</ele>
        <time>2019-09-08T13:37:45Z</time>
      </trkpt>
      <trkpt lat="43.05243" lon="0.54176">
        <ele>505.79</ele>
        <time>2019-09-08T13:38:01Z</time>
      </trkpt>
      <trkpt lat="43.05247" lon="0.54173">
        <ele>506.33</ele>
        <time>2019-09-08T13:38:06Z</time>
      </trkpt>
      <trkpt lat="43.05264" lon="0.54163">
        <ele>506.88</ele>
        <time>2019-09-08T13:38:19Z</time>
      </trkpt>
      <trkpt lat="43.05275" lon="0.54156">
        <ele>508.85</ele>
        <time>2019-09-08T13:38:29Z</time>
      </trkpt>
      <trkpt lat="43.05293" lon="0.54143">
        <ele>510.15</ele>
        <time>2019-09-08T13:38:48Z</time>
      </trkpt>
      <trkpt lat="43.05294" lon="0.54143">
        <ele>510.33</ele>
        <time>2019-09-08T13:38:49Z</time>
      </trkpt>
      <trkpt lat="43.05305" lon="0.54147">
        <ele>512.41</ele>
        <time>2019-09-08T13:39:08Z</time>
      </trkpt>
      <trkpt lat="43.05324" lon="0.54162">
        <ele>514.59</ele>
        <time>2019-09-08T13:39:30Z</time>
      </trkpt>
      <trkpt lat="43.05342" lon="0.54172">
        <ele>517.29</ele>
        <time>2019-09-08T13:39:49Z</time>
      </trkpt>
      <trkpt lat="43.05352" lon="0.54193">
        <ele>520.4</ele>
        <time>2019-09-08T13:40:07Z</time>
      </trkpt>
      <trkpt lat="43.05362" lon="0.54171">
        <ele>523.48</ele>
        <time>2019-09-08T13:40:27Z</time>
      </trkpt>
      <trkpt lat="43.05373" lon="0.54149">
        <ele>525.29</ele>
        <time>2019-09-08T13:40:46Z</time>
      </trkpt>
      <trkpt lat="43.05389" lon="0.54127">
        <ele>527.49</ele>
        <time>2019-09-08T13:41:06Z</time>
      </trkpt>
      <trkpt lat="43.054" lon="0.54112">
        <ele>529.44</ele>
        <time>2019-09-08T13:41:20Z</time>
      </trkpt>
      <trkpt lat="43.05412" lon="0.54106">
        <ele>531.51</ele>
        <time>2019-09-08T13:41:40Z</time>
      </trkpt>
      <trkpt lat="43.05406" lon="0.54096">
        <ele>532.18</ele>
        <time>2019-09-08T13:41:56Z</time>
      </trkpt>
      <trkpt lat="43.05411" lon="0.54068">
        <ele>534.25</ele>
        <time>2019-09-08T13:42:14Z</time>
      </trkpt>
      <trkpt lat="43.05412" lon="0.54066">
        <ele>534.97</ele>
        <time>2019-09-08T13:42:16Z</time>
      </trkpt>
      <trkpt lat="43.05426" lon="0.54039">
        <ele>537.05</ele>
        <time>2019-09-08T13:42:37Z</time>
      </trkpt>
      <trkpt lat="43.05435" lon="0.5402">
        <ele>538.8</ele>
        <time>2019-09-08T13:42:53Z</time>
      </trkpt>
      <trkpt lat="43.05438" lon="0.53999">
        <ele>541.82</ele>
        <time>2019-09-08T13:43:10Z</time>
      </trkpt>
      <trkpt lat="43.05437" lon="0.53986">
        <ele>544.94</ele>
        <time>2019-09-08T13:43:24Z</time>
      </trkpt>
      <trkpt lat="43.05437" lon="0.53971">
        <ele>547.96</ele>
        <time>2019-09-08T13:43:39Z</time>
      </trkpt>
      <trkpt lat="43.05442" lon="0.53951">
        <ele>551.12</ele>
        <time>2019-09-08T13:43:58Z</time>
      </trkpt>
      <trkpt lat="43.05448" lon="0.53932">
        <ele>554.2</ele>
        <time>2019-09-08T13:44:18Z</time>
      </trkpt>
      <trkpt lat="43.05448" lon="0.5391">
        <ele>556.05</ele>
        <time>2019-09-08T13:44:37Z</time>
      </trkpt>
      <trkpt lat="43.05455" lon="0.53892">
        <ele>557.79</ele>
        <time>2019-09-08T13:44:55Z</time>
      </trkpt>
      <trkpt lat="43.05457" lon="0.53868">
        <ele>560.33</ele>
        <time>2019-09-08T13:45:15Z</time>
      </trkpt>
      <trkpt lat="43.05455" lon="0.5384">
        <ele>562.3</ele>
        <time>2019-09-08T13:45:37Z</time>
      </trkpt>
      <trkpt lat="43.05455" lon="0.53809">
        <ele>563.19</ele>
        <time>2019-09-08T13:45:59Z</time>
      </trkpt>
      <trkpt lat="43.05455" lon="0.53781">
        <ele>562.29</ele>
        <time>2019-09-08T13:46:18Z</time>
      </trkpt>
      <trkpt lat="43.05462" lon="0.53748">
        <ele>560.25</ele>
        <time>2019-09-08T13:46:38Z</time>
      </trkpt>
      <trkpt lat="43.05473" lon="0.53722">
        <ele>558.87</ele>
        <time>2019-09-08T13:46:56Z</time>
      </trkpt>
      <trkpt lat="43.05486" lon="0.537">
        <ele>555.8</ele>
        <time>2019-09-08T13:47:15Z</time>
      </trkpt>
      <trkpt lat="43.05484" lon="0.53682">
        <ele>552.7</ele>
        <time>2019-09-08T13:47:29Z</time>
      </trkpt>
      <trkpt lat="43.05487" lon="0.53669">
        <ele>549.59</ele>
        <time>2019-09-08T13:47:39Z</time>
      </trkpt>
      <trkpt lat="43.05485" lon="0.53664">
        <ele>546.57</ele>
        <time>2019-09-08T13:47:50Z</time>
      </trkpt>
      <trkpt lat="43.05479" lon="0.53645">
        <ele>543.51</ele>
        <time>2019-09-08T13:48:00Z</time>
      </trkpt>
      <trkpt lat="43.05477" lon="0.53637">
        <ele>540.46</ele>
        <time>2019-09-08T13:48:10Z</time>
      </trkpt>
      <trkpt lat="43.05467" lon="0.53625">
        <ele>537.42</ele>
        <time>2019-09-08T13:48:20Z</time>
      </trkpt>
      <trkpt lat="43.05465" lon="0.53607">
        <ele>534.35</ele>
        <time>2019-09-08T13:48:32Z</time>
      </trkpt>
      <trkpt lat="43.05472" lon="0.5359">
        <ele>531.28</ele>
        <time>2019-09-08T13:48:44Z</time>
      </trkpt>
      <trkpt lat="43.0548" lon="0.53571">
        <ele>528.09</ele>
        <time>2019-09-08T13:48:59Z</time>
      </trkpt>
      <trkpt lat="43.05488" lon="0.53555">
        <ele>524.88</ele>
        <time>2019-09-08T13:49:12Z</time>
      </trkpt>
      <trkpt lat="43.0549" lon="0.53536">
        <ele>521.84</ele>
        <time>2019-09-08T13:49:25Z</time>
      </trkpt>
      <trkpt lat="43.05496" lon="0.53519">
        <ele>518.79</ele>
        <time>2019-09-08T13:49:38Z</time>
      </trkpt>
      <trkpt lat="43.05504" lon="0.53507">
        <ele>515.53</ele>
        <time>2019-09-08T13:49:50Z</time>
      </trkpt>
      <trkpt lat="43.05509" lon="0.53486">
        <ele>512.43</ele>
        <time>2019-09-08T13:50:06Z</time>
      </trkpt>
      <trkpt lat="43.05517" lon="0.53456">
        <ele>509.28</ele>
        <time>2019-09-08T13:50:23Z</time>
      </trkpt>
      <trkpt lat="43.05515" lon="0.53423">
        <ele>508.39</ele>
        <time>2019-09-08T13:50:41Z</time>
      </trkpt>
      <trkpt lat="43.0552" lon="0.53389">
        <ele>507.97</ele>
        <time>2019-09-08T13:51:02Z</time>
      </trkpt>
      <trkpt lat="43.05526" lon="0.53359">
        <ele>507.6</ele>
        <time>2019-09-08T13:51:18Z</time>
      </trkpt>
      <trkpt lat="43.05534" lon="0.53331">
        <ele>507.05</ele>
        <time>2019-09-08T13:51:35Z</time>
      </trkpt>
      <trkpt lat="43.05541" lon="0.53311">
        <ele>507.07</ele>
        <time>2019-09-08T13:51:52Z</time>
      </trkpt>
      <trkpt lat="43.05551" lon="0.53293">
        <ele>507.3</ele>
        <time>2019-09-08T13:52:08Z</time>
      </trkpt>
      <trkpt lat="43.05563" lon="0.53277">
        <ele>509.49</ele>
        <time>2019-09-08T13:52:28Z</time>
      </trkpt>
      <trkpt lat="43.05581" lon="0.53268">
        <ele>512.12</ele>
        <time>2019-09-08T13:52:47Z</time>
      </trkpt>
      <trkpt lat="43.05597" lon="0.53245">
        <ele>514.54</ele>
        <time>2019-09-08T13:53:06Z</time>
      </trkpt>
      <trkpt lat="43.05608" lon="0.53221">
        <ele>515.45</ele>
        <time>2019-09-08T13:53:23Z</time>
      </trkpt>
      <trkpt lat="43.05611" lon="0.5319">
        <ele>515.43</ele>
        <time>2019-09-08T13:53:44Z</time>
      </trkpt>
      <trkpt lat="43.05619" lon="0.53161">
        <ele>514.03</ele>
        <time>2019-09-08T13:54:01Z</time>
      </trkpt>
      <trkpt lat="43.05634" lon="0.53135">
        <ele>512.46</ele>
        <time>2019-09-08T13:54:21Z</time>
      </trkpt>
      <trkpt lat="43.05643" lon="0.53115">
        <ele>511.28</ele>
        <time>2019-09-08T13:54:35Z</time>
      </trkpt>
      <trkpt lat="43.05659" lon="0.53085">
        <ele>509.65</ele>
        <time>2019-09-08T13:54:55Z</time>
      </trkpt>
      <trkpt lat="43.05659" lon="0.53055">
        <ele>510.3</ele>
        <time>2019-09-08T13:55:12Z</time>
      </trkpt>
      <trkpt lat="43.05664" lon="0.53031">
        <ele>510.51</ele>
        <time>2019-09-08T13:55:28Z</time>
      </trkpt>
      <trkpt lat="43.05667" lon="0.53005">
        <ele>509.91</ele>
        <time>2019-09-08T13:55:42Z</time>
      </trkpt>
      <trkpt lat="43.05672" lon="0.52974">
        <ele>509.81</ele>
        <time>2019-09-08T13:56:02Z</time>
      </trkpt>
      <trkpt lat="43.05671" lon="0.52941">
        <ele>509.87</ele>
        <time>2019-09-08T13:56:19Z</time>
      </trkpt>
      <trkpt lat="43.05668" lon="0.52926">
        <ele>502.2</ele>
        <time>2019-09-08T13:56:28Z</time>
      </trkpt>
      <trkpt lat="43.05668" lon="0.52925">
        <ele>505.95</ele>
        <time>2019-09-08T13:56:29Z</time>
      </trkpt>
      <trkpt lat="43.05668" lon="0.52923">
        <ele>509.32</ele>
        <time>2019-09-08T13:56:32Z</time>
      </trkpt>
      <trkpt lat="43.05666" lon="0.52889">
        <ele>509.81</ele>
        <time>2019-09-08T13:56:50Z</time>
      </trkpt>
      <trkpt lat="43.05667" lon="0.52858">
        <ele>509.81</ele>
        <time>2019-09-08T13:57:07Z</time>
      </trkpt>
      <trkpt lat="43.05668" lon="0.52832">
        <ele>509.81</ele>
        <time>2019-09-08T13:57:24Z</time>
      </trkpt>
      <trkpt lat="43.05665" lon="0.52803">
        <ele>509.81</ele>
        <time>2019-09-08T13:57:41Z</time>
      </trkpt>
      <trkpt lat="43.05661" lon="0.52771">
        <ele>512.32</ele>
        <time>2019-09-08T13:58:00Z</time>
      </trkpt>
      <trkpt lat="43.05656" lon="0.52758">
        <ele>512.37</ele>
        <time>2019-09-08T13:58:09Z</time>
      </trkpt>
      <trkpt lat="43.05652" lon="0.52739">
        <ele>513.17</ele>
        <time>2019-09-08T13:58:22Z</time>
      </trkpt>
      <trkpt lat="43.05647" lon="0.52708">
        <ele>512.55</ele>
        <time>2019-09-08T13:58:40Z</time>
      </trkpt>
      <trkpt lat="43.05641" lon="0.52688">
        <ele>512.08</ele>
        <time>2019-09-08T13:58:50Z</time>
      </trkpt>
      <trkpt lat="43.05639" lon="0.52667">
        <ele>511.39</ele>
        <time>2019-09-08T13:59:04Z</time>
      </trkpt>
      <trkpt lat="43.05634" lon="0.52633">
        <ele>510.83</ele>
        <time>2019-09-08T13:59:24Z</time>
      </trkpt>
      <trkpt lat="43.05631" lon="0.52598">
        <ele>510.31</ele>
        <time>2019-09-08T13:59:43Z</time>
      </trkpt>
      <trkpt lat="43.05632" lon="0.52571">
        <ele>510.29</ele>
        <time>2019-09-08T13:59:59Z</time>
      </trkpt>
      <trkpt lat="43.05633" lon="0.52539">
        <ele>509.43</ele>
        <time>2019-09-08T14:00:16Z</time>
      </trkpt>
      <trkpt lat="43.05634" lon="0.52505">
        <ele>507.77</ele>
        <time>2019-09-08T14:00:36Z</time>
      </trkpt>
      <trkpt lat="43.05637" lon="0.52473">
        <ele>505.7</ele>
        <time>2019-09-08T14:00:55Z</time>
      </trkpt>
      <trkpt lat="43.05635" lon="0.52438">
        <ele>504.08</ele>
        <time>2019-09-08T14:01:14Z</time>
      </trkpt>
      <trkpt lat="43.05632" lon="0.52404">
        <ele>503.87</ele>
        <time>2019-09-08T14:01:35Z</time>
      </trkpt>
      <trkpt lat="43.05633" lon="0.52368">
        <ele>504.18</ele>
        <time>2019-09-08T14:01:55Z</time>
      </trkpt>
      <trkpt lat="43.05633" lon="0.52352">
        <ele>504.67</ele>
        <time>2019-09-08T14:02:04Z</time>
      </trkpt>
      <trkpt lat="43.05633" lon="0.5232">
        <ele>504.8</ele>
        <time>2019-09-08T14:02:25Z</time>
      </trkpt>
      <trkpt lat="43.05631" lon="0.52294">
        <ele>504.8</ele>
        <time>2019-09-08T14:02:43Z</time>
      </trkpt>
      <trkpt lat="43.05624" lon="0.52257">
        <ele>504.8</ele>
        <time>2019-09-08T14:03:03Z</time>
      </trkpt>
      <trkpt lat="43.05618" lon="0.52244">
        <ele>506.19</ele>
        <time>2019-09-08T14:03:18Z</time>
      </trkpt>
      <trkpt lat="43.05605" lon="0.52209">
        <ele>506.59</ele>
        <time>2019-09-08T14:03:36Z</time>
      </trkpt>
      <trkpt lat="43.05591" lon="0.52184">
        <ele>507.02</ele>
        <time>2019-09-08T14:03:52Z</time>
      </trkpt>
      <trkpt lat="43.05584" lon="0.52173">
        <ele>507.5</ele>
        <time>2019-09-08T14:04:00Z</time>
      </trkpt>
      <trkpt lat="43.05576" lon="0.52154">
        <ele>507.5</ele>
        <time>2019-09-08T14:04:13Z</time>
      </trkpt>
      <trkpt lat="43.05571" lon="0.52142">
        <ele>506.75</ele>
        <time>2019-09-08T14:04:26Z</time>
      </trkpt>
      <trkpt lat="43.05566" lon="0.52134">
        <ele>506.54</ele>
        <time>2019-09-08T14:04:31Z</time>
      </trkpt>
      <trkpt lat="43.05556" lon="0.52118">
        <ele>506.28</ele>
        <time>2019-09-08T14:04:46Z</time>
      </trkpt>
      <trkpt lat="43.05555" lon="0.52116">
        <ele>506.48</ele>
        <time>2019-09-08T14:05:08Z</time>
      </trkpt>
      <trkpt lat="43.05556" lon="0.52103">
        <ele>505.91</ele>
        <time>2019-09-08T14:05:32Z</time>
      </trkpt>
      <trkpt lat="43.05561" lon="0.52085">
        <ele>503.71</ele>
        <time>2019-09-08T14:05:46Z</time>
      </trkpt>
      <trkpt lat="43.05561" lon="0.52084">
        <ele>503.54</ele>
        <time>2019-09-08T14:05:47Z</time>
      </trkpt>
      <trkpt lat="43.05561" lon="0.52082">
        <ele>503.38</ele>
        <time>2019-09-08T14:05:48Z</time>
      </trkpt>
      <trkpt lat="43.05548" lon="0.52072">
        <ele>502.79</ele>
        <time>2019-09-08T14:06:02Z</time>
      </trkpt>
      <trkpt lat="43.05542" lon="0.52069">
        <ele>503.41</ele>
        <time>2019-09-08T14:06:08Z</time>
      </trkpt>
      <trkpt lat="43.05524" lon="0.52057">
        <ele>504.42</ele>
        <time>2019-09-08T14:06:26Z</time>
      </trkpt>
      <trkpt lat="43.05506" lon="0.52048">
        <ele>505.88</ele>
        <time>2019-09-08T14:06:43Z</time>
      </trkpt>
      <trkpt lat="43.05484" lon="0.52038">
        <ele>507.06</ele>
        <time>2019-09-08T14:07:00Z</time>
      </trkpt>
      <trkpt lat="43.05463" lon="0.52027">
        <ele>508.29</ele>
        <time>2019-09-08T14:07:19Z</time>
      </trkpt>
      <trkpt lat="43.0545" lon="0.52024">
        <ele>508.71</ele>
        <time>2019-09-08T14:07:34Z</time>
      </trkpt>
      <trkpt lat="43.05427" lon="0.52016">
        <ele>509.91</ele>
        <time>2019-09-08T14:07:52Z</time>
      </trkpt>
      <trkpt lat="43.05405" lon="0.5201">
        <ele>510.65</ele>
        <time>2019-09-08T14:08:10Z</time>
      </trkpt>
      <trkpt lat="43.05389" lon="0.52005">
        <ele>511.89</ele>
        <time>2019-09-08T14:08:22Z</time>
      </trkpt>
      <trkpt lat="43.05364" lon="0.52007">
        <ele>512.62</ele>
        <time>2019-09-08T14:08:41Z</time>
      </trkpt>
      <trkpt lat="43.05339" lon="0.52014">
        <ele>512.76</ele>
        <time>2019-09-08T14:09:00Z</time>
      </trkpt>
      <trkpt lat="43.05318" lon="0.52029">
        <ele>513.03</ele>
        <time>2019-09-08T14:09:18Z</time>
      </trkpt>
      <trkpt lat="43.05295" lon="0.52035">
        <ele>512.62</ele>
        <time>2019-09-08T14:09:37Z</time>
      </trkpt>
      <trkpt lat="43.05283" lon="0.52037">
        <ele>512.66</ele>
        <time>2019-09-08T14:09:46Z</time>
      </trkpt>
      <trkpt lat="43.05256" lon="0.52048">
        <ele>512.93</ele>
        <time>2019-09-08T14:10:07Z</time>
      </trkpt>
      <trkpt lat="43.05231" lon="0.5206">
        <ele>512.54</ele>
        <time>2019-09-08T14:10:25Z</time>
      </trkpt>
      <trkpt lat="43.05224" lon="0.52064">
        <ele>512.32</ele>
        <time>2019-09-08T14:10:30Z</time>
      </trkpt>
      <trkpt lat="43.05199" lon="0.52077">
        <ele>511.48</ele>
        <time>2019-09-08T14:10:50Z</time>
      </trkpt>
      <trkpt lat="43.05194" lon="0.52078">
        <ele>511.26</ele>
        <time>2019-09-08T14:10:55Z</time>
      </trkpt>
      <trkpt lat="43.05174" lon="0.52087">
        <ele>510.65</ele>
        <time>2019-09-08T14:11:11Z</time>
      </trkpt>
      <trkpt lat="43.05155" lon="0.52097">
        <ele>510.23</ele>
        <time>2019-09-08T14:11:25Z</time>
      </trkpt>
      <trkpt lat="43.05136" lon="0.52107">
        <ele>509.74</ele>
        <time>2019-09-08T14:11:40Z</time>
      </trkpt>
      <trkpt lat="43.05118" lon="0.52117">
        <ele>508.94</ele>
        <time>2019-09-08T14:11:55Z</time>
      </trkpt>
      <trkpt lat="43.05095" lon="0.52123">
        <ele>508.58</ele>
        <time>2019-09-08T14:12:12Z</time>
      </trkpt>
      <trkpt lat="43.05079" lon="0.52129">
        <ele>508.7</ele>
        <time>2019-09-08T14:12:25Z</time>
      </trkpt>
      <trkpt lat="43.05058" lon="0.5214">
        <ele>507.96</ele>
        <time>2019-09-08T14:12:42Z</time>
      </trkpt>
      <trkpt lat="43.05038" lon="0.52147">
        <ele>507.86</ele>
        <time>2019-09-08T14:12:57Z</time>
      </trkpt>
      <trkpt lat="43.05034" lon="0.52149">
        <ele>507.96</ele>
        <time>2019-09-08T14:13:00Z</time>
      </trkpt>
      <trkpt lat="43.05015" lon="0.52165">
        <ele>507.73</ele>
        <time>2019-09-08T14:13:17Z</time>
      </trkpt>
      <trkpt lat="43.05013" lon="0.52166">
        <ele>507.69</ele>
        <time>2019-09-08T14:13:18Z</time>
      </trkpt>
      <trkpt lat="43.05008" lon="0.52171">
        <ele>507.46</ele>
        <time>2019-09-08T14:13:22Z</time>
      </trkpt>
      <trkpt lat="43.04985" lon="0.52184">
        <ele>506.63</ele>
        <time>2019-09-08T14:13:38Z</time>
      </trkpt>
      <trkpt lat="43.04968" lon="0.52188">
        <ele>506.21</ele>
        <time>2019-09-08T14:13:52Z</time>
      </trkpt>
      <trkpt lat="43.04961" lon="0.52186">
        <ele>506.01</ele>
        <time>2019-09-08T14:13:57Z</time>
      </trkpt>
      <trkpt lat="43.0496" lon="0.52185">
        <ele>505.93</ele>
        <time>2019-09-08T14:13:58Z</time>
      </trkpt>
      <trkpt lat="43.0494" lon="0.52171">
        <ele>506.04</ele>
        <time>2019-09-08T14:14:17Z</time>
      </trkpt>
      <trkpt lat="43.04921" lon="0.52157">
        <ele>506.32</ele>
        <time>2019-09-08T14:14:33Z</time>
      </trkpt>
      <trkpt lat="43.04898" lon="0.52157">
        <ele>506.7</ele>
        <time>2019-09-08T14:14:51Z</time>
      </trkpt>
      <trkpt lat="43.0488" lon="0.52166">
        <ele>507.22</ele>
        <time>2019-09-08T14:15:06Z</time>
      </trkpt>
      <trkpt lat="43.04869" lon="0.52189">
        <ele>507.73</ele>
        <time>2019-09-08T14:15:19Z</time>
      </trkpt>
      <trkpt lat="43.04866" lon="0.52211">
        <ele>507.92</ele>
        <time>2019-09-08T14:15:35Z</time>
      </trkpt>
      <trkpt lat="43.04865" lon="0.52231">
        <ele>507.95</ele>
        <time>2019-09-08T14:15:44Z</time>
      </trkpt>
      <trkpt lat="43.04865" lon="0.52233">
        <ele>507.95</ele>
        <time>2019-09-08T14:15:45Z</time>
      </trkpt>
      <trkpt lat="43.04856" lon="0.52264">
        <ele>507.83</ele>
        <time>2019-09-08T14:16:02Z</time>
      </trkpt>
      <trkpt lat="43.04853" lon="0.5227">
        <ele>507.69</ele>
        <time>2019-09-08T14:16:06Z</time>
      </trkpt>
      <trkpt lat="43.04842" lon="0.52289">
        <ele>507.6</ele>
        <time>2019-09-08T14:16:20Z</time>
      </trkpt>
      <trkpt lat="43.04823" lon="0.52306">
        <ele>507.47</ele>
        <time>2019-09-08T14:16:36Z</time>
      </trkpt>
      <trkpt lat="43.04822" lon="0.52307">
        <ele>507.51</ele>
        <time>2019-09-08T14:16:37Z</time>
      </trkpt>
      <trkpt lat="43.04821" lon="0.52308">
        <ele>507.51</ele>
        <time>2019-09-08T14:16:38Z</time>
      </trkpt>
      <trkpt lat="43.04819" lon="0.52309">
        <ele>507.44</ele>
        <time>2019-09-08T14:16:39Z</time>
      </trkpt>
      <trkpt lat="43.04818" lon="0.5231">
        <ele>507.36</ele>
        <time>2019-09-08T14:16:40Z</time>
      </trkpt>
      <trkpt lat="43.04817" lon="0.52311">
        <ele>507.3</ele>
        <time>2019-09-08T14:16:41Z</time>
      </trkpt>
      <trkpt lat="43.04816" lon="0.52312">
        <ele>507.28</ele>
        <time>2019-09-08T14:16:42Z</time>
      </trkpt>
      <trkpt lat="43.04795" lon="0.52328">
        <ele>507.11</ele>
        <time>2019-09-08T14:16:59Z</time>
      </trkpt>
      <trkpt lat="43.04774" lon="0.52345">
        <ele>507.32</ele>
        <time>2019-09-08T14:17:17Z</time>
      </trkpt>
      <trkpt lat="43.04764" lon="0.5235">
        <ele>507.06</ele>
        <time>2019-09-08T14:17:25Z</time>
      </trkpt>
      <trkpt lat="43.04761" lon="0.52352">
        <ele>507.02</ele>
        <time>2019-09-08T14:17:27Z</time>
      </trkpt>
      <trkpt lat="43.04759" lon="0.52353">
        <ele>507.01</ele>
        <time>2019-09-08T14:17:28Z</time>
      </trkpt>
      <trkpt lat="43.04736" lon="0.52368">
        <ele>506.84</ele>
        <time>2019-09-08T14:17:45Z</time>
      </trkpt>
      <trkpt lat="43.04715" lon="0.52378">
        <ele>507.06</ele>
        <time>2019-09-08T14:18:03Z</time>
      </trkpt>
      <trkpt lat="43.047" lon="0.52389">
        <ele>507.17</ele>
        <time>2019-09-08T14:18:15Z</time>
      </trkpt>
      <trkpt lat="43.04682" lon="0.52396">
        <ele>507.42</ele>
        <time>2019-09-08T14:18:31Z</time>
      </trkpt>
      <trkpt lat="43.04668" lon="0.52399">
        <ele>507.57</ele>
        <time>2019-09-08T14:18:40Z</time>
      </trkpt>
      <trkpt lat="43.04642" lon="0.52397">
        <ele>506.95</ele>
        <time>2019-09-08T14:18:58Z</time>
      </trkpt>
      <trkpt lat="43.0464" lon="0.52396">
        <ele>506.85</ele>
        <time>2019-09-08T14:19:00Z</time>
      </trkpt>
      <trkpt lat="43.04629" lon="0.52386">
        <ele>506.37</ele>
        <time>2019-09-08T14:19:11Z</time>
      </trkpt>
      <trkpt lat="43.04608" lon="0.52379">
        <ele>506.27</ele>
        <time>2019-09-08T14:19:26Z</time>
      </trkpt>
      <trkpt lat="43.04607" lon="0.52379">
        <ele>506.25</ele>
        <time>2019-09-08T14:19:27Z</time>
      </trkpt>
      <trkpt lat="43.04588" lon="0.52379">
        <ele>505.91</ele>
        <time>2019-09-08T14:19:40Z</time>
      </trkpt>
      <trkpt lat="43.04562" lon="0.52378">
        <ele>504.35</ele>
        <time>2019-09-08T14:20:00Z</time>
      </trkpt>
      <trkpt lat="43.04559" lon="0.52378">
        <ele>504.14</ele>
        <time>2019-09-08T14:20:02Z</time>
      </trkpt>
      <trkpt lat="43.04557" lon="0.52378">
        <ele>504.03</ele>
        <time>2019-09-08T14:20:03Z</time>
      </trkpt>
      <trkpt lat="43.04556" lon="0.52378">
        <ele>503.97</ele>
        <time>2019-09-08T14:20:04Z</time>
      </trkpt>
      <trkpt lat="43.04554" lon="0.52378">
        <ele>503.95</ele>
        <time>2019-09-08T14:20:05Z</time>
      </trkpt>
      <trkpt lat="43.04553" lon="0.52377">
        <ele>503.91</ele>
        <time>2019-09-08T14:20:06Z</time>
      </trkpt>
      <trkpt lat="43.04552" lon="0.52377">
        <ele>503.82</ele>
        <time>2019-09-08T14:20:07Z</time>
      </trkpt>
      <trkpt lat="43.04522" lon="0.52379">
        <ele>503.65</ele>
        <time>2019-09-08T14:20:28Z</time>
      </trkpt>
      <trkpt lat="43.04481" lon="0.52381">
        <ele>501.96</ele>
        <time>2019-09-08T14:20:58Z</time>
      </trkpt>
      <trkpt lat="43.04442" lon="0.52382">
        <ele>500.41</ele>
        <time>2019-09-08T14:21:26Z</time>
      </trkpt>
      <trkpt lat="43.04415" lon="0.52377">
        <ele>499.56</ele>
        <time>2019-09-08T14:21:48Z</time>
      </trkpt>
      <trkpt lat="43.04412" lon="0.52377">
        <ele>499.49</ele>
        <time>2019-09-08T14:21:51Z</time>
      </trkpt>
      <trkpt lat="43.04412" lon="0.52376">
        <ele>499.49</ele>
        <time>2019-09-08T14:21:52Z</time>
      </trkpt>
      <trkpt lat="43.04415" lon="0.52368">
        <ele>499.04</ele>
        <time>2019-09-08T14:21:59Z</time>
      </trkpt>
      <trkpt lat="43.04421" lon="0.52332">
        <ele>496.88</ele>
        <time>2019-09-08T14:22:17Z</time>
      </trkpt>
      <trkpt lat="43.04426" lon="0.52314">
        <ele>496.85</ele>
        <time>2019-09-08T14:22:31Z</time>
      </trkpt>
      <trkpt lat="43.04435" lon="0.52304">
        <ele>496.68</ele>
        <time>2019-09-08T14:22:50Z</time>
      </trkpt>
      <trkpt lat="43.04435" lon="0.5231">
        <ele>495.54</ele>
        <time>2019-09-08T14:23:10Z</time>
      </trkpt>
      <trkpt lat="43.04432" lon="0.52299">
        <ele>495.93</ele>
        <time>2019-09-08T14:23:37Z</time>
      </trkpt>
      <trkpt lat="43.04424" lon="0.52302">
        <ele>496.82</ele>
        <time>2019-09-08T14:23:49Z</time>
      </trkpt>
      <trkpt lat="43.0442" lon="0.52306">
        <ele>496.57</ele>
        <time>2019-09-08T14:24:07Z</time>
      </trkpt>
      <trkpt lat="43.04428" lon="0.52304">
        <ele>496.98</ele>
        <time>2019-09-08T14:24:38Z</time>
      </trkpt>
      <trkpt lat="43.04445" lon="0.52283">
        <ele>498</ele>
        <time>2019-09-08T14:24:57Z</time>
      </trkpt>
      <trkpt lat="43.04453" lon="0.52268">
        <ele>500.33</ele>
        <time>2019-09-08T14:25:14Z</time>
      </trkpt>
      <trkpt lat="43.04466" lon="0.52246">
        <ele>503.14</ele>
        <time>2019-09-08T14:25:34Z</time>
      </trkpt>
      <trkpt lat="43.04478" lon="0.52239">
        <ele>505.47</ele>
        <time>2019-09-08T14:25:53Z</time>
      </trkpt>
      <trkpt lat="43.04487" lon="0.52235">
        <ele>508.31</ele>
        <time>2019-09-08T14:26:12Z</time>
      </trkpt>
      <trkpt lat="43.04499" lon="0.52232">
        <ele>510.78</ele>
        <time>2019-09-08T14:26:27Z</time>
      </trkpt>
      <trkpt lat="43.04511" lon="0.52232">
        <ele>512.33</ele>
        <time>2019-09-08T14:26:37Z</time>
      </trkpt>
      <trkpt lat="43.04523" lon="0.52227">
        <ele>515.4</ele>
        <time>2019-09-08T14:26:54Z</time>
      </trkpt>
      <trkpt lat="43.04537" lon="0.52218">
        <ele>518.44</ele>
        <time>2019-09-08T14:27:14Z</time>
      </trkpt>
      <trkpt lat="43.04563" lon="0.52201">
        <ele>520.7</ele>
        <time>2019-09-08T14:27:32Z</time>
      </trkpt>
      <trkpt lat="43.04572" lon="0.522">
        <ele>520.75</ele>
        <time>2019-09-08T14:27:54Z</time>
      </trkpt>
      <trkpt lat="43.04584" lon="0.52194">
        <ele>519.05</ele>
        <time>2019-09-08T14:28:11Z</time>
      </trkpt>
      <trkpt lat="43.04585" lon="0.52193">
        <ele>518.83</ele>
        <time>2019-09-08T14:28:12Z</time>
      </trkpt>
      <trkpt lat="43.04594" lon="0.52188">
        <ele>516.16</ele>
        <time>2019-09-08T14:28:22Z</time>
      </trkpt>
      <trkpt lat="43.04625" lon="0.52161">
        <ele>513.33</ele>
        <time>2019-09-08T14:28:43Z</time>
      </trkpt>
      <trkpt lat="43.04645" lon="0.52143">
        <ele>511.7</ele>
        <time>2019-09-08T14:29:02Z</time>
      </trkpt>
      <trkpt lat="43.04675" lon="0.52107">
        <ele>511.43</ele>
        <time>2019-09-08T14:29:23Z</time>
      </trkpt>
      <trkpt lat="43.04684" lon="0.52093">
        <ele>508.64</ele>
        <time>2019-09-08T14:29:42Z</time>
      </trkpt>
      <trkpt lat="43.04696" lon="0.52069">
        <ele>507.28</ele>
        <time>2019-09-08T14:30:03Z</time>
      </trkpt>
      <trkpt lat="43.0471" lon="0.52055">
        <ele>505.84</ele>
        <time>2019-09-08T14:30:21Z</time>
      </trkpt>
      <trkpt lat="43.04729" lon="0.52044">
        <ele>506.18</ele>
        <time>2019-09-08T14:30:41Z</time>
      </trkpt>
      <trkpt lat="43.04732" lon="0.52042">
        <ele>506.02</ele>
        <time>2019-09-08T14:30:44Z</time>
      </trkpt>
      <trkpt lat="43.04738" lon="0.52039">
        <ele>505.95</ele>
        <time>2019-09-08T14:30:47Z</time>
      </trkpt>
      <trkpt lat="43.04763" lon="0.52031">
        <ele>506.93</ele>
        <time>2019-09-08T14:31:05Z</time>
      </trkpt>
      <trkpt lat="43.04783" lon="0.5203">
        <ele>510.07</ele>
        <time>2019-09-08T14:31:23Z</time>
      </trkpt>
      <trkpt lat="43.04791" lon="0.52026">
        <ele>511.5</ele>
        <time>2019-09-08T14:31:34Z</time>
      </trkpt>
      <trkpt lat="43.04803" lon="0.52015">
        <ele>512.36</ele>
        <time>2019-09-08T14:31:45Z</time>
      </trkpt>
      <trkpt lat="43.04818" lon="0.51992">
        <ele>511.3</ele>
        <time>2019-09-08T14:32:05Z</time>
      </trkpt>
      <trkpt lat="43.04827" lon="0.51988">
        <ele>507.64</ele>
        <time>2019-09-08T14:32:18Z</time>
      </trkpt>
      <trkpt lat="43.04853" lon="0.52">
        <ele>504.24</ele>
        <time>2019-09-08T14:32:35Z</time>
      </trkpt>
      <trkpt lat="43.04865" lon="0.52014">
        <ele>501.18</ele>
        <time>2019-09-08T14:32:43Z</time>
      </trkpt>
      <trkpt lat="43.04867" lon="0.52016">
        <ele>498.05</ele>
        <time>2019-09-08T14:32:52Z</time>
      </trkpt>
      <trkpt lat="43.04878" lon="0.52011">
        <ele>494.93</ele>
        <time>2019-09-08T14:33:02Z</time>
      </trkpt>
      <trkpt lat="43.04892" lon="0.51997">
        <ele>492.5</ele>
        <time>2019-09-08T14:33:20Z</time>
      </trkpt>
      <trkpt lat="43.04895" lon="0.52002">
        <ele>489.3</ele>
        <time>2019-09-08T14:33:32Z</time>
      </trkpt>
      <trkpt lat="43.04901" lon="0.52006">
        <ele>486.18</ele>
        <time>2019-09-08T14:33:47Z</time>
      </trkpt>
      <trkpt lat="43.04909" lon="0.52015">
        <ele>483.16</ele>
        <time>2019-09-08T14:34:01Z</time>
      </trkpt>
      <trkpt lat="43.0492" lon="0.52019">
        <ele>480.12</ele>
        <time>2019-09-08T14:34:17Z</time>
      </trkpt>
      <trkpt lat="43.04914" lon="0.52042">
        <ele>478.81</ele>
        <time>2019-09-08T14:34:38Z</time>
      </trkpt>
      <trkpt lat="43.04901" lon="0.52048">
        <ele>479.17</ele>
        <time>2019-09-08T14:34:57Z</time>
      </trkpt>
      <trkpt lat="43.04906" lon="0.52043">
        <ele>479.19</ele>
        <time>2019-09-08T14:35:14Z</time>
      </trkpt>
      <trkpt lat="43.04918" lon="0.52033">
        <ele>476.01</ele>
        <time>2019-09-08T14:35:32Z</time>
      </trkpt>
      <trkpt lat="43.04924" lon="0.52035">
        <ele>472.62</ele>
        <time>2019-09-08T14:35:41Z</time>
      </trkpt>
      <trkpt lat="43.04934" lon="0.52037">
        <ele>469.61</ele>
        <time>2019-09-08T14:35:53Z</time>
      </trkpt>
      <trkpt lat="43.04953" lon="0.52011">
        <ele>469.59</ele>
        <time>2019-09-08T14:36:10Z</time>
      </trkpt>
      <trkpt lat="43.04968" lon="0.51997">
        <ele>469.38</ele>
        <time>2019-09-08T14:36:27Z</time>
      </trkpt>
      <trkpt lat="43.04984" lon="0.51974">
        <ele>469</ele>
        <time>2019-09-08T14:36:48Z</time>
      </trkpt>
      <trkpt lat="43.04997" lon="0.51963">
        <ele>469.01</ele>
        <time>2019-09-08T14:37:06Z</time>
      </trkpt>
      <trkpt lat="43.05009" lon="0.51968">
        <ele>468.79</ele>
        <time>2019-09-08T14:37:24Z</time>
      </trkpt>
      <trkpt lat="43.05038" lon="0.51954">
        <ele>468.43</ele>
        <time>2019-09-08T14:37:37Z</time>
      </trkpt>
      <trkpt lat="43.05057" lon="0.5195">
        <ele>467.99</ele>
        <time>2019-09-08T14:37:53Z</time>
      </trkpt>
      <trkpt lat="43.05076" lon="0.51946">
        <ele>468.29</ele>
        <time>2019-09-08T14:38:09Z</time>
      </trkpt>
      <trkpt lat="43.05097" lon="0.51939">
        <ele>467.67</ele>
        <time>2019-09-08T14:38:30Z</time>
      </trkpt>
      <trkpt lat="43.05111" lon="0.51916">
        <ele>467.43</ele>
        <time>2019-09-08T14:38:47Z</time>
      </trkpt>
      <trkpt lat="43.05122" lon="0.5189">
        <ele>467.23</ele>
        <time>2019-09-08T14:39:06Z</time>
      </trkpt>
      <trkpt lat="43.05108" lon="0.51877">
        <ele>467.13</ele>
        <time>2019-09-08T14:39:21Z</time>
      </trkpt>
      <trkpt lat="43.05101" lon="0.51853">
        <ele>466.51</ele>
        <time>2019-09-08T14:39:38Z</time>
      </trkpt>
      <trkpt lat="43.05104" lon="0.51832">
        <ele>466.35</ele>
        <time>2019-09-08T14:39:54Z</time>
      </trkpt>
      <trkpt lat="43.0511" lon="0.51815">
        <ele>466.51</ele>
        <time>2019-09-08T14:40:09Z</time>
      </trkpt>
      <trkpt lat="43.05115" lon="0.51789">
        <ele>466.91</ele>
        <time>2019-09-08T14:40:25Z</time>
      </trkpt>
      <trkpt lat="43.0512" lon="0.51769">
        <ele>467.02</ele>
        <time>2019-09-08T14:40:42Z</time>
      </trkpt>
      <trkpt lat="43.0512" lon="0.51769">
        <ele>470.9</ele>
        <time>2019-09-08T14:40:43Z</time>
      </trkpt>
      <trkpt lat="43.05121" lon="0.51769">
        <ele>468.96</ele>
        <time>2019-09-08T14:40:44Z</time>
      </trkpt>
      <trkpt lat="43.05125" lon="0.51769">
        <ele>467.21</ele>
        <time>2019-09-08T14:40:47Z</time>
      </trkpt>
      <trkpt lat="43.0515" lon="0.51774">
        <ele>466.96</ele>
        <time>2019-09-08T14:41:04Z</time>
      </trkpt>
      <trkpt lat="43.05166" lon="0.51779">
        <ele>466.75</ele>
        <time>2019-09-08T14:41:22Z</time>
      </trkpt>
      <trkpt lat="43.05175" lon="0.5178">
        <ele>466.64</ele>
        <time>2019-09-08T14:41:28Z</time>
      </trkpt>
      <trkpt lat="43.05184" lon="0.51778">
        <ele>466.51</ele>
        <time>2019-09-08T14:41:33Z</time>
      </trkpt>
      <trkpt lat="43.05201" lon="0.51785">
        <ele>466.17</ele>
        <time>2019-09-08T14:41:49Z</time>
      </trkpt>
      <trkpt lat="43.05209" lon="0.51787">
        <ele>465.94</ele>
        <time>2019-09-08T14:42:03Z</time>
      </trkpt>
      <trkpt lat="43.05228" lon="0.51783">
        <ele>465.6</ele>
        <time>2019-09-08T14:42:19Z</time>
      </trkpt>
      <trkpt lat="43.05242" lon="0.51761">
        <ele>465.42</ele>
        <time>2019-09-08T14:42:34Z</time>
      </trkpt>
      <trkpt lat="43.05254" lon="0.5174">
        <ele>465.34</ele>
        <time>2019-09-08T14:42:51Z</time>
      </trkpt>
      <trkpt lat="43.0525" lon="0.51728">
        <ele>466.53</ele>
        <time>2019-09-08T14:43:09Z</time>
      </trkpt>
      <trkpt lat="43.05249" lon="0.51727">
        <ele>466.53</ele>
        <time>2019-09-08T14:43:11Z</time>
      </trkpt>
      <trkpt lat="43.05249" lon="0.51712">
        <ele>466.53</ele>
        <time>2019-09-08T14:43:33Z</time>
      </trkpt>
      <trkpt lat="43.05262" lon="0.51702">
        <ele>466.53</ele>
        <time>2019-09-08T14:43:57Z</time>
      </trkpt>
      <trkpt lat="43.05269" lon="0.51696">
        <ele>475.41</ele>
        <time>2019-09-08T14:44:05Z</time>
      </trkpt>
      <trkpt lat="43.05268" lon="0.51694">
        <ele>475.39</ele>
        <time>2019-09-08T14:44:06Z</time>
      </trkpt>
      <trkpt lat="43.05263" lon="0.51686">
        <ele>478.56</ele>
        <time>2019-09-08T14:44:29Z</time>
      </trkpt>
      <trkpt lat="43.05266" lon="0.51668">
        <ele>481.68</ele>
        <time>2019-09-08T14:44:46Z</time>
      </trkpt>
      <trkpt lat="43.05274" lon="0.51657">
        <ele>484.73</ele>
        <time>2019-09-08T14:45:06Z</time>
      </trkpt>
      <trkpt lat="43.05293" lon="0.51618">
        <ele>487.16</ele>
        <time>2019-09-08T14:45:37Z</time>
      </trkpt>
      <trkpt lat="43.05307" lon="0.51604">
        <ele>488.58</ele>
        <time>2019-09-08T14:45:58Z</time>
      </trkpt>
      <trkpt lat="43.05326" lon="0.51613">
        <ele>491.62</ele>
        <time>2019-09-08T14:46:18Z</time>
      </trkpt>
      <trkpt lat="43.05341" lon="0.51606">
        <ele>493.22</ele>
        <time>2019-09-08T14:46:41Z</time>
      </trkpt>
      <trkpt lat="43.05367" lon="0.51593">
        <ele>490.1</ele>
        <time>2019-09-08T14:47:00Z</time>
      </trkpt>
      <trkpt lat="43.05365" lon="0.51564">
        <ele>487.33</ele>
        <time>2019-09-08T14:47:18Z</time>
      </trkpt>
      <trkpt lat="43.05361" lon="0.51538">
        <ele>485.87</ele>
        <time>2019-09-08T14:47:36Z</time>
      </trkpt>
      <trkpt lat="43.05363" lon="0.5152">
        <ele>484.37</ele>
        <time>2019-09-08T14:47:46Z</time>
      </trkpt>
      <trkpt lat="43.05359" lon="0.51481">
        <ele>482.14</ele>
        <time>2019-09-08T14:48:11Z</time>
      </trkpt>
      <trkpt lat="43.05356" lon="0.51443">
        <ele>480.55</ele>
        <time>2019-09-08T14:48:33Z</time>
      </trkpt>
      <trkpt lat="43.0537" lon="0.51422">
        <ele>478.53</ele>
        <time>2019-09-08T14:48:53Z</time>
      </trkpt>
      <trkpt lat="43.05378" lon="0.51395">
        <ele>475.41</ele>
        <time>2019-09-08T14:49:11Z</time>
      </trkpt>
      <trkpt lat="43.05386" lon="0.51382">
        <ele>472.25</ele>
        <time>2019-09-08T14:49:22Z</time>
      </trkpt>
      <trkpt lat="43.05395" lon="0.51365">
        <ele>469.13</ele>
        <time>2019-09-08T14:49:37Z</time>
      </trkpt>
      <trkpt lat="43.05406" lon="0.51333">
        <ele>466.04</ele>
        <time>2019-09-08T14:49:56Z</time>
      </trkpt>
      <trkpt lat="43.0541" lon="0.51313">
        <ele>462.89</ele>
        <time>2019-09-08T14:50:11Z</time>
      </trkpt>
      <trkpt lat="43.05419" lon="0.5129">
        <ele>459.87</ele>
        <time>2019-09-08T14:50:31Z</time>
      </trkpt>
      <trkpt lat="43.05435" lon="0.51269">
        <ele>458.29</ele>
        <time>2019-09-08T14:50:51Z</time>
      </trkpt>
      <trkpt lat="43.05456" lon="0.51247">
        <ele>456.97</ele>
        <time>2019-09-08T14:51:15Z</time>
      </trkpt>
      <trkpt lat="43.05468" lon="0.51237">
        <ele>456.56</ele>
        <time>2019-09-08T14:51:27Z</time>
      </trkpt>
      <trkpt lat="43.05483" lon="0.5122">
        <ele>456.14</ele>
        <time>2019-09-08T14:51:43Z</time>
      </trkpt>
      <trkpt lat="43.05493" lon="0.51193">
        <ele>455.02</ele>
        <time>2019-09-08T14:52:03Z</time>
      </trkpt>
      <trkpt lat="43.05497" lon="0.51181">
        <ele>455.26</ele>
        <time>2019-09-08T14:52:22Z</time>
      </trkpt>
      <trkpt lat="43.05508" lon="0.51173">
        <ele>456.77</ele>
        <time>2019-09-08T14:52:38Z</time>
      </trkpt>
      <trkpt lat="43.05519" lon="0.5117">
        <ele>455.68</ele>
        <time>2019-09-08T14:52:51Z</time>
      </trkpt>
      <trkpt lat="43.0554" lon="0.51156">
        <ele>455.08</ele>
        <time>2019-09-08T14:53:09Z</time>
      </trkpt>
      <trkpt lat="43.05562" lon="0.51141">
        <ele>454.96</ele>
        <time>2019-09-08T14:53:30Z</time>
      </trkpt>
      <trkpt lat="43.05578" lon="0.51127">
        <ele>456</ele>
        <time>2019-09-08T14:53:46Z</time>
      </trkpt>
      <trkpt lat="43.05579" lon="0.51126">
        <ele>456.13</ele>
        <time>2019-09-08T14:53:47Z</time>
      </trkpt>
      <trkpt lat="43.05581" lon="0.51124">
        <ele>456.42</ele>
        <time>2019-09-08T14:53:50Z</time>
      </trkpt>
      <trkpt lat="43.05582" lon="0.51122">
        <ele>456.48</ele>
        <time>2019-09-08T14:53:51Z</time>
      </trkpt>
      <trkpt lat="43.05598" lon="0.51105">
        <ele>457.25</ele>
        <time>2019-09-08T14:54:08Z</time>
      </trkpt>
      <trkpt lat="43.05611" lon="0.51085">
        <ele>457.72</ele>
        <time>2019-09-08T14:54:26Z</time>
      </trkpt>
      <trkpt lat="43.05619" lon="0.51059">
        <ele>459.36</ele>
        <time>2019-09-08T14:54:44Z</time>
      </trkpt>
      <trkpt lat="43.05627" lon="0.51032">
        <ele>461.42</ele>
        <time>2019-09-08T14:55:05Z</time>
      </trkpt>
      <trkpt lat="43.05635" lon="0.51011">
        <ele>463.33</ele>
        <time>2019-09-08T14:55:21Z</time>
      </trkpt>
      <trkpt lat="43.0565" lon="0.50996">
        <ele>465.11</ele>
        <time>2019-09-08T14:55:34Z</time>
      </trkpt>
      <trkpt lat="43.05657" lon="0.50988">
        <ele>466.07</ele>
        <time>2019-09-08T14:55:45Z</time>
      </trkpt>
      <trkpt lat="43.05673" lon="0.50975">
        <ele>467.94</ele>
        <time>2019-09-08T14:56:04Z</time>
      </trkpt>
      <trkpt lat="43.05687" lon="0.50982">
        <ele>469.01</ele>
        <time>2019-09-08T14:56:17Z</time>
      </trkpt>
      <trkpt lat="43.05687" lon="0.50987">
        <ele>469.31</ele>
        <time>2019-09-08T14:56:30Z</time>
      </trkpt>
      <trkpt lat="43.05676" lon="0.50988">
        <ele>469.24</ele>
        <time>2019-09-08T14:56:48Z</time>
      </trkpt>
      <trkpt lat="43.05679" lon="0.50989">
        <ele>469.26</ele>
        <time>2019-09-08T14:57:11Z</time>
      </trkpt>
      <trkpt lat="43.05679" lon="0.50989">
        <ele>469.19</ele>
        <time>2019-09-08T14:57:14Z</time>
      </trkpt>
      <trkpt lat="43.05246" lon="0.51527">
        <ele>471.48</ele>
        <time>2019-09-08T15:32:24Z</time>
      </trkpt>
      <trkpt lat="43.05263" lon="0.51505">
        <ele>471.48</ele>
        <time>2019-09-08T15:32:25Z</time>
      </trkpt>
      <trkpt lat="43.05284" lon="0.51481">
        <ele>471.48</ele>
        <time>2019-09-08T15:32:26Z</time>
      </trkpt>
      <trkpt lat="43.05687" lon="0.51007">
        <ele>472.09</ele>
        <time>2019-09-08T15:32:32Z</time>
      </trkpt>
      <trkpt lat="43.05691" lon="0.51002">
        <ele>473.53</ele>
        <time>2019-09-08T15:32:39Z</time>
      </trkpt>
    </trkseg>
  </trk>
</gpx>